     2.11           OBSERVATION DATA    G (GPS)             RINEX VERSION / TYPE
teqc 2010Oct21 OPUS Account 20111028 20:34:38UTC            PGM / RUN BY / DATE
B 1528                                                      MARKER NAME
3086                                                        MARKER NUMBER
CSMIDDLETON NGS                                             OBSERVER / AGENCY
0220390624 TRIMBLE R7 2.32                                  REC # / TYPE / VERS
60125046 TRM41249.00 NONE                                   ANT # / TYPE
  -699608.6024 -5594065.3520  2972846.2179                  APPROX POSITION XYZ
        2.0040        0.0000        0.0000                  ANTENNA: DELTA H/E/N
     1     1                                                WAVELENGTH FACT L1/2
     5    L1    L2    C1    P1    P2                        # / TYPES OF OBSERV
    15                                                      LEAP SECONDS
  2011     8    27     0     0   30.0000000     GPS         TIME OF FIRST OBS
                                                            END OF HEADER
 11  8 27  0  0 30.0000000  0  8G12G17G10G04G05G25G09G02
 -36816770.11357 -28648063.86756  21175742.7734                   21175741.5394
 -87504912.54356 -67599109.99654  23194987.0394                   23194988.5554
 -50174766.55958 -37722843.43455  20749036.2504                   20749035.5634
 -68252406.49657 -53125930.97355  21822103.7894                   21822104.2664
 -30384331.00457 -23635997.98456  21528822.9694                   21528823.8794
  -7729355.15257  -5983257.20354  23744804.7274                   23744808.1724
 -37863925.14157 -29461988.16853  23799742.1644                   23799745.8444
 -57539058.35558 -44794942.47356  20526236.2894                   20526232.8984
 11  8 27  0  1  0.0000000  0  8G12G17G10G04G05G25G09G02
 -35381338.66447 -27529545.82846  21448896.4774                   21448895.1134
 -85961542.96947 -66396484.46544  23488680.1094                   23488681.6134
 -48672891.16848 -36552550.90245  21034833.4224                   21034833.2074
 -66685164.83247 -51904703.72345  22120340.4534                   22120340.4414
 -28978912.23047 -22540866.35946  21796265.2974                   21796266.3054
  -6336710.00847  -4898079.12544  24009817.0474                   24009819.4574
 -36295476.13747 -28239820.26643  24098207.4454                   24098212.3524
 -56045842.66047 -43631397.76246  20810385.7424                   20810382.1454
 11  8 27  0  1 30.0000000  0  8G12G17G10G04G05G25G09G02
 -35520792.24648 -27638210.92646  21422358.9694                   21422358.2384
 -85993348.83647 -66421268.35244  23482628.4064                   23482629.2734
 -48745733.36748 -36609311.03145  21020972.1564                   21020971.5554
 -66693169.34047 -51910941.02745  22118817.1644                   22118817.3914
 -29148485.35947 -22673001.15645  21763996.4534                   21763997.1724
  -6519198.60247  -5040277.96144  23975090.5944                   23975092.8714
 -36302264.50446 -28245110.05944  24096915.8284                   24096920.4804
 -56127711.98448 -43695192.02046  20794806.5784                   20794803.3594
 11  8 27  0  2  0.0000000  0  8G12G17G10G04G05G25G09G02
 -35659717.18047 -27746464.09046  21395922.4534                   21395921.1994
 -86024922.25446 -66445871.08244  23476620.1564                   23476621.6054
 -48817884.09048 -36665532.34445  21007242.1954                   21007241.9884
 -66701014.68747 -51917054.29345  22117324.2504                   22117324.0314
 -29317635.41847 -22804806.28146  21731808.2734                   21731809.2344
  -6701405.39147  -5182257.21944  23940417.4144                   23940420.4614
 -36308886.06646 -28250269.88743  24095655.7734                   24095661.3244
 -56209258.02347 -43758734.36746  20779288.8914                   20779285.3244
 11  8 27  0  2 30.0000000  0  8G12G17G10G04G05G25G09G02
 -35798115.54347 -27854306.93746  21369586.0474                   21369585.2584
 -86056266.57446 -66470295.31644  23470655.4224                   23470656.9454
 -48889348.25048 -36721218.67245  20993643.2194                   20993642.1374
 -66708707.22747 -51923048.50445  22115860.7974                   22115860.6454
 -29486363.98047 -22936282.98046  21699700.8284                   21699700.7774
  -6883332.08247  -5324018.19944  23905797.6094                   23905801.1254
 -36315348.86346 -28255305.99643  24094426.2274                   24094431.1724
 -56290486.10948 -43822028.96546  20763831.3984                   20763828.3754
 11  8 27  0  3  0.0000000  0  8G12G17G10G04G05G25G09G02
 -35935978.46147 -27961732.55546  21343351.4614                   21343350.4924
 -86087374.46146 -66494535.33244  23464736.0084                   23464737.0394
 -48960119.44148 -36776365.04345  20980176.1254                   20980175.4024
 -66716241.63347 -51928919.48445  22114426.9064                   22114426.2584
 -29654661.45747 -23067423.76645  21667674.6564                   21667674.7584
  -7064969.11747  -5465553.44544  23871233.3834                   23871236.2344
 -36321649.09846 -28260215.41443  24093226.7734                   24093232.6214
 -56371390.85948 -43885071.60946  20748435.9924                   20748432.6294
 11  8 27  0  3 30.0000000  0  8G12G17G10G04G05G25G09G02
 -36073307.10247 -28068741.84846  21317218.9224                   21317217.7234
 -86118249.03546 -66518593.55144  23458860.9844                   23458861.8754
 -49030201.39848 -36830974.33645  20966839.3444                   20966839.0704
 -66723623.16847 -51934671.35245  22113021.7274                   22113021.9734
 -29822528.50047 -23198229.14546  21635730.2114                   21635730.7464
  -7246317.24647  -5606863.59844  23836723.4774                   23836727.1644
 -36327793.69546 -28265003.60543  24092057.7034                   24092063.2034
 -56451976.79748 -43947865.82846  20733100.9224                   20733097.4414
 11  8 27  0  4  0.0000000  0  8G12G17G10G04G05G25G09G02
 -36210097.69948 -28175331.89146  21291188.8594                   21291187.1564
 -86148887.75046 -66542467.98044  23453030.0864                   23453031.4884
 -49099592.97748 -36885045.67245  20953634.6414                   20953633.9144
 -66730851.97347 -51940304.20345  22111646.6564                   22111646.2544
 -29989960.74647 -23328695.72746  21603869.1484                   21603869.2974
  -7427372.09047  -5747945.20744  23802270.4224                   23802273.6134
 -36333784.19946 -28269671.70343  24090917.8054                   24090923.3954
 -56532243.42648 -44010411.23846  20717826.2504                   20717823.5554
 11  8 27  0  4 30.0000000  0  8G12G17G10G04G05G25G09G02
 -36346350.62548 -28281502.97746  21265260.6484                   21265258.7384
 -86179292.70746 -66566160.23444  23447244.4064                   23447246.2934
 -49168296.85247 -36938581.15245  20940560.6254                   20940560.2854
 -66737932.20347 -51945821.28544  22110299.1564                   22110299.3204
 -30156957.44147 -23458822.91446  21572090.0314                   21572090.8554
  -7608133.09847  -5888797.88744  23767872.4454                   23767875.4344
 -36339626.01246 -28274223.94943  24089807.1174                   24089811.5514
 -56612194.28948 -44072710.59446  20702612.1954                   20702608.9844
 11  8 27  0  5  0.0000000  0  8G12G17G10G04G05G25G09G02
 -36482061.82848 -28387251.93746  21239435.3834                   21239434.0554
 -86209461.21147 -66589668.24244  23441504.1254                   23441505.1094
 -49236311.61347 -36991579.65645  20927618.0004                   20927617.5004
 -66744863.13747 -51951222.04345  22108980.1414                   22108980.2274
 -30323514.46947 -23588607.50046  21540395.2424                   21540396.0004
  -7788595.66447  -6029418.00844  23733531.5704                   23733535.1484
 -36345320.39546 -28278661.31643  24088723.4844                   24088728.3794
 -56691828.21148 -44134762.98046  20687458.5634                   20687454.9884
 11  8 27  0  5 30.0000000  0  8G12G17G10G04G05G25G09G02
 -36617230.66447 -28492578.27046  21213714.0314                   21213712.4384
 -86239394.29346 -66612992.78544  23435807.2734                   23435809.3164
 -49303639.57848 -37044042.99245  20914805.5314                   20914805.4924
 -66751648.27747 -51956509.20345  22107688.8054                   22107689.5434
 -30489630.60947 -23718048.55545  21508784.4144                   21508784.7774
  -7968758.77747  -6169804.80544  23699247.9144                   23699251.4024
 -36350872.59446 -28282987.85543  24087667.5164                   24087672.2074
 -56771148.32448 -44196570.84446  20672364.5164                   20672361.2974
 11  8 27  0  6  0.0000000  0  8G12G17G10G04G05G25G09G02
 -36751856.38348 -28597481.39546  21188095.1804                   21188094.0474
 -86269092.71946 -66636134.46144  23430156.7504                   23430157.9344
 -49370282.71547 -37095972.70345  20902124.1644                   20902123.4104
 -66758290.66047 -51961685.10544  22106424.9614                   22106425.0704
 -30655304.39847 -23847144.91046  21477257.6884                   21477257.8754
  -8148621.03947  -6309957.15243  23665021.1724                   23665024.9184
 -36356286.84046 -28287206.87543  24086636.9924                   24086641.6844
 -56850157.03148 -44258136.04746  20657328.8914                   20657326.2344
 11  8 27  0  6 30.0000000  0  8G12G17G10G04G05G25G09G02
 -36885933.71147 -28701957.20746  21162581.2504                   21162579.8954
 -86298552.93447 -66659090.53944  23424550.4844                   23424551.2704
 -49436238.42248 -37147366.74645  20889573.2664                   20889573.0164
 -66764788.89547 -51966748.70744  22105188.0864                   22105188.5704
 -30820529.84447 -23975891.91045  21445816.1884                   21445816.5084
  -8328176.43046  -6449870.41043  23630852.8444                   23630855.8444
 -36361563.30146 -28291318.54743  24085632.7974                   24085637.7384
 -56928852.22348 -44319456.95746  20642354.5474                   20642351.4264
 11  8 27  0  7  0.0000000  0  8G12G17G10G04G05G25G09G02
 -37019462.36748 -28806005.47346  21137171.2814                   21137169.8874
 -86327776.02346 -66681861.84044  23418989.3054                   23418990.4534
 -49501508.98447 -37198226.91845  20877152.6334                   20877152.2774
 -66771146.24247 -51971702.50444  22103978.2344                   22103978.8874
 -30985306.39547 -24104289.12146  21414460.0234                   21414460.6804
  -8507424.15246  -6589543.88743  23596742.0084                   23596747.0704
 -36366707.11347 -28295326.85243  24084654.5164                   24084659.4304
 -57007236.71948 -44380535.76246  20627438.2814                   20627435.2194
 11  8 27  0  7 30.0000000  0  8G12G17G10G04G05G25G09G02
 -37152441.64848 -28909625.65646  21111866.3754                   21111865.1454
 -86356762.84846 -66704449.02044  23413473.5474                   23413475.2304
 -49566096.10947 -37248554.53545  20864862.0634                   20864861.8954
 -66777365.56647 -51976548.75844  22102795.4924                   22102796.1214
 -31149632.40248 -24232335.25846  21383190.2814                   21383190.3094
  -8686362.58246  -6728976.34444  23562691.8444                   23562695.3954
 -36371722.56246 -28299235.15243  24083699.9614                   24083704.6174
 -57085313.23048 -44441374.57846  20612580.4774                   20612577.8524
 11  8 27  0  8  0.0000000  0  8G12G17G10G04G05G25G09G02
 -37284868.34848 -29012815.25846  21086666.5944                   21086665.0354
 -86385511.68047 -66726850.75844  23408003.3134                   23408004.6914
 -49629999.37147 -37298349.27745  20852701.4694                   20852701.0204
 -66783447.44147 -51981287.91044  22101638.0164                   22101638.4184
 -31313504.28547 -24360027.54746  21352006.1884                   21352006.5084
  -8864987.89147  -6868164.82044  23528700.8594                   23528704.8524
 -36376611.64846 -28303045.00043  24082770.2814                   24082774.7584
 -57163081.32448 -44501973.07046  20597781.9694                   20597778.9694
 11  8 27  0  8 30.0000000  0  8G12G17G10G04G05G25G09G02
 -37416743.13348 -29115574.79346  21061571.1414                   21061570.3554
 -86414024.89146 -66749068.89844  23402576.5234                   23402578.7034
 -49693222.03147 -37347613.66845  20840670.7424                   20840670.3404
 -66789396.22347 -51985923.35244  22100506.0004                   22100505.8874
 -31476921.86747 -24487365.81646  21320908.3754                   21320909.2704
  -9043300.02047  -7007109.23444  23494768.9304                   23494772.3164
 -36381380.18447 -28306760.94943  24081862.7194                   24081867.8364
 -57240545.07448 -44562334.41846  20583040.5084                   20583037.5864
 11  8 27  0  9  0.0000000  0  8G12G17G10G04G05G25G09G02
 -37548059.62548 -29217899.30546  21036582.5474                   21036581.2664
 -86442296.93046 -66771099.10244  23397196.7424                   23397198.6374
 -49755760.23847 -37396344.71945  20828770.2734                   20828770.1524
 -66795208.70347 -51990452.57444  22099399.7584                   22099400.1684
 -31639877.80947 -24614344.37946  21289899.4304                   21289899.0434
  -9221291.63747  -7145803.92244  23460898.9384                   23460901.5394
 -36386026.86346 -28310381.91443  24080978.8594                   24080983.9414
 -57317700.96148 -44622455.86746  20568358.9534                   20568355.7704
 11  8 27  0  9 30.0000000  0  8G12G17G10G04G05G25G09G02
 -37678821.55548 -29319791.68046  21011699.2734                   21011697.9344
 -86470333.38346 -66792945.72344  23391861.8594                   23391863.4964
 -49817620.86347 -37444547.77745  20816998.5784                   20816997.8594
 -66800892.36347 -51994881.42644  22098318.4144                   22098318.7734
 -31802375.30947 -24740965.71946  21258976.8444                   21258976.9264
  -9398965.63747  -7284251.11344  23427088.0474                   23427091.4884
 -36390560.65246 -28313914.91443  24080115.0084                   24080121.4774
 -57394555.92648 -44682342.82446  20553733.8284                   20553730.5084
 11  8 27  0 10  0.0000000  0  8G12G17G10G04G05G25G09G02
 -37809026.59848 -29421250.10546  20986922.2424                   20986920.8324
 -86498133.45746 -66814608.19544  23386571.1334                   23386573.3484
 -49878804.24247 -37492223.12145  20805355.2344                   20805355.2854
 -66806448.69147 -51999211.05544  22097260.8914                   22097261.1294
 -31964411.72747 -24867227.77746  21228142.3834                   21228142.5044
  -9576319.24647  -7422448.64544  23393338.8054                   23393341.7464
 -36394984.64546 -28317362.37943  24079273.7194                   24079279.5704
 -57471111.10248 -44741996.18746  20539165.6724                   20539162.4454
 11  8 27  0 10 30.0000000  0  8G12G17G10G04G05G25G09G02
 -36363244.45348 -28294666.58646  21262045.3364                   21262043.7624
 -84950271.72746 -65608482.27044  23681120.1804                   23681121.7704
 -48363885.46547 -36311766.90245  21093634.8524                   21093635.2074
 -65236455.02747 -50775839.38744  22396020.9064                   22396021.5664
 -30550554.72348 -23765520.90646  21497189.8284                   21497190.1484
  -8177919.84447  -6332786.68044  23659445.5234                   23659447.7934
 -34823877.68446 -27093123.37943  24378246.1334                   24378251.0704
 -55971940.90248 -43573811.59046  20824448.0784                   20824444.9964
 11  8 27  0 11  0.0000000  0  8G12G17G10G04G05G25G09G02
 -36492322.08248 -28395246.50846  21237482.8364                   21237481.2154
 -84977589.71946 -65629769.03944  23675922.3674                   23675923.7304
 -48423709.32047 -36358382.86745  21082250.4774                   21082250.3164
 -65241753.59447 -50779968.15644  22395012.3364                   22395013.0594
 -30711653.41847 -23891052.26246  21466534.3674                   21466534.3134
  -8354616.71147  -6470472.46144  23625820.9064                   23625823.6764
 -34828083.87546 -27096401.09043  24377445.2734                   24377450.7504
 -56047891.85548 -43632994.13746  20809995.1724                   20809992.1254
 11  8 27  0 11 30.0000000  0  8G12G17G10G04G05G25G09G02
 -36620839.98448 -28495390.29746  21213026.3524                   21213025.5784
 -85004672.16846 -65650872.27044  23670767.4614                   23670769.9614
 -48482861.41847 -36404475.37945  21070994.7344                   21070994.2894
 -65246932.27747 -50784003.52344  22394027.4384                   22394027.6724
 -30872285.90648 -24016220.32446  21435966.5084                   21435966.5664
  -8530987.84846  -6607904.44544  23592258.0704                   23592261.1724
 -34832192.44146 -27099602.74643  24376664.0944                   24376668.9884
 -56123549.14848 -43691947.85246  20795598.2584                   20795595.1804
 11  8 27  0 12  0.0000000  0  8G12G17G10G04G05G25G09G02
 -36748796.30548 -28595096.48046  21188677.2814                   21188675.5944
 -85031519.70746 -65671792.44544  23665659.5314                   23665661.5784
 -48541342.56647 -36450045.06645  21059865.8364                   21059865.5234
 -65251992.59847 -50787946.64544  22393064.3364                   22393064.4924
 -31032449.80147 -24141023.27346  21405488.5944                   21405488.3674
  -8707030.60946  -6745080.55143  23558758.2274                   23558760.7584
 -34836206.80146 -27102731.08643  24375899.5784                   24375905.0124
 -56198914.10948 -43750673.78546  20781256.4774                   20781253.4654
 11  8 27  0 12 30.0000000  0  8G12G17G10G04G05G25G09G02
 -36876186.78148 -28694361.75046  21164435.4774                   21164434.4774
 -85058129.03546 -65692527.02044  23660595.7814                   23660597.4924
 -48599151.57847 -36495091.03145  21048865.0944                   21048864.4574
 -65256933.94547 -50791797.05144  22392124.0084                   22392124.0634
 -31192140.43048 -24265457.43046  21375100.6644                   21375100.3284
  -8882739.91446  -6881996.82044  23525321.9844                   23525324.7814
 -34840127.91446 -27105786.72343  24375154.2894                   24375159.2274
 -56273985.26248 -43809170.77046  20766970.8594                   20766968.1764
 11  8 27  0 13  0.0000000  0  8G12G17G10G04G05G25G09G02
 -37003012.37547 -28793186.86346  21140301.1094                   21140299.7974
 -85084502.58646 -65713077.87943  23655576.7664                   23655578.2584
 -48656292.03947 -36539616.03545  21037992.1334                   21037991.4884
 -65261760.57847 -50795558.09444  22391205.6954                   22391206.1564
 -31351357.77347 -24389522.79746  21344802.4844                   21344802.0634
  -9058115.78146  -7018653.25044  23491948.8674                   23491951.7854
 -34843961.58646 -27108774.21543  24374423.5084                   24374429.7934
 -56348766.98848 -43867442.23846  20752740.8444                   20752738.1094
 11  8 27  0 13 30.0000000  0  8G12G17G10G04G05G25G09G02
 -37129265.84847 -28891566.16446  21116275.8204                   21116274.8204
 -85110634.39846 -65733440.38343  23650604.6094                   23650605.8954
 -48712759.45748 -36583616.58245  21027246.4064                   21027245.8524
 -65266468.60947 -50799226.72344  22390309.9224                   22390309.8094
 -31510094.02347 -24513213.28946  21314595.9454                   21314595.3984
  -9233150.08647  -7155043.54344  23458641.3984                   23458644.1844
 -34847705.52746 -27111691.82443  24373712.5084                   24373718.8834
 -56423254.79748 -43925484.67646  20738566.3364                   20738563.2384
 11  8 27  0 14  0.0000000  0  8G12G17G10G04G05G25G09G02
 -37254953.59047 -28989504.63746  21092358.4534                   21092357.0744
 -85136531.96946 -65753620.35944  23645676.5944                   23645678.1134
 -48768563.07847 -36627099.90245  21016627.5234                   21016626.7854
 -65271067.97747 -50802810.66844  22389434.5704                   22389434.5704
 -31668355.00448 -24636533.43746  21284479.5234                   21284479.2464
  -9407848.31647  -7291171.95344  23425397.2814                   23425399.9844
 -34851370.96946 -27114548.25043  24373015.5314                   24373021.4384
 -56497458.07448 -43983305.39846  20724445.6484                   20724442.5824
 11  8 27  0 14 30.0000000  0  8G12G17G10G04G05G25G09G02
 -37380070.15248 -29086998.03946  21068549.6484                   21068548.1914
 -85162191.43746 -65773614.78944  23640793.4384                   23640796.1564
 -48823700.16448 -36670063.82845  21006135.1334                   21006134.2664
 -65275555.96947 -50806307.82444  22388580.4614                   22388580.5274
 -31826133.71947 -24759477.78946  21254455.5314                   21254455.1484
  -9582203.99247  -7427033.44945  23392218.7504                   23392221.6954
 -34854957.00446 -27117342.80143  24372332.7584                   24372339.1724
 -56571374.47748 -44040902.58246  20710379.7194                   20710377.0784
 11  8 27  0 15  0.0000000  0  8G12G17G10G04G05G25G09G02
 -37504609.07847 -29184041.33246  21044850.4844                   21044849.2464
 -85187607.52346 -65793419.56644  23635956.3984                   23635958.7814
 -48878167.03548 -36712505.51645  20995770.7194                   20995769.7664
 -65279929.77047 -50809716.00844  22387748.1724                   22387748.3874
 -31983424.29747 -24882041.77746  21224523.7114                   21224523.7814
  -9756209.80947  -7562622.30545  23359105.8524                   23359109.1174
 -34858462.69146 -27120074.72343  24371665.7734                   24371671.8714
 -56644999.96948 -44098273.09046  20696369.4534                   20696366.3054
 11  8 27  0 15 30.0000000  0  8G12G17G10G04G05G25G09G02
 -37628573.21547 -29280636.75846  21021260.5784                   21021259.9184
 -85212784.99646 -65813038.44544  23631166.0944                   23631167.6524
 -48931970.39847 -36754430.18745  20985531.9614                   20985531.6094
 -65284195.81647 -50813040.23044  22386936.4614                   22386936.8094
 -32140228.96547 -25004227.13346  21194684.5554                   21194684.8794
  -9929868.02747  -7697940.29744  23326060.0394                   23326063.0474
 -34861895.84246 -27122750.14643  24371012.4304                   24371019.0084
 -56718341.28548 -44155422.16446  20682413.0864                   20682409.9224
 11  8 27  0 16  0.0000000  0  8G12G17G10G04G05G25G09G02
 -37751965.88748 -29376786.87146  20997780.3594                   20997778.7304
 -85237727.90646 -65832474.54344  23626419.3984                   23626420.9924
 -48985115.70347 -36795842.07846  20975418.8754                   20975418.3244
 -65288360.09447 -50816285.15244  22386144.0084                   22386144.5044
 -32296549.46947 -25126035.22346  21164937.9774                   21164937.4384
 -10103180.46147  -7832988.84044  23293079.5864                   23293082.1914
 -34865264.28546 -27125375.12143  24370372.4924                   24370378.2894
 -56791403.89548 -44212354.06246  20668509.4614                   20668506.6334
 11  8 27  0 16 30.0000000  0  8G12G17G10G04G05G25G09G02
 -37874780.73447 -29472486.74246  20974409.3914                   20974407.5824
 -85262431.46946 -65851724.12943  23621718.3364                   23621720.0434
 -49037599.29747 -36836738.35545  20965431.2814                   20965430.9224
 -65292419.58647 -50819448.43744  22385371.2814                   22385371.6644
 -32452378.87947 -25247460.65246  21135284.2424                   21135283.9924
 -10276139.97746  -7967762.36744  23260166.8524                   23260169.2504
 -34868566.94546 -27127948.86343  24369743.7274                   24369750.1094
 -56864184.07848 -44269065.89546  20654659.8054                   20654656.9454
 11  8 27  0 17  0.0000000  0  8G12G17G10G04G05G25G09G02
 -37997017.12548 -29567735.86346  20951148.1174                   20951147.1684
 -85286896.06646 -65870787.49643  23617063.3134                   23617065.1684
 -49089423.18747 -36877120.58645  20955569.5554                   20955569.1414
 -65296376.74647 -50822531.97344  22384618.5004                   22384618.3834
 -32607715.87148 -25368502.37946  21105724.7664                   21105724.2624
 -10448744.75446  -8102259.49244  23227320.5704                   23227323.0514
 -34871807.60946 -27130474.30543  24369126.9064                   24369133.7344
 -56936684.65248 -44325559.83646  20640863.5164                   20640860.5274
 11  8 27  0 17 30.0000000  0  8G12G17G10G04G05G25G09G02
 -38118675.31248 -29662534.43446  20927997.7274                   20927995.8954
 -85311123.65246 -65889666.21144  23612453.1174                   23612455.2424
 -49140590.96147 -36916991.54745  20945833.0944                   20945832.1294
 -65300235.36747 -50825538.72744  22383884.1954                   22383884.5124
 -32762560.33647 -25489160.30946  21076258.4144                   21076258.2734
 -10620994.43447  -8236479.93744  23194542.5784                   23194544.5234
 -34874991.39846 -27132955.43743  24368521.5394                   24368527.8014
 -57008908.67248 -44381838.28946  20627119.8834                   20627116.4304
 11  8 27  0 18  0.0000000  0  8G12G17G10G04G05G25G09G02
 -38239748.44948 -29756877.12546  20904957.9774                   20904956.6804
 -85335108.09446 -65908355.46144  23607888.3984                   23607891.3954
 -49191098.21947 -36956347.83245  20936221.6644                   20936220.6054
 -65303990.97347 -50828465.22344  22383169.6564                   22383169.7384
 -32916904.21947 -25609428.18046  21046887.9454                   21046887.9144
 -10792880.60247  -8370417.10244  23161833.8444                   23161836.3134
 -34878116.00046 -27135390.41043  24367926.2344                   24367933.5664
 -57080851.67248 -44437897.75846  20613429.4144                   20613426.6254
 11  8 27  0 18 30.0000000  0  8G12G17G10G04G05G25G09G02
 -38360239.98048 -29850766.62546  20882029.5944                   20882028.2384
 -85358854.32846 -65926859.08243  23603369.5164                   23603371.8404
 -49240951.62547 -36995194.62945  20926734.8204                   20926734.1764
 -65307650.59847 -50831316.93044  22382473.3204                   22382472.8984
 -33070750.56248 -25729308.36346  21017611.7344                   21017611.8594
 -10964405.94547  -8504073.14844  23129193.8364                   23129195.9494
 -34881189.73046 -27137785.78543  24367342.7034                   24367349.2234
 -57152520.39148 -44493743.50446  20599791.7504                   20599788.1214
 11  8 27  0 19  0.0000000  0  8G12G17G10G04G05G25G09G02
 -38480144.84848 -29944198.97346  20859212.2504                   20859211.0394
 -85382358.77746 -65945174.32443  23598898.3754                   23598898.6174
 -49290149.13748 -37033530.33245  20917372.6484                   20917372.3714
 -65311212.14547 -50834092.20344  22381795.3364                   22381795.3284
 -33224093.62548 -25848796.37946  20988431.4064                   20988431.7934
 -11135564.45747  -8637443.32844  23096623.1484                   23096626.0784
 -34884212.59446 -27140141.52043  24366767.3984                   24366774.1524
 -57223912.45748 -44549373.66846  20586205.8594                   20586202.9924
 11  8 27  0 19 30.0000000  0  8G12G17G10G04G05G25G09G02
 -37024039.32848 -28809571.27346  21136299.6804                   21136298.6094
 -83830201.86346 -64735701.46943  23894262.5234                   23894264.7034
 -47763272.14848 -35843756.05545  21207927.8054                   21207927.4884
 -63739258.80547 -49609193.53944  22680928.1484                   22680928.0904
 -31801507.65248 -24740287.73846  21259140.8834                   21259140.4844
  -9730929.40647  -7542922.42244  23363916.4694                   23363919.2114
 -33311768.85946 -25914860.91043  24665993.5164                   24665999.9844
 -55719608.14148 -43377188.47746  20872465.5474                   20872462.2424
 11  8 27  0 20  0.0000000  0  8G12G17G10G04G05G25G09G02
 -37142769.02348 -28902087.89846  21113706.7734                   21113705.0474
 -83853224.15246 -64753640.98843  23889880.7664                   23889884.0314
 -47811164.40648 -35881074.68445  21198813.8834                   21198813.1764
 -63742631.39147 -49611821.59044  22680286.5784                   22680286.6334
 -31953840.14147 -24858988.29746  21230152.7584                   21230152.1724
  -9901348.95347  -7675716.78544  23331486.1094                   23331489.4844
 -33314701.46146 -25917146.27043  24665436.2584                   24665442.4964
 -55790452.87148 -43432392.14846  20858984.3284                   20858981.2704
 11  8 27  0 20 30.0000000  0  8G12G17G10G04G05G25G09G02
 -37260907.00048 -28994143.44146  21091225.6024                   21091223.8674
 -83876003.08246 -64771390.82844  23885547.1024                   23885549.6564
 -47858404.35947 -35917885.03945  21189824.7974                   21189824.1484
 -63745909.59447 -49614376.08644  22679663.6334                   22679663.0084
 -32105661.71948 -24977290.75046  21201262.0084                   21201261.6884
 -10071393.05547  -7808218.59044  23299127.9454                   23299130.9804
 -33317591.47346 -25919398.46542  24664885.9384                   24664892.7544
 -55861023.97348 -43487382.59446  20845555.0314                   20845551.7664
 11  8 27  0 21  0.0000000  0  8G12G17G10G04G05G25G09G02
 -37378452.30548 -29085737.16846  21068857.3674                   21068855.5984
 -83898538.80546 -64788951.19144  23881259.1254                   23881261.3164
 -47904993.98847 -35954188.63745  21180958.6644                   21180957.8954
 -63749095.59047 -49616858.74244  22679056.4924                   22679057.0784
 -32256971.17248 -25095194.13746  21172468.6254                   21172468.1994
 -10241059.91447  -7940426.44144  23266841.5864                   23266843.9924
 -33320443.06246 -25921620.73842  24664343.6254                   24664350.5664
 -55931323.51648 -43542161.43446  20832177.0864                   20832174.5434
 11  8 27  0 21 30.0000000  0  8G12G17G10G04G05G25G09G02
 -37495404.58648 -29176868.79346  21046602.1174                   21046600.1804
 -83920832.14846 -64806322.67243  23877017.0864                   23877018.6844
 -47950935.93747 -35989987.56645  21172216.5084                   21172216.1054
 -63752192.02747 -49619271.60544  22678467.5944                   22678467.3794
 -32407767.09848 -25212697.37946  21143773.2974                   21143772.8134
 -10410347.86347  -8072339.07444  23234626.9454                   23234629.3094
 -33323260.35246 -25923816.27042  24663808.3204                   24663814.5514
 -56001353.43448 -43596730.18046  20818851.1804                   20818848.1374
 11  8 27  0 22  0.0000000  0  8G12G17G10G04G05G25G09G02
 -37611766.43048 -29267540.34046  21024459.0394                   21024457.5904
 -83942887.13346 -64823508.43443  23872820.0864                   23872822.1524
 -47996235.73447 -36025286.10945  21163596.0004                   21163595.4924
 -63755204.24247 -49621618.85544  22677894.2344                   22677894.3484
 -32558051.68448 -25329802.17246  21115174.8834                   21115174.3134
 -10579258.38347  -8203957.59444  23202483.7274                   23202486.4734
 -33326050.14846 -25925990.33242  24663277.1414                   24663284.1174
 -56071119.17248 -43651093.06246  20805574.8594                   20805571.9884
 11  8 27  0 22 30.0000000  0  8G12G17G10G04G05G25G09G02
 -37727531.38348 -29357746.78946  21002430.0004                   21002428.2774
 -83964698.44546 -64840504.33243  23868669.5234                   23868670.9774
 -48040889.84847 -36060081.52745  21155098.7734                   21155097.8244
 -63758128.46947 -49623897.53144  22677337.6644                   22677337.8164
 -32707817.37148 -25446502.62546  21086675.4224                   21086674.8874
 -10747783.83247  -8335276.09444  23170415.4534                   23170416.6334
 -33328810.69146 -25928141.74642  24662751.7274                   24662759.3164
 -56140617.02348 -43705247.19946  20792350.1724                   20792346.4924
 11  8 27  0 23  0.0000000  0  8G12G17G10G04G05G25G09G02
 -37842697.73448 -29447486.77346  20980514.4454                   20980512.3204
 -83986265.30946 -64857309.74244  23864566.1804                   23864567.9574
 -48084899.57047 -36094374.80945  21146723.9224                   21146723.5904
 -63760965.96547 -49626108.64144  22676797.3674                   22676798.0164
 -32857061.84048 -25562796.94546  21058275.1954                   21058274.7194
 -10915921.35247  -8466292.31644  23138419.1484                   23138421.1954
 -33331544.70346 -25930272.38743  24662231.7584                   24662239.1254
 -56209847.59848 -43759193.06246  20779175.8204                   20779172.7734
 11  8 27  0 23 30.0000000  0  8G12G17G10G04G05G25G09G02
 -37957260.70748 -29536756.59846  20958714.0164                   20958712.0554
 -84007583.90646 -64873921.67643  23860508.3444                   23860510.9494
 -48128262.60248 -36128164.18745  21138472.3594                   21138471.9414
 -63763714.61347 -49628250.50444  22676274.4454                   22676275.5984
 -33005779.42248 -25678680.69146  21029974.9614                   21029974.8874
 -11083664.63747  -8597001.35244  23106498.9304                   23106500.6884
 -33334251.76646 -25932382.05143  24661717.3594                   24661724.4144
 -56278808.53548 -43812928.83646  20766052.9224                   20766050.0944
 11  8 27  0 24  0.0000000  0  8G12G17G10G04G05G25G09G02
 -38071222.84848 -29625558.25046  20937027.6174                   20937026.0704
 -84028658.00446 -64890343.11343  23856498.4694                   23856500.6604
 -48170984.43447 -36161453.92645  21130342.6414                   21130342.2384
 -63766379.36347 -49630326.99244  22675767.5944                   22675768.7734
 -33153971.59448 -25794155.02746  21001774.8364                   21001773.9144
 -11251014.89147  -8727404.12944  23074652.9774                   23074655.5044
 -33336938.63346 -25934476.00843  24661206.1414                   24661212.9224
 -56347505.07048 -43866458.56246  20752980.5084                   20752977.4884
 11  8 27  0 24 30.0000000  0  8G12G17G10G04G05G25G09G02
 -38184579.55148 -29713888.12946  20915456.3984                   20915454.9494
 -84049484.54746 -64906571.64543  23852535.6564                   23852537.6134
 -48213064.19148 -36194243.33645  21122334.8914                   21122334.6294
 -63768959.01247 -49632337.16844  22675277.1804                   22675277.4884
 -33301633.96948 -25909216.53946  20973675.4384                   20973675.1914
 -11417967.05547  -8857496.70344  23042883.2734                   23042885.2464
 -33339605.77746 -25936554.60243  24660698.9534                   24660705.6724
 -56415935.66848 -43919781.08246  20739958.6724                   20739955.5904
 11  8 27  0 25  0.0000000  0  8G12G17G10G04G05G25G09G02
 -38297336.93048 -29801751.01246  20893999.0084                   20893997.8984
 -84070070.14046 -64922612.40544  23848617.9844                   23848620.8594
 -48254510.36747 -36226539.05945  21114448.1884                   21114447.6914
 -63771461.96547 -49634287.56644  22674800.4384                   22674800.9924
 -33448771.07848 -26023868.76246  20945676.5164                   20945675.8444
 -11584525.20347  -8987282.25444  23011188.5634                   23011190.3954
 -33342262.98846 -25938625.46543  24660193.3204                   24660200.3244
 -56484108.25848 -43972902.55146  20726985.7034                   20726982.6954
 11  8 27  0 25 30.0000000  0  8G12G17G10G04G05G25G09G02
 -38409485.12548 -29889139.18746  20872658.2734                   20872657.0434
 -84090406.13346 -64938458.68744  23844748.3834                   23844750.8284
 -48295316.09447 -36258335.71545  21106683.4614                   21106682.7274
 -63773880.94947 -49636172.53944  22674340.6254                   22674341.7464
 -33595372.37948 -26138103.45346  20917778.5784                   20917778.3484
 -11750678.54747  -9116752.37144  22979570.6094                   22979572.2344
 -33344905.25446 -25940684.68443  24659690.7424                   24659698.0004
 -56552015.88748 -44025817.55146  20714063.6024                   20714059.6994
 11  8 27  0 26  0.0000000  0  8G12G17G10G04G05G25G09G02
 -38521027.45348 -29976055.26246  20851432.6644                   20851431.2544
 -84110497.24646 -64954114.13743  23840924.6024                   23840927.0164
 -48335487.59447 -36289638.16845  21099038.5164                   21099038.0204
 -63776221.99647 -49637996.78544  22673894.6414                   22673895.5124
 -33741440.74248 -26251922.87546  20889982.7424                   20889982.3054
 -11916429.05147  -9245908.55544  22948029.1414                   22948031.1334
 -33347540.03546 -25942738.07043  24659189.2584                   24659196.1844
 -56619664.38748 -44078530.63346  20701190.6414                   20701187.2384
 11  8 27  0 26 30.0000000  0  8G12G17G10G04G05G25G09G02
 -38631961.33648 -30062497.21546  20830322.5634                   20830320.4304
 -84130341.48846 -64969577.19943  23837148.8444                   23837150.8404
 -48375024.94947 -36320446.48445  21091515.1804                   21091514.5314
 -63778484.75847 -49639760.01644  22673464.5234                   22673464.9574
 -33886972.14848 -26365323.90246  20862289.4454                   20862288.9964
 -12081772.59047  -9374747.61345  22916565.1174                   22916567.5634
 -33350168.75446 -25944786.72743  24658689.2344                   24658697.1644
 -56687053.32848 -44131041.47746  20688366.3834                   20688363.2154
 11  8 27  0 27  0.0000000  0  8G12G17G10G04G05G25G09G02
 -38742287.54748 -30148465.65646  20809328.0314                   20809326.0984
 -84149940.60946 -64984849.29343  23833419.5314                   23833421.5234
 -48413932.36347 -36350763.93745  21084110.9924                   21084110.3874
 -63780672.98447 -49641465.16444  22673047.8444                   22673048.8204
 -34031967.10948 -26478306.90646  20834697.2194                   20834697.0514
 -12246708.74647  -9503269.24644  22885179.2424                   22885180.7624
 -33352796.71146 -25946834.82043  24658190.1484                   24658196.6844
 -56754186.03148 -44183352.64546  20675591.8364                   20675588.4844
 11  8 27  0 27 30.0000000  0  8G12G17G10G04G05G25G09G02
 -38851999.27748 -30233955.28546  20788450.4924                   20788448.6804
 -84169289.12646 -64999926.12843  23829736.9534                   23829739.5984
 -48452206.01247 -36380587.54745  21076827.8834                   21076827.3164
 -63782782.28547 -49643108.80544  22672646.7584                   22672647.6024
 -34176418.00848 -26590865.96946  20807209.3754                   20807209.0204
 -12411229.41447  -9631467.07844  22853871.5004                   22853873.7974
 -33355421.24646 -25948880.25843  24657690.9694                   24657697.8284
 -56821058.04748 -44235460.69146  20662866.0474                   20662863.1884
 11  8 27  0 28  0.0000000  0  8G12G17G10G04G05G25G09G02
 -38961097.45348 -30318966.80946  20767689.7974                   20767688.1414
 -84188389.16046 -65014809.33643  23826102.5944                   23826105.0514
 -48489849.97347 -36409920.48845  21069664.5004                   21069663.7424
 -63784816.13747 -49644693.67244  22672259.5634                   22672260.8054
 -34320325.04348 -26703001.25046  20779825.0004                   20779823.8594
 -12575334.46547  -9759341.07844  22822643.1724                   22822645.2854
 -33358047.52346 -25950927.00443  24657190.4454                   24657198.4264
 -56887673.11748 -44287368.52746  20650189.6804                   20650186.5904
 11  8 27  0 28 30.0000000  0  8G12G17G10G04G05G25G09G02
 -39069581.36748 -30403499.69946  20747045.9614                   20747044.4184
 -84207240.54746 -65029498.73443  23822515.8444                   23822517.5634
 -48526866.07047 -36438764.18045  21062620.2034                   21062620.2424
 -63786776.08247 -49646220.93744  22671887.1884                   22671887.4024
 -34463686.35548 -26814711.28946  20752543.8134                   20752543.1214
 -12739021.23847  -9886889.12944  22791494.5864                   22791496.8634
 -33360678.60246 -25952977.54343  24656690.4454                   24656697.4144
 -56954032.26648 -44339076.94146  20637562.0554                   20637558.9304
 11  8 27  0 29  0.0000000  0  8G12G17G10G04G05G25G09G02
 -37602026.39548 -29259950.32846  21026312.2274                   21026310.6914
 -82650422.71946 -63816393.96943  24118768.5314                   24118770.7544
 -46987834.98447 -35239519.17245  21355488.7194                   21355487.6954
 -62213243.33247 -48420091.53944  22971320.0164                   22971320.7034
 -33031075.64148 -25698391.17646  21025160.6884                   21025159.9304
 -11326862.14547  -8786505.32444  23060219.6334                   23060221.6254
 -31787897.72346 -24727434.28943  24955981.0864                   24955988.7854
 -55444714.91848 -43162985.49646  20924775.1094                   20924772.1334
 11  8 27  0 29 30.0000000  0  8G12G17G10G04G05G25G09G02
 -37709280.02048 -29343524.54346  21005902.5234                   21005900.8404
 -82668778.10946 -63830696.91043  24115275.0864                   24115277.9064
 -47023602.35547 -35267389.83645  21348682.1094                   21348681.0864
 -62215060.94947 -48421507.86344  22970973.8914                   22970974.6684
 -33173341.88348 -25809247.91846  20998087.9384                   20998087.5044
 -11489706.90647  -8913397.25844  23029231.5944                   23029233.7624
 -31790549.30146 -24729500.73443  24955476.0864                   24955484.5204
 -55510567.87948 -43214299.48046  20912244.1414                   20912241.0554
 11  8 27  0 30  0.0000000  0  8G12G17G10G04G05G25G09G02
 -37815915.48048 -29426617.07046  20985610.5164                   20985608.7814
 -82686883.82846 -63844805.30143  24111829.7814                   24111832.2114
 -47058747.03947 -35294775.29345  21341994.5474                   21341993.5164
 -62216807.92647 -48422869.18444  22970642.1724                   22970642.6214
 -33315056.07448 -25919674.48446  20971120.5474                   20971120.1994
 -11652125.50447  -9039957.12144  22998323.3594                   22998325.6134
 -31793214.05546 -24731577.44942  24954969.5474                   24954977.9734
 -55576168.20748 -43265416.61746  20899760.7114                   20899757.8014
 11  8 27  0 30 30.0000000  0  8G12G17G10G04G05G25G09G02
 -37921932.66048 -29509227.82846  20965436.1414                   20965434.3634
 -82704740.47346 -63858719.60543  24108431.3134                   24108434.5594
 -47093271.60247 -35321677.54345  21335424.4064                   21335423.7974
 -62218486.21547 -48424176.97744  22970322.2344                   22970323.6174
 -33456217.01248 -26029669.94946  20944258.7034                   20944258.0274
 -11814116.14547  -9166183.49644  22967498.1884                   22967499.7704
 -31795895.89845 -24733667.52042  24954459.2734                   24954468.4804
 -55641517.77348 -43316338.35246  20887325.4614                   20887322.1764
 11  8 27  0 31  0.0000000  0  7G12G17G10G04G05G25G02
 -38027328.07048 -29591354.07846  20945380.5864                   20945378.4304
 -82722345.69546 -63872437.95343  24105082.7034                   24105084.1764
 -47127175.61747 -35348096.24645  21328972.7734                   21328971.8954
 -62220095.09846 -48425430.68044  22970015.8984                   22970016.8134
 -33596820.93748 -26139231.37546  20917502.5474                   20917501.7464
 -11975674.10547  -9292072.73845  22936754.9924                   22936756.6094
 -55706615.54348 -43367063.87546  20874937.5474                   20874934.3524
 11  8 27  0 31 30.0000000  0  7G12G17G10G04G05G25G02
 -38132099.86748 -29672994.41046  20925442.6954                   20925440.5944
 -82739699.11746 -63885960.15643  24101779.3914                   24101782.6454
 -47160460.33247 -35374032.37145  21322638.5164                   21322638.1214
 -62221634.66446 -48426630.35944  22969723.4774                   22969724.1334
 -33736865.48448 -26248356.92646  20890852.8754                   20890852.1174
 -12136796.16447  -9417622.31644  22906093.8204                   22906095.8014
 -55771461.93048 -43417593.52346  20862597.4924                   20862594.2194
 11  8 27  0 32  0.0000000  0  7G12G17G10G04G05G25G02
 -38236242.71548 -29754144.64846  20905624.8134                   20905622.7344
 -82756795.45746 -63899282.02343  24098526.1804                   24098528.8094
 -47193123.00047 -35399483.78945  21316423.2664                   21316422.6764
 -62223101.88347 -48427773.68744  22969444.4614                   22969445.1334
 -33876343.43748 -26357040.97746  20864310.8204                   20864310.1414
 -12297475.35547  -9542826.81244  22875516.9384                   22875519.7424
 -55836053.70348 -43467924.77046  20850305.9844                   20850302.5044
 11  8 27  0 32 30.0000000  0  7G12G17G10G04G05G25G02
 -38339755.71148 -29834804.10246  20885926.6024                   20885925.3794
 -82773635.01246 -63912403.77043  24095320.7734                   24095324.0434
 -47225166.00447 -35424452.35945  21310325.9384                   21310325.1214
 -62224498.04747 -48428861.64544  22969178.9384                   22969179.5274
 -34015254.10248 -26465282.98846  20837877.2584                   20837876.2704
 -12457709.35547  -9667684.41444  22845025.6884                   22845028.0434
 -55900392.32048 -43518058.75446  20838063.3054                   20838059.6454
 11  8 27  0 33  0.0000000  0  7G12G17G10G04G05G25G02
 -38442631.83648 -29914967.29346  20866350.0634                   20866348.3714
 -82790211.49246 -63925320.52043  24092167.0394                   24092169.8134
 -47256585.10247 -35448934.77045  21304346.9534                   21304346.0864
 -62225818.05546 -48429890.25444  22968927.3674                   22968927.8014
 -34153589.07848 -26573076.41846  20811553.0634                   20811551.9654
 -12617489.29747  -9792188.19544  22814620.7664                   22814623.0704
 -55964472.09447 -43567991.03546  20825869.0004                   20825866.5044
 11  8 27  0 33 30.0000000  0  7G12G17G10G04G05G25G02
 -38544874.22348 -29994636.66846  20846893.9304                   20846892.3284
 -82806529.21146 -63938035.65643  24089061.5704                   24089064.9924
 -47287386.74647 -35472936.03545  21298485.7194                   21298484.6994
 -62227067.62946 -48430863.98044  22968688.7814                   22968690.1954
 -34291350.96948 -26680423.28546  20785337.6724                   20785336.8984
 -12776817.39847  -9916339.91044  22784301.4694                   22784303.4924
 -56028299.05548 -43617726.32446  20813723.1254                   20813719.9384
 11  8 27  0 34  0.0000000  0  7G12G17G10G04G05G25G02
 -38646487.55548 -30073815.87546  20827557.7974                   20827555.9454
 -82822592.80546 -63950552.75843  24086004.8674                   24086008.5434
 -47317577.52747 -35496461.30545  21292739.6954                   21292739.1484
 -62228252.75446 -48431787.52044  22968464.5084                   22968464.9694
 -34428542.87148 -26787326.00046  20759230.8134                   20759230.0904
 -12935695.91047 -10040141.29745  22754068.0164                   22754070.1024
 -56091879.28148 -43667269.35546  20801624.0004                   20801620.7734
 11  8 27  0 34 30.0000000  0  7G12G17G10G04G05G25G02
 -38747465.53148 -30152499.98846  20808342.2814                   20808340.3834
 -82838397.55146 -63962868.12143  24082997.5234                   24083000.7544
 -47347154.89847 -35519508.60545  21287111.9774                   21287111.1414
 -62229369.80147 -48432657.96144  22968251.5944                   22968252.1764
 -34565158.35948 -26893779.56246  20733233.8054                   20733233.0704
 -13094117.59047 -10163586.70745  22723921.5554                   22723923.0594
 -56155209.02048 -43716617.19146  20789572.7974                   20789569.3674
 11  8 27  0 35  0.0000000  0  7G12G17G10G04G05G25G02
 -38847812.42648 -30230692.35546  20789246.7734                   20789244.8594
 -82853948.09046 -63974985.49643  24080038.5084                   24080041.1954
 -47376125.86747 -35542083.38745  21281599.0084                   21281598.3834
 -62230424.54346 -48433479.89144  22968051.4224                   22968051.7344
 -34701200.45748 -26999786.33646  20707345.8284                   20707344.9384
 -13252084.74247 -10286677.94145  22693861.2894                   22693863.2194
 -56218294.18048 -43765774.44946  20777568.2664                   20777565.1294
 11  8 27  0 35 30.0000000  0  7G12G17G10G04G05G25G02
 -38947524.68048 -30308390.21146  20770272.2584                   20770270.4304
 -82869242.05546 -63986902.89843  24077129.5474                   24077130.4884
 -47404490.14547 -35564185.41845  21276201.5944                   21276201.2504
 -62231416.09047 -48434252.55944  22967862.4304                   22967863.0084
 -34836665.27048 -27105343.27346  20681567.5084                   20681566.5044
 -13409592.66047 -10409411.35545  22663889.3674                   22663890.5744
 -56281133.68448 -43814740.28546  20765610.2664                   20765607.0944
 11  8 27  0 36  0.0000000  0  7G12G17G10G04G05G25G02
 -39046601.62148 -30385593.02046  20751418.3834                   20751416.8164
 -82884279.46546 -63998620.37943  24074267.0394                   24074269.3204
 -47432249.65247 -35585816.21545  21270918.9924                   21270918.2544
 -62232345.20347 -48434976.58244  22967685.5004                   22967686.3204
 -34971550.86748 -27210448.86746  20655899.5784                   20655899.0474
 -13566638.85247 -10531784.95745  22634003.8284                   22634005.8244
 -56343728.68748 -43863515.60946  20753698.9844                   20753695.7114
 11  8 27  0 36 30.0000000  0  7G12G17G10G04G05G25G02
 -39145047.32448 -30462303.94546  20732685.2034                   20732683.2624
 -82899064.63746 -64010141.32043  24071453.9224                   24071456.4264
 -47459411.17247 -35606981.03945  21265750.8594                   21265749.9104
 -62233217.96546 -48435656.66044  22967518.8364                   22967520.1524
 -35105860.42648 -27315105.61346  20630341.3524                   20630340.4534
 -13723225.56647 -10653800.52745  22604206.0004                   22604208.2464
 -56406085.14148 -43912105.04746  20741832.7114                   20741829.4694
 11  8 27  0 37  0.0000000  0  7G12G17G10G04G05G25G02
 -39242860.30148 -30538521.84446  20714071.6254                   20714070.0784
 -82913597.06646 -64021465.37543  24068687.4844                   24068690.5434
 -47485976.31647 -35627681.16045  21260694.8914                   21260694.5824
 -62234034.64846 -48436293.07444  22967364.4534                   22967364.7854
 -35239591.65248 -27419311.70346  20604893.3284                   20604892.1844
 -13879349.71947 -10775455.67245  22574496.3134                   22574498.9104
 -56468203.09448 -43960508.63346  20730012.0314                   20730008.6334
 11  8 27  0 37 30.0000000  0  7G12G17G10G04G05G25G02
 -39340044.21948 -30614249.56246  20695577.9144                   20695576.5084
 -82927881.01646 -64032595.77743  24065970.3284                   24065972.2274
 -47511951.72747 -35647921.75045  21255751.8054                   21255751.4774
 -62234800.88746 -48436890.15243  22967218.3444                   22967218.5784
 -35372747.49248 -27523069.43746  20579554.3364                   20579553.4024
 -14035013.41447 -10896752.01645  22544874.8364                   22544876.5354
 -56530088.18448 -44008730.78146  20718235.6254                   20718232.6374
 11  8 27  0 38  0.0000000  0  7G12G17G10G04G05G25G02
 -39436594.30548 -30689483.39546  20677205.4694                   20677203.7234
 -82941912.54346 -64043529.50043  24063300.6024                   24063302.0634
 -47537335.26647 -35667701.14145  21250922.0784                   21250921.1644
 -62235513.87146 -48437445.73843  22967081.9224                   22967082.9534
 -35505322.19548 -27626374.33646  20554326.0704                   20554325.0864
 -14190210.26647 -11017684.59445  22515341.4844                   22515343.4924
 -56591737.60548 -44056769.27746  20706504.4064                   20706501.3164
 11  8 27  0 38 30.0000000  0  7G12G17G10G04G05G25G02
 -37957084.49248 -29536618.60246  20958746.9924                   20958745.4494
 -81380268.97346 -62826664.40643  24360470.9844                   24360473.5314
 -45986706.31647 -34459418.84445  21545996.5944                   21545996.0394
 -60660752.14146 -47210358.68043  23266749.8754                   23266749.9734
 -34061887.29748 -26501619.82046  20829002.3134                   20829001.3984
 -12769510.40247  -9910645.70745  22785692.0634                   22785692.9104
 -55077728.30947 -42877021.76646  20994610.6954                   20994607.4734
 11  8 27  0 39  0.0000000  0  7G12G17G10G04G05G25G02
 -38052365.01648 -29610863.16846  20940615.3284                   20940613.6294
 -81393795.55146 -62837204.62543  24357897.0164                   24357898.8874
 -46010913.08247 -34478281.27045  21541390.7344                   21541389.7154
 -60661361.19546 -47210833.29343  23266634.0634                   23266634.3554
 -34193294.88348 -26604015.27746  20803996.7734                   20803996.0234
 -12923766.18047 -10030844.95745  22756338.1254                   22756339.6214
 -55138909.88747 -42924695.71546  20982967.8594                   20982965.1024
 11  8 27  0 39 30.0000000  0  7G12G17G10G04G05G25G02
 -38147008.65248 -29684611.44146  20922605.1254                   20922603.5784
 -81407068.51646 -62847547.24643  24355371.2424                   24355373.8364
 -46034533.72747 -34496686.98845  21536895.2114                   21536894.6604
 -60661918.94946 -47211267.91843  23266527.9924                   23266528.7154
 -34324115.69948 -26705953.51646  20779102.1484                   20779101.2344
 -13077546.85247 -10150674.01245  22727074.4774                   22727076.0664
 -55199858.21548 -42972187.90246  20971370.0084                   20971367.1214
 11  8 27  0 40  0.0000000  0  7G12G17G10G04G05G25G02
 -38241020.67648 -29757867.55946  20904715.6174                   20904713.4774
 -81420093.94546 -62857696.95743  24352892.4924                   24352895.0274
 -46057576.38347 -34514642.30545  21532510.7974                   21532510.2384
 -60662432.27346 -47211667.90643  23266430.0704                   23266430.9614
 -34454353.78548 -26807437.68046  20754318.7974                   20754317.7734
 -13230855.95747 -10270135.60245  22697900.7424                   22697902.5314
 -55260580.11347 -43019503.65646  20959815.0944                   20959812.1564
 11  8 27  0 40 30.0000000  0  7G12G17G10G04G05G25G02
 -38334396.52348 -29830627.95346  20886946.5634                   20886944.8484
 -81432867.52746 -62867650.44943  24350461.6484                   24350464.0594
 -46080039.27347 -34532145.86345  21528235.8594                   21528235.5554
 -60662898.20746 -47212031.00843  23266342.2664                   23266342.0004
 -34584004.03548 -26908463.78546  20729646.9384                   20729646.1454
 -13383687.08647 -10389224.74245  22668817.6564                   22668819.4414
 -55321072.71947 -43066640.75046  20948303.4774                   20948301.2114
 11  8 27  0 41  0.0000000  0  7G12G17G10G04G05G25G02
 -38427137.79748 -29902893.87946  20869298.2344                   20869297.0044
 -81445391.43046 -62877409.34843  24348079.0704                   24348081.2544
 -46101926.98847 -34549201.23045  21524071.0394                   21524070.6414
 -60663319.91846 -47212359.61343  23266261.1094                   23266262.3134
 -34713067.02348 -27009032.29746  20705086.7664                   20705085.9224
 -13536040.03147 -10507941.26245  22639825.6954                   22639827.8594
 -55381339.39847 -43113601.79346  20936835.8674                   20936832.5204
 11  8 27  0 41 30.0000000  0  7G12G17G10G04G05G25G02
 -38519242.73848 -29974663.95346  20851771.4304                   20851769.6994
 -81457665.07846 -62886973.24243  24345743.3834                   24345745.8754
 -46123240.59447 -34565809.23445  21520015.3134                   21520014.5784
 -60663697.52746 -47212653.87944  23266189.7114                   23266190.5084
 -34841540.14548 -27109141.15646  20680639.1884                   20680638.4574
 -13687911.48447 -10626282.59845  22610925.8594                   22610927.6524
 -55441380.18048 -43160386.80546  20925410.8444                   20925406.6564
 11  8 27  0 42  0.0000000  0  7G12G17G10G04G05G25G02
 -38610710.72748 -30045937.69146  20834365.7814                   20834363.7234
 -81469688.21546 -62896341.94143  24343455.2274                   24343457.6214
 -46143982.54747 -34581971.80545  21516068.1414                   21516067.3674
 -60664031.74247 -47212914.34443  23266126.0704                   23266127.1054
 -34969422.23048 -27208789.48446  20656304.3054                   20656303.1414
 -13839299.03547 -10744246.87945  22582117.9924                   22582119.1604
 -55501195.68448 -43206996.28546  20914027.8984                   20914024.6844
 11  8 27  0 42 30.0000000  0  7G12G17G10G04G05G25G02
 -38701542.72748 -30116715.86746  20817080.8754                   20817079.4304
 -81481461.71146 -62905516.14143  24341214.2344                   24341217.1134
 -46164156.00447 -34597691.38745  21512228.9384                   21512228.4884
 -60664324.63747 -47213142.61743  23266069.9304                   23266070.6134
 -35096712.50048 -27307976.64846  20632081.8364                   20632080.7704
 -13990201.28947 -10861833.01245  22553401.9144                   22553403.8554
 -55560788.39848 -43253432.16846  20902687.8204                   20902683.9104
 11  8 27  0 43  0.0000000  0  7G12G17G10G04G05G25G02
 -38791738.63748 -30186998.38346  20799917.3444                   20799915.5784
 -81492986.19946 -62914496.32443  24339021.1334                   24339023.9144
 -46183763.60547 -34612970.03945  21508498.0084                   21508497.4494
 -60664577.49246 -47213339.67244  23266022.1024                   23266022.6294
 -35223410.23848 -27406702.10546  20607971.6334                   20607970.8754
 -14140616.51647 -10979039.62145  22524778.6414                   22524780.5164
 -55620159.82448 -43299695.61346  20891389.1564                   20891386.1414
 11  8 27  0 43 30.0000000  0  7G12G17G10G04G05G25G02
 -38881296.74248 -30256783.91046  20782875.0704                   20782873.4104
 -81504260.63346 -62923281.61743  24336876.6804                   24336878.8914
 -46202807.00047 -34627809.04345  21504874.3204                   21504873.4654
 -60664790.59446 -47213505.79743  23265981.3834                   23265982.2704
 -35349513.14548 -27504964.05146  20583975.2424                   20583974.5474
 -14290541.40647 -11095864.16445  22496248.7034                   22496250.3164
 -55679309.83248 -43345786.52346  20880133.2664                   20880130.3594
 11  8 27  0 44  0.0000000  0  7G12G17G10G04G05G25G02
 -38970218.83248 -30326073.84446  20765953.6334                   20765952.0354
 -81515287.27746 -62931873.82043  24334778.1724                   24334780.7624
 -46221290.46947 -34642211.75045  21501357.2194                   21501356.3134
 -60664966.65646 -47213643.03544  23265948.1254                   23265949.4144
 -35475021.79748 -27602762.95346  20560091.3594                   20560090.7114
 -14439975.74247 -11212306.44145  22467812.1724                   22467814.2424
 -55738241.79348 -43391707.53546  20868919.2274                   20868916.1724
 11  8 27  0 44 30.0000000  0  7G12G17G10G04G05G25G02
 -39058502.43048 -30394866.24646  20749153.7664                   20749151.8714
 -81526064.11346 -62940271.39143  24332727.1804                   24332730.0594
 -46239214.34447 -34656178.40245  21497946.0084                   21497945.7154
 -60665104.74246 -47213750.69143  23265921.6644                   23265922.4734
 -35599932.82848 -27700096.16846  20536321.8914                   20536320.9694
 -14588915.23847 -11328363.14545  22439470.2664                   22439471.5204
 -55796954.63348 -43437457.80546  20857746.2344                   20857743.2814
 11  8 27  0 45  0.0000000  0  7G12G17G10G04G05G25G02
 -39146148.67647 -30463162.00846  20732475.1024                   20732473.3794
 -81536592.68046 -62948475.47343  24330723.8364                   24330726.2504
 -46256582.57047 -34669712.09045  21494641.1094                   21494640.1524
 -60665207.43446 -47213830.77743  23265902.3134                   23265903.8134
 -35724246.80948 -27796964.16046  20512665.4614                   20512664.6054
 -14737359.26247 -11444033.77045  22411222.5234                   22411223.3284
 -55855450.94948 -43483039.35546  20846614.8364                   20846611.4184
 11  8 27  0 45 30.0000000  0  8G12G17G10G04G05G25G29G02
 -39233158.04348 -30530961.51246  20715917.8284                   20715916.5554
 -81546873.89546 -62956486.82443  24328767.4064                   24328769.5004
 -46273398.28547 -34682815.24245  21491441.1724                   21491440.3874
 -60665276.30546 -47213884.53144  23265888.8364                   23265890.4844
 -35847962.96548 -27893366.30546  20489123.2034                   20489121.9804
 -14885306.21547 -11559317.06245  22383068.6804                   22383070.0784
   7592235.10256   5949512.59853  24555634.6484                   24555636.4964
 -55913732.43448 -43528453.50446  20835524.4454                   20835521.0314
 11  8 27  0 46  0.0000000  0  8G12G17G10G04G05G25G29G02
 -39319539.09448 -30598271.41446  20699480.0314                   20699478.4144
 -81556916.52746 -62964312.23043  24326856.7114                   24326859.0944
 -46289672.79747 -34695496.68445  21488344.2504                   21488343.3674
 -60665320.94546 -47213919.37543  23265880.7274                   23265882.0044
 -35971088.92648 -27989308.55946  20465692.9924                   20465692.0004
 -15032762.77347 -11674218.22745  22355008.5234                   22355010.5474
   7430947.84846   5823834.28543  24524942.2894                   24524944.7584
 -55971809.17247 -43573708.10946  20824472.7504                   20824469.5594
 11  8 27  0 46 30.0000000  0  8G12G17G10G04G05G25G29G02
 -39405288.59447 -30665089.20746  20683162.1094                   20683160.8284
 -81566718.28546 -62971949.96143  24324991.0394                   24324993.6254
 -46305406.12947 -34707756.42645  21485350.2194                   21485349.2774
 -60665339.78146 -47213934.14544  23265878.4144                   23265878.4024
 -36093620.93448 -28084788.00846  20442375.9304                   20442374.9844
 -15179724.01247 -11788733.42245  22327043.1484                   22327044.5044
   7269629.22746   5698131.51643  24494245.4534                   24494246.5234
 -56029679.52047 -43618801.88346  20813460.7504                   20813457.4774
 11  8 27  0 47  0.0000000  0  8G12G17G10G04G05G25G29G02
 -39490406.17248 -30731414.58646  20666965.2664                   20666963.7704
 -81576278.69946 -62979399.60543  24323171.4064                   24323174.4344
 -46320600.23047 -34719595.98845  21482458.6644                   21482458.6764
 -60665333.12146 -47213929.04343  23265879.2194                   23265879.1994
 -36215557.12148 -28179803.16046  20419172.0784                   20419171.1254
 -15326187.27747 -11902860.59045  22299171.6564                   22299172.9064
   7108280.60946   5572405.39843  24463541.5704                   24463542.9924
 -56087344.27747 -43663735.46146  20802487.0084                   20802483.5234
 11  8 27  0 47 30.0000000  0  8G12G17G10G04G05G25G29G02
 -39574892.33648 -30797247.95346  20650888.0554                   20650886.2894
 -81585598.64546 -62986661.82843  24321397.9384                   24321400.7664
 -46335257.92647 -34731017.59445  21479669.6024                   21479669.2424
 -60665302.44546 -47213905.21143  23265884.8204                   23265885.8874
 -36336896.87548 -28274353.57046  20396082.0704                   20396081.0004
 -15472151.02047 -12016598.51645  22271395.6484                   22271396.8634
   6946901.81646   5446655.74243  24432831.6094                   24432833.4654
 -56144804.61747 -43708509.74646  20791553.1174                   20791549.7734
 11  8 27  0 48  0.0000000  0  8G12G17G10G04G05G25G29G02
 -39658744.00847 -30862586.91046  20634931.4304                   20634929.8524
 -81594675.43046 -62993734.64843  24319670.4614                   24319673.8284
 -46349379.40247 -34742021.35545  21476982.3054                   21476981.9774
 -60665246.40246 -47213861.61343  23265894.6174                   23265896.2774
 -36457636.93448 -28368436.68046  20373106.0004                   20373104.7934
 -15617610.66447 -12129943.63345  22243715.6484                   22243716.9384
   6785496.02346   5320885.07443  24402117.0784                   24402118.9924
 -56202059.16847 -43753123.69146  20780657.7664                   20780654.0944
 11  8 27  0 48 30.0000000  0  8G12G17G10G04G05G25G29G02
 -38166538.08247 -29699829.03546  20918888.9224                   20918887.3914
 -80028088.99646 -61773017.84843  24617783.2274                   24617785.0164
 -44787546.28147 -33525008.53145  21774189.4694                   21774188.3984
 -59089745.52346 -45986198.65243  23565702.3444                   23565703.9384
 -35002351.66048 -27234448.11346  20650037.3444                   20650036.5554
 -14187138.85947 -11015290.21545  22515925.0084                   22515926.8014
   8199489.26246   6422698.03543  24671190.8834                   24671192.8634
 -54683686.88347 -42569976.45346  21069594.2894                   21069591.3054
 11  8 27  0 49  0.0000000  0  8G12G17G10G04G05G25G29G02
 -38249118.77048 -29764177.62946  20903174.3754                   20903172.6484
 -80036678.61746 -61779711.08243  24616148.7274                   24616150.5904
 -44800600.85947 -33535180.93045  21771705.4144                   21771704.6484
 -59089639.00447 -45986115.73043  23565723.9694                   23565724.9064
 -35121886.54748 -27327592.13346  20627290.5234                   20627289.5944
 -14331581.76247 -11127843.06645  22488438.2974                   22488440.5744
   8038032.93446   6296887.98843  24640466.6094                   24640468.0124
 -54740531.18748 -42614270.71546  21058777.3444                   21058773.7894
 11  8 27  0 49 30.0000000  0  8G12G17G10G04G05G25G29G02
 -38331064.61347 -29828031.52046  20887580.5314                   20887578.8714
 -80045025.43046 -61786215.04343  24614559.4694                   24614561.9304
 -44813126.72347 -33544941.34845  21769321.8054                   21769321.4264
 -59089509.25846 -45986014.70343  23565748.1884                   23565748.9534
 -35240818.11348 -27420266.03146  20604658.5314                   20604657.6724
 -14475513.79747 -11239997.84045  22461048.9454                   22461051.0044
   7876551.63346   6171058.52743  24609738.4224                   24609739.6914
 -54797172.70748 -42658406.96146  21047998.8364                   21047995.4344
 11  8 27  0 50  0.0000000  0  7G12G10G04G05G25G29G02
 -38412374.33648 -29891389.74246  20872107.5784                   20872106.2814
 -44825125.26247 -33554290.85945  21767038.4224                   21767037.8754
 -59089356.15246 -45985895.44543  23565777.2194                   23565778.6174
 -35359144.32448 -27512468.23046  20582141.8524                   20582140.9384
 -14618931.97347 -11351752.19945  22433757.5084                   22433759.3834
   7715046.98046   6045210.79343  24579004.5164                   24579005.6564
 -54853611.62548 -42702385.33246  21037258.8134                   21037255.4304
 11  8 27  0 50 30.0000000  0  7G12G10G04G05G25G29G02
 -38493048.37948 -29954252.62546  20856756.1804                   20856754.6914
 -44836599.47347 -33563231.80945  21764854.9224                   21764854.1804
 -59089181.12546 -45985759.13343  23565809.8134                   23565812.0314
 -35476864.45348 -27604198.14846  20559740.3834                   20559739.4694
 -14761834.58247 -11463104.80545  22406563.7424                   22406565.7384
   7553518.94546   5919344.89543  24548266.2664                   24548268.0164
 -54909849.01248 -42746206.66446  21026557.0864                   21026554.0394
 11  8 27  0 51  0.0000000  0  7G12G10G04G05G25G29G02
 -38573081.14548 -30016615.80546  20841526.3834                   20841524.5004
 -44847546.50447 -33571761.97345  21762771.5474                   21762771.3324
 -59088979.14546 -45985601.77343  23565849.3054                   23565850.2934
 -35593971.99248 -27695450.73446  20537455.8834                   20537454.2934
 -14904213.96947 -11574049.73445  22379470.1414                   22379471.6414
   7391974.05946   5793465.87143  24517525.3834                   24517526.9024
 -54965880.41448 -42789867.49646  21015894.7664                   21015891.4344
 11  8 27  0 51 30.0000000  0  7G12G10G04G05G25G29G02
 -38652470.13348 -30078477.34046  20826419.1564                   20826417.6024
 -44857966.39547 -33579881.37145  21760789.1804                   21760788.3954
 -59088748.75846 -45985422.27043  23565892.7584                   23565894.6454
 -35710463.82848 -27786223.55146  20515287.9694                   20515286.9384
 -15046065.72747 -11684583.51245  22352476.7034                   22352478.3874
   7230415.15246   5667575.96143  24486782.0634                   24486782.9804
 -55021704.74648 -42833366.98046  21005271.8914                   21005268.5274
 11  8 27  0 52  0.0000000  0  7G12G10G04G05G25G29G02
 -38731217.92248 -30139839.24246  20811434.5314                   20811432.5314
 -44867864.65247 -33587594.30545  21758905.1254                   21758904.7504
 -59088493.46946 -45985223.40243  23565941.3444                   23565943.5274
 -35826341.48448 -27876517.78146  20493237.4064                   20493235.8484
 -15187390.52347 -11794706.67245  22325583.5164                   22325584.6724
   7068840.23446   5541673.55943  24456035.3134                   24456036.8324
 -55077325.39548 -42876707.73446  20994687.3674                   20994684.2034
 11  8 27  0 52 30.0000000  0  7G12G10G04G05G25G29G02
 -38809324.19947 -30200701.27046  20796570.5004                   20796568.9534
 -44877243.16047 -33594902.23845  21757120.6884                   21757120.5434
 -59088213.44546 -45985005.25843  23565994.8054                   23565996.2814
 -35941603.43748 -27966332.23846  20471303.3754                   20471302.0234
 -15328185.74247 -11904417.19145  22298790.9064                   22298792.5824
   6907250.46946   5415759.63743  24425285.9064                   24425286.6604
 -55132742.87548 -42919890.17646  20984142.0164                   20984138.3094
 11  8 27  0 53  0.0000000  0  7G12G10G04G05G25G29G02
 -38886787.62947 -30261062.37946  20781829.8134                   20781828.3444
 -44886103.02747 -33601806.03145  21755434.6484                   21755433.8754
 -59087908.41846 -45984767.55943  23566052.8204                   23566054.2034
 -36056247.62148 -28055665.32846  20449487.1884                   20449485.9264
 -15468447.93047 -12013712.35545  22272099.7894                   22272101.1914
   6745648.09046   5289835.87543  24394533.4844                   24394534.3954
 -55187956.69148 -42962913.91446  20973635.2344                   20973631.5904
 11  8 27  0 53 30.0000000  0  7G12G10G04G05G25G29G02
 -38963614.04348 -30320927.10546  20767210.3054                   20767208.4654
 -44894452.48047 -33608312.09445  21753845.8834                   21753845.0204
 -59087584.21946 -45984514.96943  23566114.8834                   23566115.5274
 -36170278.48048 -28144520.49646  20427788.0004                   20427786.8524
 -15608180.46147 -12122594.81245  22245509.8284                   22245511.2734
   6584028.32846   5163898.57443  24363777.7814                   24363779.2624
 -55242973.32048 -43005784.00846  20963165.7974                   20963162.6054
 11  8 27  0 54  0.0000000  0  7G12G10G04G05G25G29G02
 -39039805.09048 -30380296.73846  20752711.7274                   20752709.7974
 -44902295.74647 -33614423.73445  21752353.5784                   21752352.7234
 -59087243.35246 -45984249.36743  23566180.1254                   23566180.8524
 -36283696.70748 -28232898.28946  20406205.0234                   20406203.8134
 -15747383.12547 -12231064.38345  22219020.4304                   22219021.6094
   6422390.16446   5037946.92643  24333019.7424                   24333020.7464
 -55297795.55548 -43048502.62546  20952733.0394                   20952730.3094
 11  8 27  0 54 30.0000000  0  7G12G10G04G05G25G29G02
 -39115355.21948 -30439166.95346  20738335.3284                   20738333.3284
 -44909630.34447 -33620139.00445  21750957.6804                   21750956.9064
 -59086881.44146 -45983967.36743  23566247.7814                   23566249.6174
 -36396496.37948 -28320794.09446  20384739.9534                   20384738.8594
 -15886048.65247 -12339115.39845  22192632.9454                   22192634.7304
   6260739.56346   4911985.55543  24302258.3364                   24302258.8874
 -55352418.83248 -43091066.20746  20942338.6644                   20942334.8364
 11  8 27  0 55  0.0000000  0  7G12G10G04G05G25G29G02
 -39190267.06248 -30497539.81246  20724079.6254                   20724078.0234
 -44916461.42647 -33625461.92645  21749657.6724                   21749656.8794
 -59086501.55946 -45983671.33643  23566320.1644                   23566321.8954
 -36508678.93747 -28408209.03546  20363392.3444                   20363391.3134
 -16024177.43747 -12446748.19545  22166347.8984                   22166349.3364
   6099074.89146   4786013.22343  24271494.4774                   24271495.2504
 -55406846.62147 -43133477.45346  20931981.4454                   20931978.3554
 11  8 27  0 55 30.0000000  0  7G12G10G04G05G25G29G02
 -39264543.43448 -30555417.48846  20709945.2424                   20709943.7774
 -44922793.52047 -33630396.03545  21748453.1804                   21748452.2624
 -59086106.50446 -45983363.50443  23566396.1174                   23566397.2814
 -36620245.67648 -28495144.10546  20342162.0084                   20342160.8054
 -16161769.64547 -12553962.85545  22140164.8914                   22140166.3404
   5937394.56646   4660028.66844  24240727.3984                   24240728.6844
 -55461081.85948 -43175738.66846  20921660.7344                   20921657.6804
 11  8 27  0 56  0.0000000  0  7G12G10G04G05G25G29G02
 -39338185.94148 -30612801.26646  20695931.5704                   20695929.9384
 -44928631.01247 -33634944.72745  21747342.2504                   21747341.2464
 -59085698.43046 -45983045.55943  23566473.7344                   23566474.9454
 -36731197.85548 -28581600.30946  20321048.6174                   20321046.9734
 -16298824.96547 -12660759.18045  22114084.0784                   22114085.6214
   5775697.83646   4534031.34044  24209958.1884                   24209958.9304
 -55515127.42647 -43217852.08246  20911376.3984                   20911373.1214
 11  8 27  0 56 30.0000000  0  7G12G10G04G05G25G29G02
 -39411191.18048 -30669688.45346  20682039.7114                   20682037.3364
 -44933972.78547 -33639107.15645  21746325.4924                   21746324.7974
 -59085274.84446 -45982715.46143  23566555.1484                   23566555.3634
 -36841530.97348 -28667574.12546  20300052.5704                   20300051.4844
 -16435337.93047 -12767132.87945  22088106.9924                   22088107.8364
   5613989.01646   4408024.51643  24179185.6174                   24179187.1414
 -55568980.55548 -43259815.55146  20901128.2664                   20901125.1604
 11  8 27  0 57  0.0000000  0  7G12G10G04G05G25G29G02
 -39483562.15248 -30726081.41046  20668267.6724                   20668265.6764
 -44938824.85547 -33642888.00444  21745402.0474                   21745401.4614
 -59084839.21147 -45982376.03143  23566637.5004                   23566638.4414
 -36951246.92248 -28753067.03546  20279174.1804                   20279173.0594
 -16571309.43747 -12873084.66445  22062232.2344                   22062233.6454
   5452266.40646   4282006.95344  24148410.4534                   24148411.9024
 -55622644.75448 -43301631.78946  20890916.2114                   20890913.3874
 11  8 27  0 57 30.0000000  0  7G12G10G04G05G25G29G02
 -39555302.53948 -30781983.01246  20654615.5704                   20654614.1604
 -44943193.21547 -33646291.92245  21744570.6414                   21744570.0664
 -59084395.37147 -45982030.19543  23566721.8914                   23566722.9454
 -37060348.45348 -28838081.17246  20258413.1484                   20258412.1024
 -16706740.92247 -12978615.65645  22036460.3594                   22036461.9024
   5290526.89546   4155976.21543  24117632.6414                   24117633.5704
 -55676124.19148 -43343304.06646  20880739.3914                   20880736.3444
 11  8 27  0 58  0.0000000  0  7G12G10G04G05G25G29G02
 -38050986.83648 -29609788.96546  20940877.5164                   20940876.1254
 -43371657.02747 -32421718.27044  22043624.1724                   22043623.7154
 -57508520.61346 -44754075.85243  23866600.6094                   23866602.1454
 -35593407.87148 -27695010.55546  20537562.6954                   20537561.1644
 -15266202.71147 -11856118.32445  22310585.7034                   22310587.0594
   6704200.68846   5257540.27743  24386646.2424                   24386646.8554
 -54153995.07048 -42157229.42245  21170391.0784                   21170387.8134
 11  8 27  0 58 30.0000000  0  7G12G10G04G05G25G29G02
 -38121461.66448 -29664704.42246  20927466.6174                   20927464.9104
 -43375060.43747 -32424370.29344  22042976.5164                   22042976.2704
 -57508057.35246 -44753714.90643  23866688.9774                   23866690.1454
 -35701273.59048 -27779061.71546  20517036.0234                   20517034.7304
 -15400543.48847 -11960799.42245  22285021.5554                   22285022.8554
   6542435.72346   5131489.68843  24355862.1334                   24355863.4344
 -54207103.39548 -42198612.51646  21160285.2664                   21160281.9144
 11  8 27  0 59  0.0000000  0  7G12G10G04G05G25G29G02
 -38191299.24648 -29719123.31646  20914177.0164                   20914175.2154
 -43377979.99247 -32426645.29345  22042420.9614                   22042420.6214
 -57507579.91446 -44753342.89144  23866779.2194                   23866780.2344
 -35808514.93048 -27862626.35946  20496628.7034                   20496627.5594
 -15534330.61747 -12065049.11745  22259562.6414                   22259563.9414
   6380664.62146   5005434.34843  24325078.9384                   24325079.2384
 -54260021.75847 -42239847.60546  21150215.2344                   21150211.6134
 11  8 27  0 59 30.0000000  0  7G12G10G04G05G25G29G02
 -38260509.64548 -29773053.50046  20901006.9454                   20901005.1564
 -43380428.57847 -32428553.29345  22041955.1414                   22041954.7194
 -57507098.80146 -44752968.04744  23866871.5314                   23866873.1604
 -35915141.33648 -27945711.83246  20476338.6414                   20476337.5474
 -15667572.23047 -12168873.73845  22234207.7504                   22234208.8204
   6218878.19546   4879367.03143  24294290.7274                   24294292.0314
 -54312761.01648 -42280943.12546  21140178.9384                   21140175.4144
 11  8 27  1  0  0.0000000  0  7G12G10G04G05G25G29G02
 -38329091.33248 -29826493.78546  20887955.6884                   20887954.3594
 -43382406.72747 -32430094.71544  22041578.7274                   22041578.1994
 -57506613.20346 -44752589.67643  23866963.6334                   23866965.0744
 -36021150.36748 -28028316.22346  20456165.6954                   20456164.8244
 -15800264.79748 -12272270.51245  22208957.3754                   22208958.2584
   6057079.62546   4753290.31643  24263501.4694                   24263502.7034
 -54365320.31648 -42321898.40646  21130177.0634                   21130173.9414
 11  8 27  1  0 30.0000000  0  7G12G10G04G05G25G29G02
 -38397044.62548 -29879444.41046  20875025.1484                   20875023.0784
 -43383917.56647 -32431272.00845  22041291.0704                   22041290.8164
 -57506123.23846 -44752207.94943  23867056.6724                   23867058.3554
 -36126541.53548 -28110439.16846  20436110.6414                   20436109.2504
 -15932406.41447 -12375238.00445  22183811.6024                   22183812.3834
   5895269.03946   4627204.19143  24232711.5474                   24232711.3484
 -54417701.02748 -42362714.54746  21120209.7664                   21120206.5984
 11  8 27  1  1  0.0000000  0  7G12G10G04G05G25G29G02
 -38464367.14848 -29931903.52346  20862213.6804                   20862212.5394
 -43384960.59447 -32432084.77344  22041092.4774                   22041092.1644
 -57505626.53946 -44751820.94543  23867151.0164                   23867152.8834
 -36231310.98848 -28192077.66446  20416173.2894                   20416171.8524
 -16063992.07447 -12477772.27745  22158771.5234                   22158772.5514
   5733450.71946   4501112.05943  24201918.0084                   24201918.0784
 -54469899.89548 -42403388.98846  21110276.2584                   21110273.3244
 11  8 27  1  1 30.0000000  0  7G12G10G04G05G25G29G02
 -38531062.89148 -29983874.23046  20849522.2894                   20849520.4414
 -43385542.27747 -32432538.04745  22040982.2504                   22040981.3914
 -57505127.43046 -44751432.06243  23867246.3674                   23867248.0234
 -36335461.97348 -28273234.23046  20396354.1024                   20396352.7814
 -16195023.85947 -12579874.96545  22133836.5864                   22133837.9774
   5571621.99246   4375011.83243  24171123.4384                   24171123.2814
 -54521921.71548 -42443925.46546  21100377.5394                   21100373.7504
 11  8 27  1  2  0.0000000  0  7G12G10G04G05G25G29G02
 -38597134.53948 -30035358.64146  20836948.9844                   20836947.2814
 -43385667.79347 -32432635.86745  22040957.2034                   22040957.6804
 -57504628.40647 -44751043.25443  23867341.5944                   23867342.6914
 -36438996.25848 -28353910.26246  20376652.0554                   20376650.5744
 -16325501.97747 -12681546.23045  22109007.7034                   22109009.1134
   5409781.67246   4248902.62143  24140325.6954                   24140325.9884
 -54573769.67248 -42484326.46946  21090510.6414                   21090507.3754
 11  8 27  1  2 30.0000000  0  7G12G10G04G05G25G29G02
 -38662580.02348 -30086355.12946  20824495.4304                   20824493.3524
 -43385336.92247 -32432378.06245  22041021.6024                   22041020.9264
 -57504127.64547 -44750653.09443  23867437.0234                   23867438.4024
 -36541910.65248 -28434103.25046  20357068.1174                   20357066.6564
 -16455422.04747 -12782782.64545  22084284.7424                   22084285.9694
   5247933.20346   4122786.98443  24109527.1564                   24109527.5004
 -54625441.82847 -42524590.48446  21080678.0004                   21080674.5474
 11  8 27  1  3  0.0000000  0  7G12G10G04G05G25G29G02
 -38727401.17648 -30136865.11746  20812160.2664                   20812158.5354
 -43384553.64147 -32431767.72745  22041169.7274                   22041169.7114
 -57503626.76647 -44750262.82043  23867532.2584                   23867533.7034
 -36644205.91848 -28513813.81246  20337601.8914                   20337600.9884
 -16584783.76647 -12883583.98445  22059668.0084                   22059669.4384
   5086076.00446   3996664.57843  24078725.7504                   24078727.1294
 -54676940.46548 -42564719.29746  21070877.9774                   21070874.4534
 11  8 27  1  3 30.0000000  0  7G12G10G04G05G25G29G02
 -38791595.47748 -30186886.66046  20799944.4614                   20799942.6174
 -43383317.98047 -32430804.89545  22041405.5634                   22041404.9574
 -57503123.69546 -44749870.85243  23867628.3914                   23867629.3244
 -36745879.22748 -28593039.73046  20318254.1724                   20318252.7194
 -16713582.63747 -12983946.73845  22035158.7114                   22035159.6994
   4924214.09846   3870538.53944  24047925.2584                   24047925.8834
 -54728263.74648 -42604711.44946  21061111.5634                   21061108.1954
 11  8 27  1  4  0.0000000  0  7G12G10G04G05G25G29G02
 -38855169.80948 -30236425.10946  20787846.7664                   20787845.0204
 -43381639.29747 -32429496.85244  22041724.9384                   22041724.5554
 -57502625.33246 -44749482.53543  23867723.0314                   23867724.1484
 -36846935.88348 -28671785.14146  20299023.7424                   20299022.3674
 -16841823.25047 -13083874.48045  22010754.7274                   22010756.1724
   4762342.26246   3744404.74244  24017121.0314                   24017122.7854
 -54779418.45748 -42644572.26646  21051376.9924                   21051373.8204
 11  8 27  1  4 30.0000000  0  7G12G10G04G05G25G29G02
 -38918121.91048 -30285478.69146  20775867.4384                   20775865.4844
 -43379516.90247 -32427843.05144  22042128.3524                   22042128.0594
 -57502128.94546 -44749095.73443  23867817.3674                   23867817.3324
 -36947373.11348 -28750047.87946  20279911.1484                   20279909.4614
 -16969500.65247 -13183363.34845  21986458.4614                   21986459.8754
   4600464.43446   3618266.27743  23986317.5234                   23986317.9534
 -54830402.05948 -42684299.75046  21041675.3594                   21041672.4774
 11  8 27  1  5  0.0000000  0  7G12G10G04G05G25G29G02
 -38980454.41448 -30334049.48046  20764005.9774                   20764003.9614
 -43376955.02747 -32425846.81644  22042615.9694                   22042615.6214
 -57501636.35546 -44748711.92243  23867911.3674                   23867912.1724
 -37047191.58248 -28827828.46946  20260916.0704                   20260915.1094
 -17096614.64847 -13282413.20345  21962269.8914                   21962271.2814
   4438579.94546   3492122.61743  23955511.1174                   23955512.0394
 -54881217.03148 -42723895.82446  21032005.7734                   21032002.1884
 11  8 27  1  5 30.0000000  0  7G12G10G04G05G25G29G02
 -39042166.87948 -30382137.11746  20752262.0784                   20752260.6134
 -43373956.37147 -32423510.22344  22043186.6564                   22043186.5234
 -57501147.72746 -44748331.19543  23868003.8364                   23868004.8324
 -37146390.44548 -28905126.25446  20242039.2194                   20242037.7234
 -17223163.34848 -13381022.55545  21938188.2894                   21938189.8554
   4276690.46146   3365975.06643  23924704.7734                   23924705.0984
 -54931863.63748 -42763360.71146  21022367.7344                   21022364.4144
 11  8 27  1  6  0.0000000  0  7G12G10G04G05G25G29G02
 -39103259.45348 -30429741.73446  20740636.4614                   20740635.1994
 -43370522.85547 -32420834.77345  22043840.3834                   22043840.0004
 -57500662.98046 -44747953.47343  23868096.1334                   23868097.2624
 -37244968.79348 -28981940.51646  20223280.4454                   20223278.7344
 -17349144.30548 -13479189.51645  21914214.9534                   21914216.6174
   4114797.62546   3239824.91043  23893897.7034                   23893897.3594
 -54982341.89848 -42802694.41846  21012762.2274                   21012758.7034
 11  8 27  1  6 30.0000000  0  7G12G10G04G05G25G29G02
 -39163735.35248 -30476865.80946  20729128.7034                   20729126.8834
 -43366660.03947 -32417824.81244  22044575.2194                   22044575.0744
 -57500185.24146 -44747581.26543  23868188.0164                   23868188.6844
 -37342929.28148 -29058273.32847  20204639.1414                   20204637.6294
 -17474558.72348 -13576914.99645  21890349.4774                   21890350.8634
   3952899.77746   3113670.83643  23863090.0784                   23863089.5634
 -55032655.71548 -42841899.98046  21003187.5084                   21003184.5824
 11  8 27  1  7  0.0000000  0  7G12G10G04G05G25G29G02
 -39223595.56248 -30523510.13346  20717737.7424                   20717735.4734
 -43362370.73447 -32414482.53144  22045391.8444                   22045391.4344
 -57499714.74746 -44747214.64142  23868276.4924                   23868277.7194
 -37440271.29348 -29134124.21146  20186115.5864                   20186114.5234
 -17599404.84047 -13674197.64845  21866591.7034                   21866593.1054
   3790997.91446   2987513.64843  23832280.2034                   23832280.3874
 -55082805.55948 -42880977.77346  20993644.1254                   20993641.0164
 11  8 27  1  7 30.0000000  0  7G12G10G04G05G25G29G02
 -39282841.18448 -30569675.55146  20706463.8524                   20706461.8714
 -43357657.65647 -32410810.00444  22046288.7194                   22046287.8134
 -57499252.26646 -44746854.30142  23868364.3984                   23868366.4924
 -37536994.96548 -29209493.27746  20167709.9384                   20167708.3364
 -17723681.40247 -13771036.49645  21842942.8674                   21842944.0904
   3629092.69947   2861353.80543  23801470.4534                   23801470.7664
 -55132792.20348 -42919928.40646  20984132.3984                   20984129.0514
 11  8 27  1  8  0.0000000  0  7G12G10G04G05G25G29G02
 -37766054.41848 -29387763.78946  20995098.3984                   20995096.6054
 -41777107.44547 -31179212.46944  22347056.6804                   22347056.3914
 -55923381.64146 -43518903.24242  24168242.6484                   24168244.2624
 -36057680.30948 -28056780.52346  20449213.9534                   20449212.5234
 -16271966.18047 -12639829.79745  22119194.8594                   22119196.4844
   5042607.31647   3962793.84044  24070453.1644                   24070455.0234
 -53607198.30548 -41731153.94146  21274442.9454                   21274440.1994
 11  8 27  1  8 30.0000000  0  7G12G10G04G05G25G29G02
 -37824077.39148 -29432976.50846  20984057.2584                   20984055.4414
 -41771560.43447 -31174890.14144  22348112.7504                   22348112.3634
 -55922941.21546 -43518560.04743  24168326.5474                   24168327.9184
 -36153171.27048 -28131189.03547  20431042.6644                   20431041.2154
 -16395103.49647 -12735780.90645  22095762.5164                   22095764.2704
   4880694.27346   3836627.88343  24039643.0314                   24039643.8054
 -53656865.50448 -41769855.66446  21264991.9534                   21264988.7974
 11  8 27  1  9  0.0000000  0  7G12G10G04G05G25G29G02
 -37881490.45348 -29477713.96546  20973131.7424                   20973130.1914
 -41765600.62947 -31170246.16844  22349247.1334                   22349246.1994
 -55922512.62146 -43518226.17643  24168408.5084                   24168409.7584
 -36248045.88348 -28205117.27347  20412988.2424                   20412987.1094
 -16517669.07848 -12831286.51245  22072439.3594                   22072440.8594
   4718778.66846   3710459.92644  24008831.0164                   24008832.0434
 -53706374.33648 -41808433.96546  21255570.9694                   21255567.3324
 11  8 27  1  9 30.0000000  0  7G12G10G04G05G25G29G02
 -37938294.02348 -29521976.48846  20962322.4144                   20962320.5944
 -41759230.50847 -31165282.45344  22350459.2194                   22350458.5394
 -55922095.86746 -43517901.46543  24168487.4774                   24168489.4964
 -36342303.54748 -28278564.77346  20395051.7194                   20395050.4144
 -16639661.16848 -12926345.24645  22049224.9384                   22049226.6374
   4556862.15647   3584291.28944  23978019.2034                   23978020.0124
 -53755725.07848 -41846889.08646  21246179.5004                   21246175.9494
 11  8 27  1 10  0.0000000  0  7G12G10G04G05G25G29G02
 -37994488.86748 -29565764.68746  20951628.9144                   20951627.0904
 -41752452.77747 -31160001.12144  22351748.7664                   22351748.5274
 -55921691.08246 -43517586.10243  24168564.5864                   24168566.7814
 -36435944.01248 -28351531.34446  20377232.6954                   20377230.8404
 -16761077.91848 -13020955.66445  22026119.6024                   22026121.8954
   4394945.80147   3458122.76644  23947207.4064                   23947208.1724
 -53804917.89548 -41885221.15646  21236818.4454                   21236814.9614
 11  8 27  1 10 30.0000000  0  7G12G10G04G05G25G29G02
 -38050080.85948 -29609083.12146  20941049.8754                   20941048.3284
 -41745275.02047 -31154408.09444  22353115.3444                   22353114.7544
 -55921303.44146 -43517284.11742  24168638.6884                   24168640.6644
 -36528971.73848 -28424020.45346  20359529.4924                   20359528.4884
 -16881922.75847 -13115120.44145  22003123.6174                   22003125.2304
   4233026.19146   3331951.74244  23916395.6884                   23916395.1914
 -53853958.55148 -41923434.64546  21227486.2814                   21227483.2664
 11  8 27  1 11  0.0000000  0  7G12G10G04G05G25G29G02
 -38105068.11348 -29651930.34446  20930586.3054                   20930584.8874
 -41737697.63347 -31148503.65244  22354556.8444                   22354556.5434
 -55920930.82846 -43516993.82443  24168709.7424                   24168711.5784
 -36621384.42648 -28496030.31246  20341944.1884                   20341942.9184
 -17002191.60547 -13208836.39545  21980237.0944                   21980238.6684
   4071106.86346   3205780.91844  23885582.4844                   23885582.7704
 -53902845.14548 -41961528.09446  21218183.4224                   21218180.2424
 11  8 27  1 11 30.0000000  0  7G12G10G04G05G25G29G02
 -38159452.78948 -29694308.02346  20920237.1484                   20920235.2774
 -41729724.68747 -31142290.98844  22356074.1174                   22356073.6524
 -55920574.62946 -43516716.30143  24168777.8134                   24168779.7194
 -36713183.00848 -28567561.64846  20324475.7034                   20324474.2234
 -17121884.16447 -13302103.29745  21957460.7974                   21957461.8444
   3909187.98846   3079610.44144  23854770.8204                   23854771.0044
 -53951579.35948 -41999502.80946  21208909.7734                   21208906.1954
 11  8 27  1 12  0.0000000  0  7G12G10G04G05G25G29G02
 -38213235.43748 -29736216.59046  20910002.7344                   20910001.0704
 -41721358.21547 -31135771.68044  22357666.4844                   22357666.0044
 -55920234.76646 -43516451.54342  24168841.7504                   24168843.2234
 -36804366.99648 -28638614.07446  20307123.9924                   20307122.4304
 -17240998.68447 -13394919.78945  21934794.0474                   21934795.4654
   3747271.00846   2953441.43043  23823958.5164                   23823959.4964
 -54000161.33248 -42037358.87946  21199664.9614                   21199661.3594
 11  8 27  1 12 30.0000000  0  7G12G10G04G05G25G29G02
 -38266415.82848 -29777655.86346  20899883.0474                   20899881.5274
 -41712600.09846 -31128947.19144  22359332.5864                   22359332.6724
 -55919910.70346 -43516199.08642  24168903.3284                   24168905.2934
 -36894935.27748 -28709186.72346  20289889.3134                   20289887.9494
 -17359532.66847 -13487283.91045  21912237.9924                   21912238.7424
   3585358.07846   2827275.55544  23793147.8594                   23793149.0164
 -54048590.77348 -42075096.10546  21190448.9454                   21190445.7384
 11  8 27  1 13  0.0000000  0  8G12G26G10G04G05G25G29G02
 -38319000.09847 -29818630.62146  20889876.4224                   20889874.7384
  12352004.28955   9766933.29353  24834849.6954                   24834852.4654
 -41703458.14147 -31121823.60544  22361072.2194                   22361071.8984
 -55919607.59046 -43515963.00042  24168961.3834                   24168963.5124
 -36984892.98848 -28779283.60946  20272770.6254                   20272769.0984
 -17477489.68747 -13579198.44945  21889791.2584                   21889792.2234
   3423445.85246   2701110.27744  23762337.1024                   23762337.7624
 -54096873.21147 -42112718.78146  21181261.0004                   21181257.7464
 11  8 27  1 13 30.0000000  0  8G12G26G10G04G05G25G29G02
 -38370985.68747 -29859138.87146  20879983.5314                   20879982.6764
  12182075.11745   9634521.23442  24802513.1094                   24802517.0864
 -41693931.47347 -31114400.24644  22362885.7424                   22362885.1724
 -55919322.16446 -43515740.62942  24169015.5474                   24169018.2624
 -37074236.45748 -28848901.86346  20255768.8834                   20255767.8714
 -17594864.92648 -13670659.65645  21867455.7034                   21867456.4384
   3261538.68047   2574948.88344  23731527.5864                   23731528.0664
 -54145005.94948 -42150224.80945  21172101.7034                   21172098.1954
 11  8 27  1 14  0.0000000  0  8G12G26G10G04G05G25G29G02
 -38422387.35547 -29899192.12146  20870202.2974                   20870200.9104
  12012029.28545   9502018.25442  24770153.7344                   24770160.0904
 -41684036.70346 -31106690.05944  22364767.8364                   22364768.0394
 -55919068.16846 -43515542.78142  24169064.4614                   24169066.7704
 -37162979.39848 -28918052.17247  20238882.4534                   20238880.8284
 -17711670.52348 -13761676.99645  21845228.1884                   21845229.2894
   3099624.07847   2448781.73444  23700715.8914                   23700716.0314
 -54193003.02048 -42187625.12145  21162968.2894                   21162964.7424
 11  8 27  1 14 30.0000000  0  8G12G26G10G04G05G25G29G02
 -38473202.69148 -29938788.49246  20860532.7504                   20860531.2624
  11841872.730 5                  24737773.922
 -41673773.24247 -31098692.56244  22366721.8054                   22366720.9964
 -55918842.83246 -43515367.25842  24169108.0234                   24169109.8054
 -37251118.52348 -28986731.97347  20222109.7734                   20222108.5744
 -17827901.89147 -13852246.88745  21823110.3674                   21823111.3984
   2937706.81347   2322612.49243  23669904.0864                   23669903.4414
 -54240861.57448 -42224917.49246  21153860.8284                   21153857.5474
 11  8 27  1 15  0.0000000  0  8G12G26G10G04G05G25G29G02
 -38523431.43447 -29977927.78146  20850974.3914                   20850972.9184
  11671609.867 5                  24705373.656
 -41663142.68746 -31090409.03144  22368744.5004                   22368743.6914
 -55918645.11346 -43515213.20742  24169144.7034                   24169148.3714
 -37338652.90648 -29054940.55146  20205452.6024                   20205451.2114
 -17943556.51248 -13942367.35545  21801102.0634                   21801102.9414
   2775789.43847   2196443.14544  23639091.7894                   23639091.1604
 -54288581.09847 -42262101.54345  21144780.1644                   21144777.0984
 11  8 27  1 15 30.0000000  0  8G12G26G10G04G05G25G29G02
 -38573071.60248 -30016608.43446  20841528.2344                   20841526.5824
  11501246.668 5                  24672954.891
 -41652144.51247 -31081839.02044  22370837.2114                   22370836.4344
 -55918471.93746 -43515078.37942  24169178.4384                   24169181.3364
 -37425579.39548 -29122675.44546  20188911.0784                   20188909.6174
 -18058629.80948 -14032034.84845  21779203.9224                   21779205.1604
   2613876.24246   2070277.07043  23608281.0634                   23608280.1994
 -54336158.75048 -42299175.03545  21135726.3524                   21135722.6804
 11  8 27  1 16  0.0000000  0  8G12G26G10G04G05G25G29G02
 -38622131.08648 -30054836.60946  20832192.3284                   20832191.0634
  11330779.242 5                  24640514.250
 -41640788.37547 -31072990.09844  22372998.0554                   22372997.4774
 -55918330.36346 -43514968.13342  24169204.3444                   24169207.2544
 -37511904.71948 -29189941.89147  20172483.5944                   20172482.1724
 -18173127.21947 -14121253.59445  21757415.5634                   21757416.5314
   2451962.03146   1944110.16443  23577469.7114                   23577469.5234
 -54383602.09447 -42336143.87545  21126698.2664                   21126694.6764
 11  8 27  1 16 30.0000000  0  8G12G26G10G04G05G25G29G02
 -38670604.79747 -30092608.34046  20822967.6414                   20822966.7114
  11160216.777 5                  24608058.234
 -41629070.49647 -31063859.30944  22375228.3134                   22375227.5984
 -55918214.40245 -43514877.84442  24169226.0864                   24169230.3634
 -37597622.81648 -29256735.18047  20156172.3524                   20156170.4184
 -18287041.31648 -14210017.80945  21735738.5394                   21735740.1604
   2290054.22346   1817948.27343  23546659.9384                   23546658.6994
 -54430905.19148 -42373003.43045  21117696.6484                   21117693.2194
 11  8 27  1 17  0.0000000  0  8G12G26G10G04G05G25G29G02
 -38718493.24248 -30129924.01246  20813855.2974                   20813854.0944
  10989563.027 5                  24575584.711
 -41616993.38747 -31054448.58244  22377526.1644                   22377525.3324
 -55918123.37946 -43514807.01242  24169244.7274                   24169247.8914
 -37682733.16448 -29323054.89146  20139976.2034                   20139974.6414
 -18400370.11347 -14298325.94145  21714173.1484                   21714174.4734
   2128154.71146   1691792.87143  23515850.5704                   23515851.1024
 -54478067.86347 -42409753.55945  21108722.1804                   21108718.9844
 11  8 27  1 17 30.0000000  0  8G12G26G10G04G05G25G29G02
 -38765803.37548 -30166789.04746  20804852.7664                   20804850.9184
  10818814.895 5                  24543091.578
 -41604565.77347 -31044764.75444  22379890.8914                   22379890.2854
 -55918063.63346 -43514760.51642  24169256.0234                   24169258.9884
 -37767241.85248 -29388905.78546  20123894.5634                   20123893.0634
 -18513118.43747 -14386181.77345  21692717.5234                   21692718.9104
   1966258.87946   1565640.35544  23485042.7734                   23485043.2424
 -54525096.72348 -42446399.42246  21099773.2194                   21099769.6374
 11  8 27  1 18  0.0000000  0  8G12G26G10G04G05G25G29G02
 -37237107.57047 -28975597.51246  21095753.5004                   21095752.4494
  12223408.012 5                  24810376.016
 -40016363.94547 -29807204.92644  22682115.9694                   22682115.5314
 -54342608.57046 -42287133.24242  24469054.2504                   24469058.0314
 -36275719.68048 -28226680.69147  20407721.5314                   20407720.0634
 -17049854.45348 -13245976.04745  21971167.1254                   21971168.7774
   3379800.30946   2667101.28944  23754031.0784                   23754031.6254
 -52996563.85947 -41255334.85246  21390642.5704                   21390639.6414
 11  8 27  1 18 30.0000000  0  8G12G26G10G04G05G25G29G02
 -37283257.09847 -29011558.18446  21086971.8054                   21086970.2424
  12052488.051 5                  24777851.969
 -40003235.58247 -29796975.06244  22684614.2194                   22684613.6054
 -54342603.95346 -42287129.68042  24469054.9224                   24469058.0124
 -36359018.03948 -28291588.47346  20391871.2814                   20391868.8594
 -17161430.32048 -13332918.26245  21949934.9534                   21949936.3954
   3217923.59446   2540963.66044  23723227.0004                   23723227.2274
 -53043318.59047 -41291767.12145  21381746.2034                   21381742.6174
 11  8 27  1 19  0.0000000  0  8G12G26G10G04G05G25G29G02
 -37328827.52748 -29047067.61346  21078300.1254                   21078298.4804
  11881487.33646  10593272.54753  24745311.3594                   24745315.1024
 -39989760.58647 -29786475.09044  22687178.2034                   22687178.0234
 -54342626.66846 -42287147.45743  24469052.4224                   24469053.7544
 -36441710.58648 -28356024.19147  20376135.0164                   20376132.9654
 -17272417.46147 -13419401.73045  21928815.1254                   21928816.0514
   3056059.64547   2414835.97744  23692425.2274                   23692425.3714
 -53089936.19948 -41328092.53145  21372875.0084                   21372871.5234
 11  8 27  1 19 30.0000000  0  8G12G26G10G04G05G25G29G02
 -37373818.77747 -29082125.73446  21069738.0234                   21069737.3754
  11710410.35946  10459966.08642  24712756.0394                   24712759.5784
 -39975940.18447 -29775705.98444  22689808.6644                   22689808.1454
 -54342675.33246 -42287185.45343  24469042.7424                   24469044.6844
 -36523797.12148 -28419987.70747  20360514.2814                   20360512.6094
 -17382813.53147 -13505424.61745  21907807.2974                   21907808.1024
   2894210.80547   2288720.07844  23661626.9694                   23661626.6414
 -53136416.19947 -41364310.71945  21364029.9694                   21364026.2274
 11  8 27  1 20  0.0000000  0  8G12G26G10G04G05G25G29G02
 -37418241.37947 -29116740.76646  21061285.1644                   21061283.6174
  11539250.68446  10326595.14142  24680186.1174                   24680189.6994
 -39961786.12146 -29764676.87944  22692501.3754                   22692501.4144
 -54342759.33246 -42287250.96143  24469025.8134                   24469028.4104
 -36605286.57448 -28483485.95746  20345007.5314                   20345005.7464
 -17492626.55947 -13590993.19545  21886910.8054                   21886911.5204
   2732369.21547   2162609.81644  23630828.7274                   23630828.4614
 -53182767.80547 -41400428.85545  21355209.7814                   21355206.0634
 11  8 27  1 20 30.0000000  0  8G12G26G10G04G05G25G29G02
 -37462088.94147 -29150907.69146  21052940.9924                   21052939.5634
  11368019.21546  10193168.28143  24647600.1414                   24647604.3634
 -39947293.92247 -29753384.29744  22695259.7034                   22695259.4494
 -54342871.15246 -42287338.10543  24469005.9064                   24469006.9924
 -36686171.88348 -28546513.44947  20329615.4224                   20329613.7774
 -17601847.91847 -13676100.71945  21866126.0084                   21866127.3054
   2570543.87146   2036512.23444  23600034.4534                   23600035.0204
 -53228983.96947 -41436441.45346  21346414.9144                   21346411.9144
 11  8 27  1 21  0.0000000  0  8G12G26G10G04G05G25G29G02
 -37505368.33248 -29184631.89846  21044705.1884                   21044703.9574
  11196713.28946  10059683.36343  24615002.1724                   24615005.9574
 -39932471.88346 -29741834.70344  22698080.4454                   22698079.6294
 -54343016.48846 -42287451.38343  24468978.1724                   24468979.8554
 -36766458.77048 -28609074.63747  20314337.1804                   20314335.9304
 -17710482.01247 -13760750.63745  21845454.1724                   21845455.1414
   2408730.80946   1910424.21144  23569242.1564                   23569241.8554
 -53275070.82047 -41472353.29745  21337645.3754                   21337641.5864
 11  8 27  1 21 30.0000000  0  8G12G26G10G04G05G25G29G02
 -37548076.57447 -29217911.05946  21036578.2344                   21036577.0704
  11025340.60946   9926146.42243  24582390.1724                   24582394.2974
 -39917318.48446 -29730026.90244  22700963.8444                   22700963.3284
 -54343191.11746 -42287587.52042  24468944.5474                   24468946.7934
 -36846143.30948 -28671166.46547  20299173.8524                   20299172.4384
 -17818523.39547 -13844938.70345  21824894.1334                   21824895.8674
   2246935.80946   1784350.26643  23538454.3914                   23538453.8554
 -53321024.35947 -41508161.24246  21328900.3284                   21328896.8054
 11  8 27  1 22  0.0000000  0  8G12G26G10G04G05G25G29G02
 -37590216.93047 -29250747.70746  21028559.5554                   21028557.9384
  10853902.03946   9792558.18443  24549767.0704                   24549770.2384
 -39901838.35546 -29717964.50844  22703909.4384                   22703909.3134
 -54343396.76646 -42287747.80143  24468905.3444                   24468907.6564
 -36925227.72747 -28732790.66047  20284124.5704                   20284123.0664
 -17925972.94147 -13928665.60245  21804447.4534                   21804448.7894
   2085158.34446   1658289.97343  23507668.3364                   23507668.3754
 -53366846.81247 -41543867.05145  21320180.1564                   21320177.0124
 11  8 27  1 22 30.0000000  0  8G12G26G10G04G05G25G29G02
 -37631791.43448 -29283143.43046  21020647.7814                   21020646.4844
  10682400.48046   9658920.85243  24517130.7734                   24517134.5434
 -39886034.48046 -29705649.82844  22706916.2274                   22706917.0984
 -54343634.11346 -42287932.76242  24468860.4694                   24468862.9384
 -37003713.01248 -28793948.00446  20269188.9844                   20269187.2304
 -18032830.04747 -14011930.85945  21784113.3444                   21784114.1954
   1923399.41446   1532244.12144  23476887.1094                   23476886.4804
 -53412539.10247 -41579471.44145  21311485.4614                   21311482.2154
 11  8 27  1 23  0.0000000  0  8G12G26G10G04G05G25G29G02
 -37672802.78948 -29315100.34446  21012843.8054                   21012842.0394
  10510837.48846   9525235.65643  24484483.6564                   24484486.9104
 -39869911.28946 -29693086.37144  22709984.8364                   22709985.4694
 -54343905.10246 -42288143.97742  24468807.9064                   24468811.1254
 -37081601.21148 -28854640.08647  20254367.6644                   20254366.0474
 -18139095.44947 -14094735.04745  21763891.3834                   21763892.5784
   1761658.73846   1406212.50444  23446108.2194                   23446108.0594
 -53458103.19947 -41614975.93045  21302815.3524                   21302811.7274
 11  8 27  1 23 30.0000000  0  8G12G26G10G04G05G25G29G02
 -37713254.32048 -29346621.03146  21005146.0554                   21005144.5634
  10339214.16046   9391503.40643  24451824.0864                   24451827.7274
 -39853473.18746 -29680277.48844  22713112.9534                   22713112.8054
 -54344211.63746 -42288382.82842  24468750.9614                   24468753.4344
 -37158894.41848 -28914868.53547  20239659.1954                   20239657.8134
 -18244769.87547 -14177078.74245  21743782.5704                   21743783.4804
   1599936.36346   1280195.14144  23415333.7974                   23415333.4454
 -53503541.34847 -41650382.28145  21294168.4614                   21294164.8794
 11  8 27  1 24  0.0000000  0  8G12G26G10G04G05G25G29G02
 -37753146.77747 -29377706.07446  20997554.8204                   20997553.2074
  10167534.37546   9257727.17643  24419155.3134                   24419157.4614
 -39836722.46946 -29667225.02744  22716300.8594                   22716300.4494
 -54344552.79746 -42288648.71942  24468686.3284                   24468688.7114
 -37235592.32847 -28974633.12547  20225064.2424                   20225062.2774
 -18349851.79347 -14258960.74245  21723786.3444                   21723786.9494
   1438234.28946   1154193.59844  23384562.4064                   23384562.3524
 -53548853.19547 -41685690.20745  21285545.9614                   21285542.8054
 11  8 27  1 24 30.0000000  0  8G12G26G10G04G05G25G29G02
 -37792485.47748 -29408359.62546  20990068.6174                   20990067.4924
   9995797.30146   9123906.30543  24386474.0314                   24386477.3634
 -39819665.97746 -29653934.32044  22719546.4304                   22719546.6294
 -54344932.78946 -42288944.84042  24468613.1334                   24468616.3874
 -37311699.35248 -29033937.27747  20210581.3674                   20210579.4844
 -18454344.23047 -14340383.39845  21703901.8754                   21703903.1174
   1276549.96546   1028205.86344  23353795.5704                   23353795.2424
 -53594043.13347 -41720903.12546  21276946.4454                   21276943.5744
 11  8 27  1 25  0.0000000  0  8G12G26G10G04G05G25G29G02
 -37831264.60548 -29438577.14146  20982689.5314                   20982687.6024
   9824013.85246   8990049.27743  24353784.0394                   24353788.2464
 -39802299.01246 -29640401.65244  22722851.4614                   22722851.8054
 -54345344.04345 -42289265.35242  24468534.2114                   24468538.6954
 -37387208.98848 -29092775.93747  20196212.2034                   20196210.4224
 -18558238.68447 -14421340.10545  21684131.4694                   21684132.2704
   1114892.55546    902239.11744  23323032.9064                   23323032.7664
 -53639103.91847 -41756015.43045  21268372.0084                   21268368.6454
 11  8 27  1 25 30.0000000  0  8G12G26G10G04G05G25G29G02
 -37869491.22348 -29468364.13746  20975415.1174                   20975413.7774
   9652181.47346   8856154.12143  24321084.8204                   24321089.2974
 -39784629.72346 -29626633.41844  22726213.9924                   22726213.5474
 -54345791.99245 -42289614.47742  24468450.0004                   24468455.2154
 -37462127.19148 -29151153.73847  20181955.5944                   20181953.8244
 -18661539.87947 -14501834.55145  21664473.4064                   21664475.1524
    953258.30946    776290.42644  23292274.9844                   23292275.0084
 -53684041.59047 -41791031.80145  21259820.3834                   21259817.2894
 11  8 27  1 26  0.0000000  0  8G12G26G10G04G05G25G29G02
 -37907166.50448 -29497721.50846  20968245.8204                   20968244.4064
   9480303.58646   8722223.50442  24288377.1644                   24288380.9414
 -39766660.90646 -29612631.77043  22729633.0944                   22729633.2624
 -54346276.793 5                  24468356.688
 -37536453.96548 -29209070.68747  20167811.8134                   20167810.4694
 -18764246.82447 -14581865.93046  21644928.9384                   21644930.1884
    791648.15246    650360.50044  23261521.2814                   23261521.8634
 -53728856.23847 -41825952.30145  21251292.2584                   21251289.1764
 11  8 27  1 26 30.0000000  0  8G12G26G10G04G05G25G29G02
 -37944290.31248 -29526649.16846  20961181.6174                   20961179.8954
   9308385.38745   8588261.52042  24255662.8984                   24255666.0634
 -39748393.30946 -29598397.30943  22733109.1564                   22733109.2934
 -54346796.402 5                  24468258.875
 -37610188.48448 -29266526.14847  20153780.7114                   20153779.2304
 -18866356.77747 -14661432.11346  21625498.1414                   21625499.8404
    630066.02046    524452.41444  23230773.3364                   23230773.6994
 -53773546.37947 -41860775.78145  21242788.0234                   21242784.5784
 11  8 27  1 27  0.0000000  0  8G12G26G10G04G05G25G29G02
 -37980867.58648 -29555150.95746  20954220.9534                   20954219.3404
   9136426.57446   8454267.82842  24222939.5474                   24222944.2424
 -39729833.01646 -29583934.80143  22736641.0394                   22736642.0434
 -54347354.133 5                  24468152.102
 -37683334.48847 -29323523.01247  20139861.3284                   20139859.7344
 -18967872.25848 -14740535.09046  21606180.4144                   21606181.9964
    468510.04346    398564.72744  23200029.5704                   23200029.8634
 -53818115.61747 -41895505.05545  21234306.8284                   21234303.4924
 11  8 27  1 27 30.0000000  0  8G12G26G10G04G05G25G29G02
 -38016899.97348 -29583228.16446  20947364.2974                   20947362.8874
   8964430.25846   8320244.93442  24190209.7424                   24190213.7664
 -39710982.89146 -29569246.44944  22740229.0704                   22740228.5354
 -54347950.441 5                  24468039.156
 -37755893.12548 -29380062.19946  20126053.6724                   20126052.3364
 -19068792.83647 -14819174.49645  21586975.8524                   21586977.0044
    306981.76846    272698.58644  23169291.7344                   23169291.7344
 -53862564.41447 -41930140.46946  21225848.6804                   21225845.3834
 11  8 27  1 28  0.0000000  0  8G12G26G10G04G05G25G29G02
 -38052388.80548 -29610881.81246  20940611.0394                   20940609.1804
   8792399.98446   8186195.55942  24157473.9694                   24157476.5514
 -39691845.38746 -29554334.14143  22743870.2664                   22743870.3094
 -54348584.656 6                  24467918.461
 -37827864.49648 -29436143.77046  20112358.3914                   20112356.7814
 -19169117.25848 -14897349.36346  21567885.1254                   21567886.2734
    145483.06346    146855.50044  23138559.3834                   23138559.1134
 -53906892.77347 -41964682.05146  21217413.2344                   21217409.8444
 11  8 27  1 28 30.0000000  0  8G12G26G10G04G05G25G29G02
 -36511918.05548 -28410515.02046  21233752.4774                   21233751.5314
  10195761.23846   9279723.98843  24424524.4384                   24424527.4304
 -38097007.35946 -28311603.26644  23047358.4304                   23047357.7114
 -52773840.637 6                  24767582.320
 -36323830.36748 -28264169.11347  20398566.6254                   20398565.1174
 -17693425.19548 -13747459.44546  21848699.4694                   21848701.0204
   1559437.16846   1248637.96144  23407626.0234                   23407625.4574
 -52375683.37147 -40771531.86746  21508792.5234                   21508789.3984
 11  8 27  1 29  0.0000000  0  8G12G26G10G04G05G25G29G02
 -36546326.74248 -28437327.00446  21227204.9844                   21227203.9614
  10023670.81646   9145627.74243  24391776.8054                   24391779.2274
 -38077304.95746 -28296250.78144  23051107.5004                   23051106.7154
 -52774553.016 6                  24767447.445
 -36394630.94148 -28319338.37547  20385093.3594                   20385092.1804
 -17792557.24247 -13824705.19946  21829835.8364                   21829837.0904
   1398000.33247   1122843.05544  23376906.4774                   23376905.8714
 -52419773.82847 -40805888.07446  21500402.2344                   21500398.9614
 11  8 27  1 29 30.0000000  0  8G12G26G10G04G05G25G29G02
 -36580196.76648 -28463719.25846  21220759.8984                   21220758.4144
   9851556.30547   9011512.70343  24359024.8054                   24359026.9494
 -38057323.44546 -28280680.82044  23054909.9614                   23054909.4774
 -52775303.41846 -41062477.31252  24767303.8834                   24767306.1884
 -36464846.43448 -28374051.72747  20371732.1334                   20371730.2894
 -17891091.11347 -13901484.84046  21811085.2504                   21811086.6214
   1236597.90246    997074.98444  23346193.2274                   23346192.1454
 -52463744.80947 -40840151.18046  21492035.2424                   21492031.8594
 11  8 27  1 30  0.0000000  0  8G12G26G10G04G05G25G29G02
 -36613537.70748 -28489699.23446  21214415.5554                   21214413.9964
   9679413.26646   8877375.43443  24326266.6254                   24326269.2114
 -38037072.78546 -28264901.11744  23058763.5314                   23058763.0824
 -52776099.48446 -41063097.62542  24767152.6564                   24767155.6374
 -36534485.22748 -28428315.70747  20358480.0474                   20358478.5784
 -17989033.68747 -13977803.73446  21792447.4534                   21792448.8244
   1075224.00446    871329.14544  23315483.0394                   23315483.6414
 -52507604.08647 -40874327.23845  21483689.1174                   21483685.5514
 11  8 27  1 30 30.0000000  0  7G12G26G10G05G25G29G02
 -36646342.49648 -28515261.42646  21208172.7194                   21208171.1024
   9507253.82846   8743225.39543  24293504.9454                   24293508.0744
 -38016547.45346 -28248907.40244  23062668.9614                   23062668.9224
 -36603538.98848 -28482123.82047  20345339.5634                   20345338.2734
 -18086375.65647 -14053654.60946  21773924.0474                   21773925.1374
    913888.50046    745613.21944  23284782.5394                   23284782.6764
 -52551343.29347 -40908409.73445  21475365.5864                   21475362.2814
 11  8 27  1 31  0.0000000  0  7G12G26G10G05G25G29G02
 -36678617.88748 -28540411.10546  21202031.0944                   21202029.3874
   9335076.05946   8609061.07443  24260740.5164                   24260743.6524
 -37995754.94546 -28232705.47743  23066625.8754                   23066625.7424
 -36672014.18448 -28535481.10547  20332309.0634                   20332307.7894
 -18183121.56647 -14129041.03146  21755513.8054                   21755515.1214
    752588.35246    619924.86744  23254088.1024                   23254087.8204
 -52594967.89847 -40942402.94146  21467064.1954                   21467061.1644
 11  8 27  1 31 30.0000000  0  7G12G26G10G05G25G29G02
 -36710360.55548 -28565145.67246  21195990.6804                   21195989.0474
   9162888.43046   8474889.07443  24227973.9384                   24227977.1254
 -37974693.03946 -28216293.64144  23070633.6174                   23070633.3404
 -36739906.38748 -28588384.09847  20319389.6954                   20319388.3204
 -18279265.78548 -14203958.59446  21737217.9454                   21737219.5744
    591330.06646    494269.13344  23223401.3204                   23223401.1524
 -52638472.83248 -40976302.88745  21458785.5394                   21458782.6054
 11  8 27  1 32  0.0000000  0  7G12G26G10G05G25G29G02
 -36741571.49648 -28589465.89546  21190051.1724                   21190050.0234
   8990694.86346   8340712.42243  24195207.2274                   24195209.8874
 -37953364.00446 -28199673.67644  23074692.0864                   23074692.4804
 -36807215.67648 -28640832.87547  20306581.1094                   20306579.3324
 -18374807.02348 -14278406.30546  21719037.5944                   21719038.2814
    430116.15646    368647.97744  23192723.3364                   23192723.1174
 -52681857.91048 -41010109.44546  21450529.6254                   21450526.3244
 11  8 27  1 32 30.0000000  0  7G12G26G10G05G25G29G02
 -36772254.25448 -28613374.56246  21184212.4064                   21184211.7114
   8818497.32046   8206532.68843  24162438.8834                   24162441.2814
 -37931771.69146 -28182848.50444  23078801.6884                   23078801.6054
 -36873944.45348 -28692829.30947  20293882.9774                   20293881.4224
 -18469746.18448 -14352384.85546  21700971.0164                   21700971.9734
    268946.85547    243061.59844  23162053.5634                   23162054.2034
 -52725124.67247 -41043823.80145  21442295.8834                   21442292.8484
 11  8 27  1 33  0.0000000  0  7G12G26G10G05G25G29G02
 -36802410.12148 -28636872.66046  21178474.8054                   21178472.4964
   8646299.18046   8072352.51243  24129670.2734                   24129673.2274
 -37909918.87546 -28165820.40643  23082959.7274                   23082960.4534
 -36940093.25448 -28744373.80946  20281295.5004                   20281293.7424
 -18564082.69547 -14425893.82046  21683019.1024                   21683020.3754
    107823.80947    117511.23044  23131392.7344                   23131393.5554
 -52768273.18748 -41077446.02045  21434085.2034                   21434081.8364
 11  8 27  1 33 30.0000000  0  7G12G26G10G05G25G29G02
 -36832040.93748 -28659961.62146  21172835.5634                   21172834.2664
   8474103.85246   7938174.49243  24096902.7814                   24096905.1914
 -37887808.64546 -28148591.67243  23087167.4224                   23087167.1094
 -37005663.32448 -28795467.34846  20268817.7034                   20268816.2274
 -18657816.26248 -14498932.94946  21665181.9844                   21665183.7424
    -53251.27347     -8001.78144  23100741.2424                   23100741.1604
 -52811303.84047 -41110976.39845  21425896.8674                   21425893.4264
 11  8 27  1 34  0.0000000  0  7G12G26G10G05G25G29G02
 -36861155.95748 -28682648.66846  21167295.1094                   21167293.5274
   8301907.99246   7803996.10543  24064134.1094                   24064137.5704
 -37865449.78946 -28131169.22343  23091422.3524                   23091422.2154
 -37070662.09048 -28846115.71946  20256448.8674                   20256447.3874
 -18750952.95748 -14571506.98846  21647458.9144                   21647460.3874
   -214283.30147   -133481.23044  23070098.0784                   23070097.5984
 -52854223.62948 -41144420.37545  21417729.1644                   21417725.6134
 11  8 27  1 34 30.0000000  0  7G12G26G10G05G25G29G02
 -36889757.31647 -28704935.45746  21161852.7344                   21161851.4884
   8129714.52046   7669819.53543  24031366.9844                   24031369.3444
 -37842845.59846 -28113555.61744  23095723.7894                   23095723.9144
 -37135091.08648 -28896320.10946  20244188.5164                   20244186.6054
 -18843492.79348 -14643615.94146  21629849.2034                   21629850.5704
   -375270.80147   -258925.98844  23039463.7504                   23039462.8404
 -52897033.15647 -41177778.43745  21409583.2114                   21409579.5354
 11  8 27  1 35  0.0000000  0  7G12G26G10G05G25G29G02
 -36917836.68748 -28726815.49246  21156509.4064                   21156507.6374
   7957536.70346   7535655.21143  23998602.9844                   23998605.6054
 -37819989.05946 -28095745.35243  23100073.0164                   23100073.4844
 -37198941.17248 -28946073.40246  20232037.9304                   20232036.3524
 -18935425.52048 -14715251.81646  21612354.8284                   21612356.3094
   -536202.32047   -384327.13344  23008838.9924                   23008838.0314
 -52939722.67647 -41211042.99645  21401459.5084                   21401456.3094
 11  8 27  1 35 30.0000000  0  7G12G26G10G05G25G29G02
 -36945407.99248 -28748299.64846  21151262.3674                   21151261.5204
   7785365.70746   7401496.16443  23965839.5314                   23965841.8794
 -37796894.86746 -28077749.91443  23104467.5474                   23104467.8164
 -37262225.73448 -28995386.03146  20219995.3444                   20219994.0004
 -19026762.95748 -14786423.82846  21594974.1644                   21594975.0394
   -697088.43747   -509692.86344  22978223.7734                   22978222.5274
 -52982304.28147 -41244223.47345  21393356.2584                   21393352.8984
 11  8 27  1 36  0.0000000  0  7G12G26G10G05G25G29G02
 -36972468.47747 -28769385.75846  21146113.3984                   21146112.1054
   7613210.06346   7267349.10243  23933079.5634                   23933081.3484
 -37773560.55546 -28059567.36743  23108908.1174                   23108907.9844
 -37324940.59448 -29044254.73846  20208061.6174                   20208059.6054
 -19117499.65247 -14857127.73046  21577707.4384                   21577708.7734
   -857922.20347   -635017.82044  22947617.8204                   22947617.1764
 -53024773.45747 -41277316.32845  21385274.8284                   21385271.6414
 11  8 27  1 36 30.0000000  0  7G12G26G10G05G25G29G02
 -36999022.20348 -28790076.98846  21141060.0164                   21141058.8794
   7441071.43046   7133215.25843  23900322.7274                   23900323.3404
 -37749991.14546 -28041201.59043  23113393.8674                   23113393.2544
 -37387088.82447 -29092681.91046  20196234.8594                   20196233.1994
 -19207637.42647 -14927364.94146  21560554.6024                   21560556.0234
  -1018704.01647   -760302.28544  22917021.6884                   22917021.9964
 -53067132.37548 -41310323.26645  21377214.1094                   21377210.6884
 11  8 27  1 37  0.0000000  0  7G12G26G10G05G25G29G02
 -37025068.57048 -28810372.87946  21136104.1094                   21136102.4384
   7268955.00046   6999098.74643  23867569.2274                   23867571.4734
 -37726186.88347 -28022652.85943  23117923.2424                   23117923.8204
 -37448669.48848 -29140666.82846  20184516.0634                   20184514.4694
 -19297173.65648 -14997133.42646  21543516.3674                   21543517.5204
  -1179429.65247   -885542.98844  22886436.6174                   22886436.2814
 -53109379.03147 -41343242.73045  21369174.5314                   21369172.0124
 11  8 27  1 37 30.0000000  0  7G12G26G10G05G25G29G02
 -37050610.87947 -28830275.98846  21131243.2584                   21131242.0164
   7096863.50046   6865001.62143  23834821.4924                   23834823.4494
 -37702151.60947 -28003924.10543  23122496.8364                   23122497.1604
 -37509684.78948 -29188211.20746  20172905.4454                   20172904.1804
 -19386109.18447 -15066433.82846  21526592.6024                   21526593.7814
  -1340098.45747  -1010739.39545  22855862.2034                   22855861.9884
 -53151514.45748 -41376075.52345  21361156.7274                   21361153.6414
 11  8 27  1 38  0.0000000  0  7G12G26G10G05G25G29G02
 -37075651.53947 -28849788.21146  21126478.2734                   21126476.7074
   6924799.76246   6730926.13343  23802078.6724                   23802080.4534
 -37677888.26647 -27985017.63743  23127114.1484                   23127113.9694
 -37570135.87148 -29235315.93746  20161402.1724                   20161400.7774
 -19474444.27748 -15135266.35946  21509783.3054                   21509784.1524
  -1500709.08647  -1135890.48844  22825299.4844                   22825298.1134
 -53193539.42248 -41408822.24645  21353159.4844                   21353156.3524
 11  8 27  1 38 30.0000000  0  7G12G26G10G05G25G29G02
 -35524770.71947 -27641309.67246  21421600.8674                   21421599.6914
   8328194.14546   7824480.37143  24069135.8594                   24069137.5394
 -36077979.30947 -26738335.34443  23431567.2584                   23431566.3404
 -36054601.08248 -28054379.72746  20449798.5784                   20449797.3364
 -17986754.59448 -13976027.63746  21792881.1484                   21792882.0274
    -85833.34447    -33389.83644  23094541.6564                   23094540.1454
 -51660031.27747 -40213880.84445  21644976.7664                   21644973.2894
 11  8 27  1 39  0.0000000  0  7G12G26G10G05G25G29G02
 -35548815.86347 -27660046.17646  21417025.3444                   21417024.2464
   8156194.62946   7690454.92243  24036404.8284                   24036406.5474
 -36053269.87547 -26719081.26643  23436268.1884                   23436268.6844
 -36113929.30547 -28100609.49246  20438508.4384                   20438507.1684
 -18073889.70747 -14043925.12146  21776299.5864                   21776300.5474
   -246324.20347   -158447.57844  23064000.8054                   23064000.0354
 -51701836.99648 -40246456.72745  21637021.6724                   21637018.2074
 11  8 27  1 39 30.0000000  0  7G12G26G10G05G25G29G02
 -35572366.87947 -27678397.63746  21412543.9304                   21412542.5944
   7984231.41446   7556457.77043  24003681.4454                   24003683.2934
 -36028342.16047 -26699657.08643  23441012.5084                   23441012.5784
 -36172698.53948 -28146403.69946  20427325.5704                   20427323.8164
 -18160425.36747 -14111355.51246  21759832.3754                   21759834.0864
   -406752.92247   -283456.90644  23033471.4144                   23033471.7584
 -51743534.31647 -40278948.15245  21629086.1414                   21629083.0044
 11  8 27  1 40  0.0000000  0  7G12G26G10G05G25G29G02
 -35595425.31647 -27696365.27346  21408155.9614                   21408154.8634
   7812309.07046   7422492.43043  23970965.7814                   23970967.0164
 -36003197.98847 -26680064.27043  23445797.5314                   23445797.8874
 -36230909.12948 -28191762.59046  20416248.4224                   20416246.6484
 -18246360.70748 -14178318.11346  21743479.5704                   21743480.4144
   -567116.97347   -408415.85544  23002955.4144                   23002954.9454
 -51785122.49647 -40311354.53145  21621172.8364                   21621169.1524
 11  8 27  1 40 30.0000000  0  7G12G26G10G05G25G29G02
 -35617996.12547 -27713952.94146  21403860.5084                   21403859.5594
   7640427.87146   7288559.20343  23938257.3284                   23938258.5864
 -35977843.17647 -26660307.29343  23450622.2274                   23450622.2704
 -36288565.59448 -28236689.69946  20405276.6644                   20405275.3914
 -18331698.78948 -14244815.32846  21727240.3284                   21727240.9304
   -727417.89147   -533325.59044  22972451.2894                   22972450.3484
 -51826604.82448 -40343678.42645  21613278.8364                   21613275.5124
 11  8 27  1 41  0.0000000  0  7G12G26G10G05G25G29G02
 -35640085.22347 -27731165.25046  21399657.2974                   21399656.1054
   7468588.03546   7154658.16843  23905558.1644                   23905559.3054
 -35952283.63747 -26640390.80943  23455486.0784                   23455485.9734
 -36345672.41048 -28281188.51646  20394409.4304                   20394408.1374
 -18416442.78948 -14310849.61746  21711114.1954                   21711114.9414
   -887657.04747   -658187.20344  22941958.9144                   22941958.1024
 -51867984.63747 -40375922.45345  21605404.0234                   21605400.9494
 11  8 27  1 41 30.0000000  0  7G12G26G10G05G25G29G02
 -35661692.11747 -27748001.81245  21395545.7814                   21395544.3134
   7296795.53946   7020794.02343  23872866.7194                   23872868.2664
 -35926519.55546 -26620314.89843  23460388.4064                   23460388.7304
 -36402228.22348 -28325257.96946  20383647.6024                   20383645.8794
 -18500590.08648 -14376418.95746  21695101.2274                   21695102.4844
  -1047830.06247   -782997.27344  22911478.5944                   22911477.9224
 -51909259.48047 -40408084.69145  21597550.2664                   21597546.8324
 11  8 27  1 42  0.0000000  0  7G12G26G10G05G25G29G02
 -35682822.48447 -27764467.05146  21391524.5704                   21391523.6524
   7125050.23046   6886966.66443  23840184.0634                   23840185.5234
 -35900557.08647 -26600084.42243  23465329.2894                   23465329.0164
 -36458238.18448 -28368902.09446  20372989.1414                   20372987.4344
 -18584144.36348 -14441526.19946  21679201.1954                   21679202.4574
  -1207938.61747   -907757.11344  22881011.0634                   22881010.6604
 -51950433.27048 -40440168.18045  21589715.2584                   21589711.9264
 11  8 27  1 42 30.0000000  0  7G12G26G10G05G25G29G02
 -35703474.25847 -27780559.36346  21387595.1174                   21387593.9344
   6953359.96146   6753182.20743  23807512.1954                   23807514.2814
 -35874394.31246 -26579697.89143  23470307.4694                   23470308.0984
 -36513699.17648 -28412118.44146  20362435.4224                   20362433.5784
 -18667101.34848 -14506168.01646  21663415.1254                   21663416.6604
  -1367976.57447  -1032461.95344  22850556.8914                   22850556.4304
 -51991501.41847 -40472169.36345  21581899.7194                   21581896.6254
 11  8 27  1 43  0.0000000  0  7G12G26G10G05G25G29G02
 -35723646.45347 -27796277.98445  21383756.1024                   21383755.0004
   6781731.21946   6619445.67243  23774852.1724                   23774854.3094
 -35848031.22746 -26559155.21943  23475324.9384                   23475324.0864
 -36568609.52748 -28454905.71946  20351986.1954                   20351984.4884
 -18749458.09047 -14570342.12546  21647743.4694                   21647744.4534
  -1527939.10947  -1157108.00844  22820116.1724                   22820116.0124
 -52032461.46947 -40504086.30945  21574105.9144                   21574102.3834
 11  8 27  1 43 30.0000000  0  7G12G26G10G05G25G29G02
 -35743347.39547 -27811629.38745  21380007.3134                   21380006.3444
   6610161.38346   6485755.04743  23742204.1414                   23742205.4804
 -35821476.75046 -26538463.46943  23480377.6564                   23480377.5084
 -36622976.41848 -28497269.52346  20341640.2114                   20341638.6214
 -18831220.65648 -14634053.23046  21632184.6094                   21632185.5944
  -1687830.43047  -1281698.58645  22789690.4614                   22789690.0204
 -52073319.34047 -40535923.63345  21566330.3754                   21566327.7034
 11  8 27  1 44  0.0000000  0  7G12G26G10G05G25G29G02
 -35762580.38747 -27826616.14545  21376347.4384                   21376346.3984
   6438652.95346   6352112.26643  23709566.1954                   23709569.0124
 -35794734.61346 -26517625.48043  23485466.3754                   23485466.6564
 -36676802.42648 -28539211.85546  20331397.5944                   20331395.9224
 -18912390.30148 -14697302.31246  21616738.3754                   21616739.5904
  -1847649.70747  -1406233.01645  22759277.9844                   22759277.2664
 -52114076.18747 -40567682.24645  21558574.9224                   21558571.5354
 11  8 27  1 44 30.0000000  0  7G12G26G10G05G25G29G02
 -35781348.15647 -27841240.38746  21372776.1024                   21372774.5824
   6267209.41846   6218520.00843  23676941.7584                   23676943.7034
 -35767807.19146 -26496643.08243  23490590.8754                   23490590.1954
 -36730089.04748 -28580733.89146  20321257.2664                   20321255.8524
 -18992967.32048 -14760089.61746  21601405.0004                   21601406.2344
  -2007395.16447  -1530709.92245  22728879.3754                   22728878.6374
 -52154732.57047 -40599362.57045  21550838.0554                   21550834.9534
 11  8 27  1 45  0.0000000  0  8G12G26G10G15G05G25G29G02
 -35799649.00847 -27855500.80546  21369293.8204                   21369292.1334
   6095837.75846   6084983.78143  23644331.4384                   23644332.4884
 -35740693.55946 -26475515.60943  23495750.4224                   23495750.3984
  17087490.23055  13455087.39152  24562022.7504                   24562024.7344
 -36782834.32447 -28621834.09846  20311220.4384                   20311218.7704
 -19072948.21148 -14822412.40646  21586185.3914                   21586186.3594
  -2167061.27047  -1655125.00445  22698495.7114                   22698495.2114
 -52195284.59447 -40630961.57845  21543121.5944                   21543118.6994
 11  8 27  1 45 30.0000000  0  8G12G26G10G15G05G25G29G02
 -35817493.84047 -27869405.87145  21365897.6334                   21365896.6644
   5924533.36346   5951499.96544  23611733.3914                   23611734.5434
 -35713404.88346 -26454251.73043  23500943.5234                   23500943.1524
  16917616.64545  13322718.64842  24529696.7894                   24529700.2624
 -36835047.89848 -28662519.98046  20301284.5634                   20301282.4574
 -19152341.50847 -14884277.32046  21571077.4534                   21571078.7464
  -2326654.64847  -1779483.44545  22668126.3914                   22668126.0514
 -52235740.98048 -40662486.05945  21535423.0474                   21535419.8054
 11  8 27  1 46  0.0000000  0  8G12G26G10G15G05G25G29G02
 -35834884.51647 -27882957.07445  21362588.3134                   21362587.1414
   5753299.75846   5818071.28943  23579148.1884                   23579149.8404
 -35685943.39146 -26432853.21943  23506168.8524                   23506169.6524
  16747624.46546  13190257.51643  24497348.1334                   24497351.4384
 -36886731.05548 -28702792.57046  20291449.4144                   20291447.8364
 -19231147.19948 -14945684.36346  21556081.0234                   21556082.2934
  -2486172.97347  -1903783.37945  22637770.8754                   22637770.7584
 -52276101.14547 -40693935.54745  21527742.7344                   21527739.5434
 11  8 27  1 46 30.0000000  0  8G12G26G10G15G05G25G29G02
 -35851826.50047 -27896158.63745  21359364.7274                   21359363.2734
   5582137.69546   5684698.35943  23546576.7424                   23546577.8554
 -35658314.72746 -26411324.44143  23511426.8444                   23511426.7234
  16577512.99246  13057703.49243  24464976.5634                   24464980.5124
 -36937888.30148 -28742655.34446  20281714.6564                   20281713.2424
 -19309368.68448 -15006636.17246  21541196.0004                   21541196.9924
  -2645617.62547  -2028025.91845  22607429.4304                   22607428.6414
 -52316368.64547 -40725312.83645  21520079.8134                   21520076.8484
 11  8 27  1 47  0.0000000  0  8G12G26G10G15G05G25G29G02
 -35868321.41047 -27909011.81646  21356225.5634                   21356224.2704
   5411051.59846   5551384.62543  23514020.7114                   23514021.1374
 -35630520.95746 -26389667.01243  23516715.3134                   23516715.9804
  16407285.91046  12925059.32043  24432582.9454                   24432586.3094
 -36988519.94947 -28782108.56246  20272079.7664                   20272078.1644
 -19387005.14547 -15067132.12546  21526422.1174                   21526423.2504
  -2804985.40247  -2152208.54744  22577102.6644                   22577101.3834
 -52356542.34847 -40756617.03945  21512435.4384                   21512432.1374
 11  8 27  1 47 30.0000000  0  8G12G26G10G15G05G25G29G02
 -35884367.78547 -27921515.50445  21353172.2194                   21353170.6954
   5240048.23846   5418135.34843  23481479.1334                   23481480.5944
 -35602560.99246 -26367880.09043  23522035.3984                   23522036.3634
  16236948.96146  12792329.53143  24400168.9694                   24400172.5004
 -37038624.32847 -28821150.91846  20262545.1414                   20262543.7274
 -19464053.59448 -15127169.87946  21511760.0634                   21511761.5864
  -2964271.07047  -2276327.21145  22546791.2664                   22546790.5234
 -52396618.90647 -40787845.53945  21504808.4534                   21504805.3874
 11  8 27  1 48  0.0000000  0  8G12G26G10G15G05G25G29G02
 -35899971.72747 -27933674.43046  21350202.5234                   21350201.6914
   5069128.01646   5284950.82843  23448954.3364                   23448955.3954
 -35574440.69146 -26345968.19543  23527387.4454                   23527388.2344
  16066501.83246  12659513.92243  24367732.9224                   24367737.6884
 -37088206.49647 -28859786.35546  20253109.9304                   20253108.3364
 -19540517.67248 -15186752.28146  21497209.4454                   21497210.8094
  -3123475.96947  -2400382.93444  22516496.2114                   22516494.9304
 -52436601.68047 -40819000.94145  21497200.4924                   21497197.2704
 11  8 27  1 48 30.0000000  0  8G12G26G10G15G05G25G29G02
 -35915131.30147 -27945487.10246  21347318.1024                   21347316.3914
   4898298.46946   5151836.98443  23416446.6564                   23416446.8554
 -35546158.67246 -26323930.33243  23532769.3524                   23532770.1024
  15895950.60546  12526617.17243  24335277.9454                   24335282.8674
 -37137263.69547 -28898012.73046  20243774.8524                   20243772.8164
 -19616393.71947 -15245876.47346  21482771.2344                   21482772.2034
  -3282594.15647  -2524371.11345  22486216.6954                   22486215.8284
 -52476487.08647 -40850080.48045  21489610.6024                   21489607.1804
 11  8 27  1 49  0.0000000  0  8G12G26G10G15G05G25G29G02
 -34354428.78547 -26729355.30146  21644310.0784                   21644308.7854
   6302988.89846   6246401.03543  23683749.1884                   23683750.7774
 -33942298.35946 -25074169.10543  23837974.0784                   23837974.5314
  17300723.78546  13621245.92643  24602598.5704                   24602601.4694
 -35610375.94147 -27708230.05146  20534331.9384                   20534329.8634
 -18116259.61347 -14076940.81646  21768237.2274                   21768238.3594
  -1866198.59447  -1420686.23845  22755748.0634                   22755747.1994
 -50940853.25847 -39653482.69945  21781831.8914                   21781829.0204
 11  8 27  1 49 30.0000000  0  8G12G26G10G15G05G25G29G02
 -34368707.85247 -26740481.86346  21641592.8594                   21641591.6454
   6132350.91446   6113436.48843  23651278.7034                   23651280.3674
 -33913701.10246 -25051885.60243  23843415.6174                   23843415.9884
  17129972.48446  13488193.27743  24570105.2034                   24570108.2664
 -35658388.72748 -27745642.59846  20525195.4064                   20525193.3444
 -18190961.40248 -14135149.99646  21754021.4924                   21754022.9144
  -2025138.57047  -1544535.54745  22725502.6254                   22725502.2704
 -50980543.65648 -39684410.28545  21774279.0704                   21774276.2384
 11  8 27  1 50  0.0000000  0  8G12G26G10G15G05G25G29G02
 -34382550.02747 -26751267.99645  21638958.6884                   21638957.5354
   5961814.59046   5980551.16043  23618826.5084                   23618827.5864
 -33884949.68746 -25029481.94543  23848886.6564                   23848887.5044
  16959125.50046  13355066.05143  24537593.7974                   24537597.3954
 -35705881.19948 -27782649.69946  20516157.6724                   20516155.8484
 -18265076.24248 -14192901.82046  21739918.1724                   21739919.1564
  -2183985.91447  -1668312.64545  22695274.9844                   22695274.0234
 -51020136.17247 -39715261.59845  21766744.8364                   21766741.6954
 11  8 27  1 50 30.0000000  0  8G12G26G10G15G05G25G29G02
 -34395959.71147 -26761717.12145  21636407.1564                   21636405.6414
   5791381.34846   5847746.12943  23586393.9694                   23586394.8594
 -33856048.74246 -25006961.79343  23854386.8834                   23854387.2384
  16788182.88746  13221864.32443  24505064.3834                   24505066.5704
 -35752856.87147 -27819254.10546  20507218.4144                   20507216.5124
 -18338606.71948 -14250198.29345  21725925.7584                   21725926.8674
  -2342740.43047  -1792017.43045  22665065.0554                   22665064.2894
 -51059632.87547 -39746038.25045  21759228.7424                   21759225.6914
 11  8 27  1 51  0.0000000  0  8G12G26G10G15G05G25G29G02
 -34408936.33647 -26771828.79345  21633937.4304                   21633936.2704
   5621057.93046   5715026.67643  23553982.1174                   23553983.7194
 -33826998.12946 -24984325.02343  23859915.4384                   23859915.8484
  16617150.71146  13088592.78543  24472517.3134                   24472520.1524
 -35799314.85248 -27855455.10546  20498378.0084                   20498376.0664
 -18411550.34048 -14307037.48046  21712044.8364                   21712046.0394
  -2501397.35947  -1915646.17645  22634873.6024                   22634872.5164
 -51099031.18047 -39776738.23045  21751731.8054                   21751728.4064
 11  8 27  1 51 30.0000000  0  8G12G26G10G15G05G25G29G02
 -34421490.25447 -26781611.09045  21631548.8054                   21631547.5124
   5450839.87947   5582389.34844  23521591.1884                   23521592.7734
 -33797808.03146 -24961579.52343  23865469.9694                   23865469.6604
  16446023.58646  12955247.27743  24439952.4774                   24439956.3484
 -35845264.68448 -27891260.15646  20489633.9454                   20489632.0514
 -18483915.53548 -14363425.93446  21698274.8284                   21698275.5084
  -2659962.57447  -2039203.44945  22604699.0704                   22604698.7974
 -51138338.94947 -39807367.66445  21744251.8524                   21744248.0004
 11  8 27  1 52  0.0000000  0  8G12G26G10G15G05G25G29G02
 -34433619.17647 -26791062.21146  21629240.7194                   21629240.0044
   5280735.77346   5449840.82443  23489220.7734                   23489221.8484
 -33768476.26646 -24938723.64143  23871051.4694                   23871051.2274
  16274809.10546  12821833.69143  24407371.5554                   24407374.3094
 -35890702.77747 -27926666.44546  20480987.3914                   20480985.2504
 -18555697.97748 -14419360.29346  21684614.6334                   21684615.7194
  -2818429.41447  -2162684.05945  22574543.7344                   22574543.6294
 -51177551.14547 -39837922.61345  21736789.4774                   21736786.5474
 11  8 27  1 52 30.0000000  0  8G12G26G10G15G05G25G29G02
 -34445324.23047 -26800183.05945  21627013.2424                   21627011.8014
   5110750.37147   5317384.76644  23456873.2814                   23456874.7734
 -33739003.80146 -24915758.13743  23876660.7974                   23876659.9344
  16103511.34846  12688355.23043  24374774.4454                   24374777.4064
 -35935629.70747 -27961674.43046  20472437.6804                   20472436.1564
 -18626897.02048 -14474840.05546  21671066.0314                   21671067.5704
  -2976794.48447  -2286085.35545  22544408.0784                   22544407.8874
 -51216666.39147 -39868402.03945  21729346.3284                   21729343.2114
 11  8 27  1 53  0.0000000  0  8G12G26G10G15G05G25G29G02
 -34456611.35947 -26808978.23446  21624865.5084                   21624864.4494
   4940884.11746   5185021.56643  23424549.2814                   23424550.7814
 -33709396.61746 -24892687.63343  23882293.6954                   23882293.6294
  15932129.64546  12554811.32443  24342161.5394                   24342164.1564
 -35980050.73447 -27996288.20746  20463985.1804                   20463982.8204
 -18697516.57048 -14529868.27746  21657627.1254                   21657628.6914
  -3135058.89147  -2409408.22745  22514291.0634                   22514290.4384
 -51255688.34447 -39898808.77045  21721920.3914                   21721917.6134
 11  8 27  1 53 30.0000000  0  8G12G26G10G15G05G25G29G02
 -34467480.34447 -26817447.59445  21622797.0784                   21622795.4414
   4771143.30546   5052756.09844  23392248.5634                   23392249.1844
 -33679654.78546 -24869512.22343  23887954.5944                   23887954.0084
  15760669.41846  12421206.25043  24309532.4774                   24309536.2384
 -36023964.85547 -28030506.99246  20455628.3054                   20455626.4344
 -18767554.55548 -14584443.31246  21644299.9694                   21644301.0944
  -3293218.20747  -2532649.20345  22484194.9924                   22484193.8754
 -51294613.75047 -39929140.26245  21714513.2584                   21714509.9224
 11  8 27  1 54  0.0000000  0  8G12G26G10G15G05G25G29G02
 -34477937.30947 -26825595.89545  21620807.3984                   21620805.8364
   4601528.01646   4920588.43043  23359972.2974                   23359972.5164
 -33649784.09446 -24846236.38343  23893638.2114                   23893638.3094
  15589129.55446  12287539.13943  24276889.6254                   24276892.7664
 -36067377.12148 -28064334.71146  20447367.2664                   20447365.5594
 -18837015.08648 -14638568.39546  21631081.8594                   21631083.0124
  -3451273.53547  -2655809.14845  22454118.2734                   22454116.5864
 -51333446.30547 -39959399.41045  21707124.0554                   21707120.6884
 11  8 27  1 54 30.0000000  0  8G12G26G10G15G05G25G29G02
 -34487978.21547 -26833419.99645  21618896.1884                   21618895.0234
   4432048.63346   4788526.69543  23327721.3524                   23327722.3164
 -33619780.32046 -24822856.88743  23899347.1644                   23899348.2074
  15417519.61346  12153817.41043  24244234.3284                   24244236.3134
 -36110282.46948 -28097767.43746  20439202.7894                   20439200.9224
 -18905892.17248 -14692238.84846  21617974.5394                   21617976.2584
  -3609216.40647  -2778881.47345  22424062.3054                   22424061.3364
 -51372179.30147 -39989580.96145  21699753.1804                   21699749.9454
 11  8 27  1 55  0.0000000  0  8G12G26G10G15G05G25G29G02
 -34497612.91047 -26840927.55945  21617062.9614                   21617061.9414
   4262701.44146   4656567.94143  23295494.9614                   23295495.8954
 -33589653.83646 -24799381.77043  23905080.0234                   23905081.1684
  15245834.80346  12020037.34443  24211563.0634                   24211564.9384
 -36152690.49248 -28130812.63746  20431132.6724                   20431130.8324
 -18974194.13748 -14745461.14846  21604977.3054                   21604978.9534
  -3767052.32047  -2901870.45745  22394026.7664                   22394026.1174
 -51410820.31247 -40019690.85945  21692400.3204                   21692397.4384
 11  8 27  1 55 30.0000000  0  8G12G26G10G15G05G25G29G02
 -34506845.25447 -26848121.60545  21615306.2894                   21615305.2344
   4093488.89546   4524714.10543  23263294.9454                   23263295.8404
 -33559407.99246 -24775813.67243  23910835.7814                   23910836.5164
  15074076.62146  11886200.13343  24178877.6724                   24178880.1884
 -36194604.05547 -28163472.54346  20423156.7344                   20423154.4924
 -19041922.68748 -14798236.63746  21592089.2664                   21592090.5554
  -3924780.24247  -3024775.28945  22364012.2734                   22364011.5554
 -51449370.21547 -40049729.75045  21685064.2274                   21685061.4344
 11  8 27  1 56  0.0000000  0  8G12G26G10G15G05G25G29G02
 -34515675.76647 -26855002.53945  21613625.5554                   21613624.7274
   3924416.75446   4392969.68444  23231121.8054                   23231122.5634
 -33529043.16046 -24752152.80943  23916614.4534                   23916614.7074
  14902250.19146  11752309.69543  24146180.3834                   24146182.2234
 -36236022.64548 -28195746.76646  20415274.9844                   20415273.1844
 -19109076.49648 -14850564.26646  21579310.2114                   21579311.4224
  -4082395.91847  -3147592.64145  22334019.2734                   22334018.4184
 -51487826.91847 -40079696.02045  21677746.3204                   21677742.9224
 11  8 27  1 56 30.0000000  0  8G12G26G10G15G05G25G29G02
 -34524106.20347 -26861571.73045  21612021.7194                   21612020.6134
   3755489.44546   4261338.08644  23198975.7274                   23198976.6294
 -33498561.07846 -24728400.58643  23922415.5314                   23922415.2114
  14730358.96946  11618368.76643  24113469.5864                   24113472.2154
 -36276947.09448 -28227635.93046  20407487.5784                   20407485.4344
 -19175655.53148 -14902444.03946  21566640.7114                   21566641.9384
  -4239896.28147  -3270320.13345  22304047.4924                   22304047.2194
 -51526189.73447 -40109589.14145  21670446.1954                   21670443.0394
 11  8 27  1 57  0.0000000  0  8G12G26G10G15G05G25G29G02
 -34532140.25047 -26867832.03945  21610492.8364                   21610491.7234
   3586709.48847   4129821.34044  23166858.0634                   23166858.8914
 -33467965.12946 -24704559.65643  23928235.8444                   23928237.3754
  14558404.48446  11484378.49643  24080748.1644                   24080749.8754
 -36317380.75448 -28259142.66446  20399793.4924                   20399791.1954
 -19241661.77748 -14953877.48046  21554080.4454                   21554081.1334
  -4397280.55947  -3392957.18445  22274097.8134                   22274097.8834
 -51564459.30547 -40139409.59845  21663163.7974                   21663160.6764
 11  8 27  1 57 30.0000000  0  8G12G26G10G15G05G25G29G02
 -34539781.83647 -26873786.53945  21609039.0554                   21609037.8594
   3418079.57047   3998421.49644  23134769.0394                   23134769.2034
 -33437258.96946 -24680632.83243  23934080.2344                   23934081.3324
  14386388.54346  11350340.32043  24048014.1884                   24048015.2114
 -36357326.56648 -28290269.25846  20392191.6484                   20392189.5864
 -19307097.16448 -15004866.09446  21541628.2974                   21541629.1414
  -4554547.85547  -3515503.07045  22244171.0234                   22244170.4844
 -51602636.99247 -40169158.44945  21655898.4224                   21655895.6484
 11  8 27  1 58  0.0000000  0  8G12G26G10G15G05G25G29G02
 -34547028.88747 -26879433.59445  21607659.3524                   21607658.4384
   3249607.88347   3867144.94943  23102709.3834                   23102709.9454
 -33406440.39146 -24656618.42243  23939945.8284                   23939945.6884
  14214318.55146  11216260.10243  24015270.3134                   24015272.6604
 -36396781.74648 -28321013.54346  20384683.3054                   20384681.6724
 -19371958.00848 -15055407.01646  21529285.5634                   21529287.0554
  -4711691.34047  -3637952.48445  22214267.6174                   22214266.8484
 -51640718.14547 -40198832.07845  21648652.0474                   21648648.7664
 11  8 27  1 58 30.0000000  0  8G12G26G10G15G05G25G29G02
 -34553888.86347 -26884779.04345  21606354.1024                   21606352.9304
   3081292.92647   3735990.53944  23070680.1174                   23070681.2894
 -33375517.33646 -24632522.59843  23945830.0084                   23945830.1024
  14042191.80946  11082135.58243  23982515.1804                   23982517.5744
 -36435753.37148 -28351381.03146  20377267.3834                   20377265.3634
 -19436250.23848 -15105504.87146  21517051.2424                   21517052.4494
  -4868713.98447  -3760307.73045  22184387.9614                   22184386.0274
 -51678707.41447 -40228434.10545  21641422.6644                   21641419.8204
 11  8 27  1 59  0.0000000  0  8G12G26G10G15G05G25G29G02
 -32984943.55547 -25662224.27345  21904913.9844                   21904913.3054
   4488565.12546   4832566.36744  23338474.7734                   23338475.8014
 -31769072.44946 -23380747.41043  24251526.0864                   24251526.4734
  15445438.04747  12175574.45743  24249543.9454                   24249546.0004
 -34898821.05148 -27153771.42246  20669736.0864                   20669734.4614
 -17924551.83648 -13927558.07846  21804717.8594                   21804719.2384
  -3450187.63747  -2654962.47745  22454324.2344                   22454323.0594
 -50141182.77347 -39030362.95745  21934004.1564                   21934001.0514
 11  8 27  1 59 30.0000000  0  8G12G26G10G15G05G25G29G02
 -32991032.89547 -25666969.23045  21903755.6954                   21903754.9344
   4320580.37547   4701669.23044  23306508.6254                   23306509.2664
 -31737942.18746 -23356490.12543  24257449.7424                   24257450.4224
  15273212.10546  12041372.64144  24216770.8444                   24216772.5004
 -34936825.38348 -27183385.17646  20662504.4774                   20662502.0744
 -17987704.33248 -13976767.82446  21792700.2344                   21792701.7074
  -3606956.99247  -2777120.39145  22424491.8834                   22424491.0704
 -50178982.98047 -39059817.66845  21926810.7504                   21926807.8714
 11  8 27  2  0  0.0000000  0  8G12G26G10G15G05G25G29G02
 -32996741.41047 -25671417.44545  21902669.3204                   21902668.4184
   4152765.46946   4570904.48443  23274574.2344                   23274575.0204
 -31706712.62946 -23332155.43443  24263392.3754                   24263393.5474
  15100940.24246  11907135.07443  24183988.5944                   24183989.8874
 -34974349.84048 -27212625.00046  20655363.1024                   20655361.4184
 -18050289.16048 -14025535.23046  21780790.6804                   21780791.8094
  -3763597.14147  -2899177.62545  22394683.9304                   22394682.8324
 -50216689.59447 -39089199.43745  21919636.2194                   21919632.8324
 11  8 27  2  0 30.0000000  0  8G12G26G10G15G05G25G29G02
 -33002073.36347 -25675572.24245  21901654.7344                   21901654.0084
   3985122.68447   4440273.82044  23242673.1644                   23242673.7974
 -31675387.58246 -23307746.34042  24269353.5394                   24269354.5434
  14928623.37946  11772862.43843  24151197.4844                   24151199.1254
 -35011397.82848 -27241493.55546  20648313.6174                   20648311.9384
 -18112308.79348 -14073862.22746  21768989.0944                   21768989.9144
  -3920107.66047  -3021133.82845  22364901.4534                   22364900.0164
 -50254303.53147 -39118508.99645  21912478.0164                   21912475.1374
 11  8 27  2  1  0.0000000  0  8G12G26G10G15G05G25G29G02
 -33007027.74247 -25679432.80945  21900712.4534                   21900711.0664
   3817659.63747   4309783.22743  23210805.6414                   23210806.1054
 -31643965.36746 -23283261.54742  24275332.3524                   24275333.7194
  14756268.58246  11638560.24643  24118399.1334                   24118401.0474
 -35047967.32448 -27269989.25446  20641354.1564                   20641352.5124
 -18173760.18048 -14121746.41846  21757294.9384                   21757296.2154
  -4076481.99647  -3142983.90245  22335144.2584                   22335142.9964
 -50291820.80147 -39147743.23445  21905339.0234                   21905335.3794
 11  8 27  2  1 30.0000000  0  8G12G26G10G15G05G25G29G02
 -33011612.06647 -25683005.03545  21899839.7974                   21899838.9104
   3650374.87947   4179431.58644  23178972.0164                   23178972.5204
 -31612453.64845 -23258707.02342  24281329.6724                   24281330.9774
  14583872.94546  11504226.23043  24085593.2034                   24085594.5634
 -35084065.48448 -27298117.68046  20634485.4774                   20634483.2814
 -18234649.69148 -14169192.80146  21745708.2274                   21745709.8674
  -4232723.91847  -3264730.79345  22305411.5554                   22305411.2664
 -50329246.64547 -39176906.22745  21898217.2114                   21898213.5164
 11  8 27  2  2  0.0000000  0  8G12G26G10G15G05G25G29G02
 -33015828.05547 -25686290.24245  21899037.8204                   21899036.3014
   3483273.21947   4049222.57844  23147174.1644                   23147174.3054
 -31580853.78945 -23234083.75042  24287343.1954                   24287344.6844
  14411440.83646  11369863.79343  24052780.2194                   24052781.7894
 -35119693.22748 -27325879.54746  20627704.8594                   20627703.7384
 -18294977.22348 -14216201.27046  21734228.2734                   21734229.9574
  -4388829.48447  -3386371.44145  22275705.8754                   22275705.1994
 -50366579.61747 -39205996.84845  21891112.9224                   21891109.3954
 11  8 27  2  2 30.0000000  0  8G12G26G10G15G05G25G29G02
 -33019676.74647 -25689289.25445  21898305.1414                   21898304.5474
   3316360.68847   3919160.97744  23115411.5784                   23115412.1094
 -31549165.81246 -23209391.94542  24293372.6644                   24293374.6134
  14238977.32846  11235476.85944  24019961.2504                   24019963.4224
 -35154850.05148 -27353274.46546  20621015.2584                   20621013.6414
 -18354741.53948 -14262770.87146  21722855.8134                   21722856.4384
  -4544794.46947  -3507902.53945  22246027.1644                   22246025.9654
 -50403817.29347 -39235013.22745  21884026.5944                   21884023.3714
 11  8 27  2  3  0.0000000  0  8G12G26G10G15G05G25G29G02
 -33023162.66047 -25692005.56645  21897641.8444                   21897640.6134
   3149638.60247   3789247.78944  23083684.8834                   23083686.4144
 -31517394.41446 -23184635.01242  24299419.6484                   24299420.6804
  14066482.84046  11101065.77343  23987136.3134                   23987138.0864
 -35189540.46548 -27380305.95346  20614413.8204                   20614412.3674
 -18413946.23448 -14308904.39546  21711589.3204                   21711590.3754
  -4700619.13347  -3629324.28945  22216374.7194                   22216373.6684
 -50440961.96947 -39263957.12545  21876958.5394                   21876955.1844
 11  8 27  2  3 30.0000000  0  8G12G26G10G15G05G25G29G02
 -33026287.82047 -25694440.78545  21897047.4534                   21897046.2424
   2983111.78947   3659486.74244  23051996.6094                   23051997.0514
 -31485541.06246 -23159814.27043  24305480.0554                   24305481.3014
  13893961.43446  10966633.73443  23954306.2194                   23954308.0274
 -35223765.49647 -27406974.80546  20607901.0164                   20607899.3134
 -18472591.32048 -14354601.84446  21700429.5084                   21700430.7704
  -4856300.10547  -3750634.08645  22186748.9304                   22186748.5904
 -50478012.44947 -39292827.63345  21869907.4694                   21869904.6644
 11  8 27  2  4  0.0000000  0  8G12G26G10G15G05G25G29G02
 -33029059.11347 -25696600.26245  21896519.9304                   21896518.4574
   2816779.72747   3529877.46144  23020344.5704                   23020345.1454
 -31453612.35246 -23134934.80942  24311555.6954                   24311557.1174
  13721411.52046  10832179.44943  23921471.1804                   23921473.0864
 -35257531.32048 -27433285.83246  20601475.6174                   20601474.1914
 -18530682.28548 -14399867.52046  21689375.0164                   21689376.1994
  -5011839.51647  -3871833.57045  22157150.8984                   22157150.2664
 -50514973.00847 -39321628.07445  21862874.0784                   21862870.8794
 11  8 27  2  4 30.0000000  0  8G12G26G10G15G05G25G29G02
 -33031480.15247 -25698486.79345  21896059.3754                   21896057.8954
   2650644.98847   3400421.93444  22988729.4224                   22988730.2704
 -31421611.72746 -23109999.30943  24317645.9534                   24317647.2234
  13548834.98846  10697704.42243  23888630.7274                   23888632.4494
 -35290840.90648 -27459241.34446  20595136.8364                   20595135.1054
 -18588221.43448 -14444703.20346  21678425.8204                   21678426.8794
  -5167236.30947  -3992921.92645  22127580.1024                   22127579.2544
 -50551844.12947 -39350358.81645  21855858.1484                   21855855.0314
 11  8 27  2  5  0.0000000  0  8G12G26G10G15G05G25G29G02
 -33033549.75847 -25700099.49245  21895665.6564                   21895664.4384
   2484715.62947   3271126.45344  22957154.4454                   22957154.9614
 -31389537.16846 -23085006.21543  24323750.3674                   24323750.4304
  13376239.03946  10563214.28943  23855786.6414                   23855787.9694
 -35323692.25047 -27484839.78146  20588885.6564                   20588884.2854
 -18645205.62148 -14489106.45346  21667582.0784                   21667583.5434
  -5322483.70347  -4113893.87545  22098037.6564                   22098036.6214
 -50588621.74247 -39379016.70345  21848859.8984                   21848856.0904
 11  8 27  2  5 30.0000000  0  8G12G26G10G15G05G25G29G02
 -33035273.67647 -25701442.82445  21895337.3134                   21895336.1484
   2318992.25047   3141991.47344  22925617.8594                   22925618.6334
 -31357394.01246 -23059959.59843  24329866.3054                   24329867.1564
  13203623.42646  10428708.78543  23822939.5004                   23822939.5394
 -35356090.35548 -27510085.05946  20582720.6644                   20582718.8914
 -18701639.12548 -14533080.59846  21656843.2344                   21656844.1414
  -5477582.75447  -4234750.23045  22068523.4224                   22068521.7894
 -50625308.67247 -39407603.92645  21841878.2734                   21841874.7624
 11  8 27  2  6  0.0000000  0  8G12G26G10G15G05G25G29G02
 -33036652.09447 -25702516.93745  21895074.7894                   21895073.8674
   2153481.38747   3013022.07444  22894122.4534                   22894122.5044
 -31325182.39146 -23034859.69543  24335995.7504                   24335997.1374
  13030993.59846  10294192.21943  23790088.9774                   23790089.2854
 -35388034.83648 -27534976.84846  20576641.3674                   20576640.2034
 -18757520.61348 -14576624.60546  21646209.2034                   21646210.4414
  -5632528.63347  -4355487.25045  22039037.8364                   22039036.3984
 -50661901.97747 -39436118.19545  21834914.5784                   21834911.1524
 11  8 27  2  6 30.0000000  0  8G12G26G10G15G05G25G29G02
 -33037690.83647 -25703326.35945  21894877.5704                   21894876.0664
   1988183.60247   2884218.73444  22862666.7894                   22862667.5234
 -31292907.32846 -23009710.36743  24342138.0164                   24342138.7894
  12858349.62546  10159664.60243  23757235.7974                   23757236.4454
 -35419530.54748 -27559518.94946  20570648.2424                   20570646.4064
 -18812854.47348 -14619741.88346  21635679.2274                   21635680.7114
  -5787322.19547  -4476105.59445  22009581.6804                   22009580.6994
 -50698404.60247 -39464561.80945  21827967.7974                   21827964.8404
 11  8 27  2  7  0.0000000  0  8G12G26G10G15G05G25G29G02
 -33038390.01647 -25703871.19545  21894744.4224                   21894743.1024
   1823105.21547   2755586.30144  22831253.5554                   22831253.7034
 -31260568.34046 -22984511.18043  24348292.2734                   24348293.1334
  12685696.89146  10025130.18444  23724380.0554                   23724381.5864
 -35450577.02748 -27583711.00446  20564740.2974                   20564738.3014
 -18867639.35248 -14662431.39146  21625253.9224                   21625255.0354
  -5941958.42647  -4596601.32045  21980154.8364                   21980153.8674
 -50734813.44147 -39492932.35245  21821039.7734                   21821036.8984
 11  8 27  2  7 30.0000000  0  8G12G26G10G15G05G25G29G02
 -33038752.89148 -25704153.97345  21894675.8054                   21894674.2424
   1658249.96147   2627127.75844  22799883.0164                   22799882.7114
 -31228167.82446 -22959264.07043  24354457.7584                   24354458.2194
  12513038.16846   9890591.05143  23691524.6334                   23691525.8444
 -35481176.55948 -27607554.79346  20558917.0234                   20558915.7584
 -18921876.77748 -14704694.30146  21614933.2974                   21614933.9694
  -6096435.46547  -4716973.00845  21950759.3284                   21950757.8324
 -50771128.86747 -39521230.09445  21814129.0634                   21814126.2344
 11  8 27  2  8  0.0000000  0  8G12G26G10G15G05G25G29G02
 -33038784.71147 -25704178.78145  21894669.7664                   21894667.7234
   1493618.87947   2498843.89144  22768554.1484                   22768554.9264
 -31195710.70345 -22933972.85242  24360633.7734                   24360634.9104
  12340373.91846   9756047.65243  23658666.5394                   23658668.2344
 -35511333.78548 -27631053.92646  20553178.7584                   20553177.3164
 -18975570.51648 -14746533.56646  21604715.6334                   21604717.2234
  -6250753.43447  -4837220.74645  21921393.5474                   21921392.4024
 -50807352.85947 -39549456.61345  21807236.4144                   21807233.2384
 11  8 27  2  8 30.0000000  0  8G12G26G10G15G05G25G29G02
 -33038484.68447 -25703945.01645  21894726.3054                   21894725.1094
   1329219.52746   2370740.60244  22737269.9844                   22737270.8054
 -31163195.34845 -22908636.30942  24366821.1644                   24366822.7544
  12167710.52346   9621504.87943  23625809.8524                   23625811.6994
 -35541047.23848 -27654207.25846  20547524.5944                   20547522.7384
 -19028718.43448 -14787947.52746  21594601.7504                   21594603.2544
  -6404906.25447  -4957339.80545  21892059.2734                   21892058.1094
 -50843481.68447 -39577608.94545  21800361.3284                   21800357.9964
 11  8 27  2  9  0.0000000  0  8G12G26G10G15G05G25G29G02
 -33037859.00047 -25703457.49245  21894845.1334                   21894844.3444
   1165052.20346   2242818.12144  22706030.2814                   22706030.2584
 -31130627.95346 -22883259.11342  24373019.0784                   24373019.6414
  11995047.48446   9486962.45343  23592954.1644                   23592954.9184
 -35570322.56648 -27677019.19546  20541953.2034                   20541951.6094
 -19081325.52748 -14828940.06246  21584590.6954                   21584592.2154
  -6558895.53547  -5077331.44945  21862756.1414                   21862754.4024
 -50879519.02747 -39605690.01245  21793503.3204                   21793500.0274
 11  8 27  2  9 30.0000000  0  8G12G26G10G15G05G25G29G02
 -31461491.27747 -24475119.03545  22194818.3834                   22194817.3834
   2576544.78947   3342682.56644  22974628.1644                   22974628.5554
 -29522592.67645 -21630244.66442  24679018.1644                   24679019.3164
  13397812.74246  10580026.44944  23859890.9224                   23859892.1484
 -34023742.06248 -26471891.52046  20836257.8134                   20836255.8524
 -17557972.28148 -13641911.55145  21874475.4144                   21874476.6994
  -5137294.68047  -3969590.49645  22133277.7814                   22133276.5004
 -49340043.78947 -38406098.94145  22086455.8204                   22086452.8404
 11  8 27  2 10  0.0000000  0  8G12G26G10G15G05G25G29G02
 -31460223.72347 -24474131.33245  22195059.6954                   22195058.3594
   2412851.52346   3215129.46944  22943477.7504                   22943478.5124
 -29489928.98445 -21604792.47742  24685233.2894                   24685235.5904
  13225158.65246  10445490.97744  23827035.9384                   23827037.1294
 -34052148.52048 -26494026.41846  20830852.0634                   20830850.5164
 -17609502.73848 -13682065.15246  21864669.2344                   21864670.3014
  -5290950.69947  -4089322.42645  22104037.3204                   22104036.4924
 -49375897.30547 -38434036.76245  22079632.8674                   22079630.3674
 11  8 27  2 10 30.0000000  0  8G12G26G10G15G05G25G29G02
 -31458638.41047 -24472896.04345  22195361.3834                   22195359.7624
   2249402.38746   3087766.60544  22912374.7584                   22912374.8754
 -29457218.95346 -21579304.19142  24691457.9694                   24691460.0434
  13052514.77046  10310963.45343  23794182.5704                   23794183.7074
 -34080122.21548 -26515824.09446  20825528.7504                   20825527.1134
 -17660495.61748 -13721799.85245  21854966.1724                   21854966.9924
  -5444434.98447  -4208920.54745  22074830.8054                   22074829.6414
 -49411657.29747 -38461901.71545  22072828.4924                   22072825.3634
 11  8 27  2 11  0.0000000  0  7G12G26G15G05G25G29G02
 -31456738.61347 -24471415.69545  22195722.6094                   22195721.6414
   2086200.61347   2960596.49644  22881318.0704                   22881318.6724
  12879883.61746  10176445.89144  23761331.4144                   23761332.7194
 -34107665.68748 -26537286.53546  20820288.2034                   20820286.1414
 -17710952.90248 -13761117.22346  21845364.1174                   21845365.4654
  -5597745.69547  -4328383.41445  22045656.2424                   22045655.0784
 -49447324.05547 -38489694.01245  22066041.6804                   22066038.3714
 11  8 27  2 11 30.0000000  0  7G12G26G15G05G25G29G02
 -31454529.59447 -24469694.39545  22196142.7424                   22196142.1804
   1923247.78946   2833620.35944  22850309.4774                   22850309.3954
  12707265.69146  10041938.64144  23728483.3204                   23728484.4024
 -34134783.75048 -26558417.48846  20815127.3754                   20815125.4844
 -17760878.53148 -13800020.31245  21835863.8834                   21835865.1134
  -5750883.30947  -4447711.39145  22016515.4694                   22016514.1414
 -49482899.55947 -38517415.19945  22059271.3364                   22059268.5354
 11  8 27  2 12  0.0000000  0  7G12G26G15G05G25G29G02
 -31452006.92647 -24467728.69945  22196623.5314                   22196622.2384
   1760554.61747   2706846.56644  22819349.4614                   22819350.2584
  12534671.29346   9907449.68844  23695640.0314                   23695640.2734
 -34161471.63348 -26579213.23046  20810048.7734                   20810046.8874
 -17810266.90248 -13838504.75445  21826465.5704                   21826466.5784
  -5903838.18047  -4566896.96545  21987408.9844                   21987407.2854
 -49518376.46547 -38545059.56245  22052520.7974                   22052517.1374
 11  8 27  2 12 30.0000000  0  7G12G26G15G05G25G29G02
 -31449170.33247 -24465518.36745  22197163.2274                   22197161.7464
   1598128.06347   2580280.50444  22788441.1644                   22788440.9614
  12362106.37146   9772983.71144  23662802.0704                   23662802.7774
 -34187728.03148 -26599672.74646  20805052.3444                   20805050.7034
 -17859116.50847 -13876569.38345  21817169.7114                   21817170.5514
  -6056604.58647  -4685935.67245  21958338.4844                   21958337.1214
 -49553751.48447 -38572624.52345  22045788.6724                   22045785.6954
 11  8 27  2 13  0.0000000  0  8G12G26G21G15G05G25G29G02
 -31446029.46547 -24463070.94945  22197760.8674                   22197759.4654
   1435965.26247   2453919.98844  22757582.9774                   22757582.7274
  21901332.55956  17094193.22753  25214174.2424                   25214174.6294
  12189567.65646   9638538.15644  23629968.0084                   23629969.3054
 -34213561.80148 -26619802.94546  20800136.4694                   20800134.4614
 -17907435.37148 -13914220.44545  21807975.2194                   21807975.9414
  -6209187.19147  -4804831.15645  21929302.8674                   21929301.8324
 -49589030.77347 -38600114.88345  22039075.1334                   22039071.9614
 11  8 27  2 13 30.0000000  0  8G12G26G21G15G05G25G29G02
 -31442587.28147 -24460388.73845  22198415.9304                   22198414.5474
   1274069.94947   2327767.89144  22726774.9614                   22726775.2154
  21769627.83646  16991566.26243  25189112.4064                   25189112.3364
  12017057.70346   9504115.01243  23597140.8364                   23597141.3284
 -34238975.06248 -26639605.47746  20795300.3834                   20795298.8014
 -17955225.14548 -13951459.23445  21798880.8284                   21798881.6844
  -6361583.59847  -4923581.54745  21900303.1094                   21900301.9844
 -49624214.04747 -38627530.41445  22032380.0784                   22032377.2114
 11  8 27  2 14  0.0000000  0  8G12G26G21G15G05G25G29G02
 -31438853.25847 -24457479.10945  22199126.4924                   22199124.6884
   1112439.46547   2201822.15244  22696017.1094                   22696017.4774
  21637927.82446  16888942.99243  25164050.1174                   25164051.0864
  11844573.09846   9369711.61343  23564318.1644                   23564318.0634
 -34263976.39148 -26659087.02046  20790542.5944                   20790540.7664
 -18002494.11748 -13988292.19946  21789885.6174                   21789886.8054
  -6513797.90647  -5042190.03145  21871337.4454                   21871336.0634
 -49659307.55147 -38654876.01245  22025702.4144                   22025699.0204
 11  8 27  2 14 30.0000000  0  8G12G26G21G15G05G25G29G02
 -31434829.31247 -24454343.56645  22199891.9064                   22199890.8594
    951078.07847   2076086.10544  22665311.2424                   22665311.2814
  21506233.17246  16786323.93843  25138989.3754                   25138990.7424
  11672117.94946   9235331.16043  23531500.5394                   23531501.3834
 -34288567.80548 -26678249.15646  20785863.5394                   20785861.4104
 -18049243.06648 -14024719.95345  21780989.6094                   21780990.5634
  -6665827.14147  -5160654.30945  21842407.3984                   21842405.8204
 -49694310.25047 -38682150.82845  22019041.2424                   22019038.1134
 11  8 27  2 15  0.0000000  0  8G12G26G21G15G05G25G29G02
 -31430518.08247 -24450984.17645  22200712.5474                   22200711.0354
    789990.18047   1950563.15244  22634657.3444                   22634656.8794
  21374543.65246  16683708.90643  25113929.3364                   25113930.1134
  11499695.20346   9100975.96944  23498689.7894                   23498690.1604
 -34312750.87148 -26697093.09446  20781261.3834                   20781259.4104
 -18095473.31248 -14060743.52346  21772192.6334                   21772193.7114
  -6817668.66447  -5278972.29345  21813512.2114                   21813511.3714
 -49729221.62147 -38709354.49245  22012398.5784                   22012394.9064
 11  8 27  2 15 30.0000000  0  8G12G26G21G15G05G25G29G02
 -31425918.64147 -24447400.20745  22201587.3754                   22201586.2974
    629183.23447   1825259.12144  22604056.5004                   22604056.4924
  21242862.44146  16581100.32442  25088871.8284                   25088872.0394
  11327311.81647   8966651.42244  23465886.8054                   23465885.8674
 -34336524.48448 -26715617.97746  20776737.1644                   20776735.4454
 -18141182.82848 -14096361.33246  21763494.3054                   21763495.4804
  -6969316.02047  -5397138.98845  21784654.8984                   21784653.7664
 -49764037.46547 -38736483.71945  22005772.4844                   22005769.6334
 11  8 27  2 16  0.0000000  0  8G12G26G21G15G05G25G29G02
 -31421041.53947 -24443599.87545  22202515.5234                   22202514.6334
    468653.32047   1700170.98444  22573508.4774                   22573508.3484
  21111181.32046  16478491.84442  25063812.7734                   25063813.7854
  11154963.38747   8832354.09444  23433089.6804                   23433089.3324
 -34359897.59048 -26733830.77346  20772289.4924                   20772287.7584
 -18186380.84048 -14131580.55945  21754893.6564                   21754894.4654
  -7120774.60547  -5515158.58645  21755833.2584                   21755832.6134
 -49798765.11747 -38763544.22345  21999164.6024                   21999161.8204
 11  8 27  2 16 30.0000000  0  8G12G26G21G15G05G25G29G02
 -31415884.88747 -24439581.71545  22203496.8984                   22203496.0554
    308409.18847   1575305.49644  22543015.1644                   22543014.6094
  20979504.87546  16375887.00843  25038755.0234                   25038757.0084
  10982657.55947   8698089.98443  23400300.4384                   23400300.8134
 -34382868.12948 -26751729.89546  20767917.9064                   20767916.6454
 -18231064.31647 -14166398.85945  21746390.1484                   21746391.4064
  -7272037.15247  -5633025.43745  21727049.2424                   21727047.8954
 -49833399.43047 -38790531.98445  21992573.6254                   21992570.5004
 11  8 27  2 17  0.0000000  0  8G12G26G21G15G05G25G29G02
 -31410449.98047 -24435346.73045  22204531.2734                   22204529.9494
    148456.25847   1450666.93844  22512576.8594                   22512577.2384
  20847834.26246  16273286.75842  25013699.0784                   25013700.9414
  10810399.30946   8563862.95344  23367519.9064                   23367520.7304
 -34405436.70348 -26769315.78546  20763623.8674                   20763621.9614
 -18275233.26647 -14200816.23045  21737985.1174                   21737986.8404
  -7423099.63747  -5750736.38745  21698302.5084                   21698301.5744
 -49867938.31247 -38817445.40645  21986000.8134                   21985998.1174
 11  8 27  2 17 30.0000000  0  8G12G26G21G15G05G25G29G02
 -31404742.41447 -24430899.28545  22205617.5084                   22205616.7114
    -11204.40647   1326256.10244  22482194.2114                   22482194.2464
  20716166.07446  16170688.36342  24988643.3364                   24988645.3444
  10638188.94146   8429673.23444  23334749.8674                   23334749.7114
 -34427608.02048 -26786592.13746  20759404.5554                   20759402.9104
 -18318892.17247 -14234836.16845  21729677.0704                   21729678.6334
  -7573962.46547  -5868291.76245  21669594.4224                   21669593.0554
 -49902384.13347 -38844286.30545  21979446.0784                   21979443.5824
 11  8 27  2 18  0.0000000  0  8G12G26G21G15G05G25G29G02
 -31398762.20747 -24426239.39845  22206755.4224                   22206754.3674
   -170566.30547   1202078.08644  22451869.2194                   22451868.8874
  20584502.69146  16068093.71543  24963588.5944                   24963590.3594
  10466032.03946   8295525.17644  23301989.1174                   23301989.4184
 -34449381.58648 -26803558.53946  20755261.2584                   20755259.2234
 -18362040.04348 -14268457.89545  21721466.1564                   21721467.5274
  -7724620.38747  -5985687.48445  21640925.6484                   21640923.2274
 -49936733.69547 -38871052.18745  21972910.0944                   21972906.6254
 11  8 27  2 18 30.0000000  0  8G12G26G21G15G05G25G29G02
 -31392513.52347 -24421370.29345  22207944.7504                   22207943.5044
   -329626.77047   1078134.92644  22421601.1094                   22421600.4304
  20452842.39146  15965501.44942  24938534.5314                   24938536.1214
  10293930.73446   8161420.42244  23269239.6564                   23269239.8984
 -34470761.07448 -26820217.88346  20751193.1564                   20751191.3484
 -18404679.81248 -14301683.69145  21713352.8054                   21713353.6334
  -7875072.16047  -6102922.55945  21612294.8054                   21612293.5944
 -49970987.95747 -38897743.81645  21966391.1564                   21966388.4064
 11  8 27  2 19  0.0000000  0  8G12G26G21G15G05G25G29G02
 -31386000.21947 -24416294.99645  22209184.3984                   22209182.6884
   -488382.71547    954429.09444  22391390.7194                   22391390.6604
  20321184.26646  15862910.79742  24913480.7344                   24913481.4734
  10121887.50047   8027360.93044  23236500.8524                   23236500.6994
 -34491749.31248 -26836572.35246  20747198.7034                   20747197.2304
 -18446813.97748 -14334515.51246  21705334.2894                   21705335.7624
  -8025316.18047  -6219995.77045  21583704.7274                   21583703.2114
 -50005147.05947 -38924361.28545  21959890.8284                   21959888.3094
 11  8 27  2 19 30.0000000  0  8G12G26G21G15G05G25G29G02
 -31379222.60247 -24411013.73445  22210473.6724                   22210472.6054
   -646828.08247    830965.25844  22361239.0164                   22361239.3364
  20189530.15246  15760323.41442  24888427.4614                   24888428.8244
   9949907.76246   7893350.90644  23203773.3364                   23203773.6844
 -34512345.94147 -26852621.67246  20743279.5004                   20743277.7814
 -18488442.03148 -14366952.96145  21697413.2424                   21697413.8524
  -8175347.53147  -6336903.25445  21555154.4454                   21555153.4184
 -50039208.32447 -38950902.52745  21953409.5704                   21953406.4694
 11  8 27  2 20  0.0000000  0  8G12G26G21G15G05G25G29G02
 -29796771.03547 -23177934.60545  22511604.2194                   22511603.1214
    770459.15647   1935345.02344  22630939.7344   22630939.6994   21633296.69146
  16885336.39542                  25163167.0554                   25163167.9104
  11353413.43046   8986991.85244  23470851.8834                   23470851.9804
 -32957139.95347 -25640772.84846  21039225.8364                   21039223.4654
 -16954151.55948 -13171401.95745  21989378.8834                   21989380.2424
  -6749746.03548  -5226044.90645  21826437.4534                   21826436.5664
 -48497757.62547 -37749772.10245  22246737.8204                   22246734.6524
 11  8 27  2 20 30.0000000  0  8G12G26G21G15G05G25G29G02
 -29789483.00847 -23172255.63745  22512990.5704                   22512990.1954
    612637.17647   1812366.93444  22600907.3524   22600906.4734   21501639.72746
  16782746.65642                  25138112.9384                   25138114.3164
  11181561.04746   8853081.04744  23438149.6644                   23438149.3324
 -32976969.92247 -25656224.77046  21035451.9534                   21035450.4344
 -16994782.16848 -13203062.16845  21981647.1724                   21981648.2424
  -6899353.85247  -5342622.37945  21797968.1564                   21797966.9264
 -48531631.61747 -37776167.41045  22240291.7734                   22240288.8014
 11  8 27  2 21  0.0000000  0  8G12G26G21G15G05G25G29G02
 -29781947.01247 -23166383.43445  22514424.9844                   22514424.1094
    455129.50847   1689633.76244  22570934.3754   22570934.2774   21369977.55146
  16680152.87942                  25113058.6254                   25113059.7504
  11009773.78547   8719220.99644  23405458.9844                   23405459.4104
 -32996422.80148 -25671382.85246  21031750.0474                   21031748.5394
 -17034919.83648 -13234338.28545  21974009.0554                   21974010.2504
  -7048749.41048  -5459034.45345  21769538.8524                   21769537.3134
 -48565413.97747 -37802491.33245  22233863.1954                   22233860.4494
 11  8 27  2 21 30.0000000  0  8G12G26G21G15G05G25G29G02
 -29774159.45747 -23160315.20745  22515906.6564                   22515905.8484
    297946.48047   1567153.55544  22541023.5784   22541022.8014   21238316.05546
  16577559.60242                  25088004.3594                   25088004.7154
  10838061.34447   8585419.25844  23372783.2584                   23372783.6804
 -33015494.67247 -25686244.05146  21028120.8674                   21028119.2384
 -17074560.14148 -13265226.83245  21966466.2664                   21966466.4414
  -7197923.64147  -5575274.06645  21741151.5704                   21741150.5084
 -48599098.02747 -37828738.63745  22227453.4844                   22227450.1214
 11  8 27  2 22  0.0000000  0  8G12G26G21G15G05G25G29G02
 -29766122.14547 -23154052.36745  22517436.4224                   22517435.5744
    141093.21947   1444930.30944  22511175.6094   22511174.2234   21106656.27345
  16474967.70742                  25062949.8444                   25062950.2304
  10666427.97747   8451679.11744  23340122.2974                   23340122.8054
 -33034186.48047 -25700809.09846  21024563.9454                   21024561.7854
 -17113703.51648 -13295728.15645  21959017.0474                   21959018.0164
  -7346873.00447  -5691338.47745  21712807.4844                   21712806.2074
 -48632682.15247 -37854908.08645  22221062.3134                   22221059.5784
 11  8 27  2 22 30.0000000  0  8G12G26G21G15G05G25G29G02
 -29757842.49247 -23147600.70745  22519011.7894                   22519010.8874
    -15430.75447   1322963.68444  22481389.1564   22481389.5554   20974993.74646
  16372373.69942                  25037895.8054                   25037896.6724
  10494872.71947   8317999.83644  23307475.9924                   23307476.1564
 -33052504.41047 -25715082.80546  21021078.1884                   21021076.3244
 -17152356.13748 -13325847.07445  21951662.0164                   21951662.8404
  -7495599.14147  -5807228.93745  21684506.3914                   21684504.8754
 -48666170.15247 -37881002.62945  22214689.7584                   22214686.9494
 11  8 27  2 23  0.0000000  0  8G12G26G21G15G05G25G29G02
 -29749324.34047 -23140963.18445  22520632.9454                   22520632.1294
   -171623.35247   1201255.25444  22451667.0474   22451666.8164   20843326.62946
  16269776.06342                  25012839.8524                   25012840.9884
  10323397.68447   8184383.07044  23274845.6564                   23274845.3754
 -33070452.13748 -25729068.03946  21017662.6334                   21017660.9694
 -17190521.51648 -13355586.33245  21944398.7584                   21944400.6564
  -7644100.63348  -5922944.35945  21656247.4384                   21656245.7894
 -48699562.91047 -37907022.96145  22208335.5944                   22208332.1454
 11  8 27  2 23 30.0000000  0  8G12G26G21G15G05G25G29G02
 -29740570.10547 -23134141.71945  22522299.0944                   22522297.9024
   -327479.94547   1079808.62544  22422008.6644   22422007.9414   20711655.18046
  16167175.07843                  24987784.0004                   24987783.8404
  10152006.32847   8050831.50044  23242231.0864                   23242230.6524
 -33088031.48448 -25742766.22746  21014317.7894                   21014316.0124
 -17228200.93748 -13384946.93046  21937228.6884                   21937230.3754
  -7792375.08647  -6038482.87146  21628031.3444                   21628030.1254
 -48732859.49247 -37932968.34045  22201999.4454                   22201996.1054
 11  8 27  2 24  0.0000000  0  8G12G26G21G15G05G25G29G02
 -29731581.42247 -23127137.55145  22524009.3674                   22524008.4534
   -482995.47747    958627.79744  22392414.9844   22392413.8674   20579979.94546
  16064571.10543                  24962726.3204                   24962726.8014
   9980703.13346   7917348.63344  23209632.8364                   23209632.4654
 -33105243.48048 -25756178.16846  21011042.2194                   21011040.2974
 -17265395.00048 -13413929.31245  21930151.1094                   21930152.3054
  -7940418.28947  -6153841.18446  21599859.7664                   21599858.1604
 -48766057.96947 -37958837.28545  22195681.5004                   22195678.4064
 11  8 27  2 24 30.0000000  0  8G12G26G21G15G05G25G29G02
 -29722362.54347 -23119954.02345  22525763.4454                   22525762.9734
   -638167.24647    837714.82044  22362886.5314   22362886.6844   20448299.30546
  15961962.94943                  24937668.2114                   24937668.9104
   9809489.99247   7783935.93044  23177052.2974                   23177051.8094
 -33122091.13348 -25769306.19946  21007836.2274                   21007834.4304
 -17302106.91448 -13442535.99245  21923165.4304                   21923166.2624
  -8088228.75047  -6269018.14146  21571732.2974                   21571731.0044
 -48799159.28547 -37984630.52345  22189382.7504                   22189380.2274
 11  8 27  2 25  0.0000000  0  8G12G26G21G15G05G25G29G02
 -29712915.78947 -23112592.93045  22527561.2734                   22527560.3094
   -792991.13747    717072.91444  22333425.0474   22333424.1804   20316613.64546
  15859350.91442                  24912609.0164                   24912609.9224
   9638370.94547   7650596.52344  23144488.6334                   23144488.5514
 -33138576.98048 -25782152.31246  21004698.7894                   21004697.1454
 -17338338.15647 -13470768.12545  21916270.5634                   21916271.7624
  -8235803.43748  -6384011.37145  21543649.6954                   21543648.3484
 -48832162.00047 -38010346.93745  22183102.9224                   22183100.0394
 11  8 27  2 25 30.0000000  0  8G12G26G21G15G05G25G29G02
 -29703245.89547 -23105057.96545  22529401.7584                   22529400.9304
   -947464.93747    596703.79744  22304029.3134   22304028.5944   20184920.50446
  15756733.04342                  24887548.7424                   24887549.4844
   9467347.31347   7517331.47744  23111944.2894                   23111943.8524
 -33154704.73048 -25794719.38346  21001630.1954                   21001628.3054
 -17374092.53148 -13498628.68745  21909466.5234                   21909467.9224
  -8383141.95748  -6498820.57446  21515612.3754                   21515610.8094
 -48865067.93747 -38035987.93045  22176840.9694                   22176838.0354
 11  8 27  2 26  0.0000000  0  8G12G26G21G15G05G25G29G02
 -29693352.32847 -23097348.69945  22531284.4064                   22531283.3134
  -1101581.89547    476612.73845  22274701.6254   22274700.9804   20053222.89846
  15654111.60543                  24862487.6804                   24862488.0634
   9296425.32047   7384145.64144  23079418.9224                   23079418.6454
 -33170473.32448 -25807006.58246  20998629.7344                   20998627.7464
 -17409368.84048 -13526116.72745  21902753.8054                   21902755.1214
  -8530238.41448  -6613441.14846  21487620.9454                   21487619.5984
 -48897873.21947 -38061550.49645  22170598.5944                   22170595.3714
 11  8 27  2 26 30.0000000  0  8G12G26G21G15G05G25G29G02
 -29683244.70747 -23089472.64145  22533207.8364                   22533206.1844
  -1255344.80147    356797.59445  22245441.6024   22245441.0984   19921513.72346
  15551481.26643                  24837423.5784                   24837424.6374
   9125601.75047   7251036.48844  23046912.1724                   23046911.6294
 -33185891.50448 -25819020.74246  20995695.4384                   20995693.4024
 -17444175.77348 -13553239.02745  21896130.2894                   21896131.5744
  -8677096.86747  -6727876.26645  21459674.4924                   21459672.6294
 -48930583.77047 -38087039.24245  22164374.0784                   22164370.6804
 11  8 27  2 27  0.0000000  0  8G12G26G21G15G05G25G29G02
 -29672921.43747 -23081428.53945  22535171.7734                   22535171.1954
  -1408745.06247    237264.98845  22216250.0164   22216249.4924   19789797.37146
  15448845.30543                  24812358.6484                   24812359.2854
   8954884.48047   7118010.16844  23014425.6804                   23014425.1334
 -33200957.28148 -25830760.30546  20992828.7424                   20992826.8834
 -17478510.80548 -13579993.59845  21889596.5554                   21889597.5944
  -8823710.10548  -6842120.30546  21431774.8284                   21431773.2384
 -48963194.59047 -38112450.28145  22158168.1804                   22158164.9144
 11  8 27  2 27 30.0000000  0  8G12G26G21G15G05G25G29G02
 -29662389.38747 -23073221.75445  22537176.2344                   22537175.3204
  -1561783.08247    118014.65244  22187128.1954   22187127.4734   19658069.41846
  15346200.28943                  24787292.0634                   24787292.8094
   8784272.89547   6985066.19544  22981959.6094                   22981958.7734
 -33215676.50848 -25842229.82846  20990027.6564                   20990025.8134
 -17512379.77748 -13606385.01245  21883151.4454                   21883152.2464
  -8970079.46948  -6956174.30945  21403921.5704                   21403920.2774
 -48995709.24247 -38137786.37945  22151980.8204                   22151977.7344
 11  8 27  2 28  0.0000000  0  8G12G26G21G15G05G25G29G02
 -29651646.73447 -23064850.87545  22539220.4844                   22539219.4774
  -1714450.59847      -946.97744  22158076.2664   22158075.8484   19526333.98046
  15243549.41443                  24762223.5784                   24762224.2154
   8613774.48847   6852210.42244  22949514.4694                   22949513.8484
 -33230047.22348 -25853427.78546  20987293.0474                   20987291.1414
 -17545780.54748 -13632411.59445  21876795.7194                   21876796.6604
  -9116198.43447  -7070033.19146  21376116.0164                   21376114.8554
 -49028122.61747 -38163043.57445  22145812.4924                   22145809.2544
 11  8 27  2 28 30.0000000  0  8G12G26G21G15G05G25G29G02
 -29640698.94547 -23056320.14145  22541303.8674                   22541302.5594
  -1866746.07447   -119618.70344  22129095.2504   22129094.5394   19394588.29746
  15158684.53953                  24737152.8284                   24737152.9734
   8443390.42647   6719443.73044  22917091.0474                   22917090.3594
 -33244073.84848 -25864357.62146  20984623.7664                   20984622.0004
 -17578717.39148 -13658076.67645  21870528.0474                   21870529.2774
  -9262066.19148  -7183696.33245  21348358.0004                   21348357.3834
 -49060436.40247 -38188223.16045  22139663.3914                   22139660.2704
 11  8 27  2 29  0.0000000  0  8G12G26G21G15G05G25G29G02
 -29629548.65647 -23047631.62145  22543425.5164                   22543424.9574
  -2018665.64847   -237997.53145  22100185.8284   22100185.4344   19262832.16446
  15056017.54742                  24712080.7424                   24712080.6604
   8273123.76247   6586768.53544  22884690.6334                   22884689.9534
 -33257758.59448 -25875021.06646  20982019.5394                   20982017.9304
 -17611192.36348 -13683381.85945  21864348.1024                   21864349.8014
  -9407680.31247  -7297161.82446  21320648.7034                   21320647.1954
 -49092649.92647 -38213324.60245  22133533.7664                   22133530.4654
 11  8 27  2 29 30.0000000  0  8G12G26G21G15G05G25G29G02
 -29618200.68047 -23038789.05145  22545585.2424                   22545584.3204
  -2170207.23447   -356081.81244  22071348.4224   22071348.1174   19131063.35546
  14953340.67242                  24687006.4614                   24687006.0864
   8102976.18847   6454186.12944  22852312.1414                   22852312.0904
 -33271105.75848 -25885421.46946  20979479.8914                   20979477.8914
 -17643209.37548 -13708330.19145  21858255.6024                   21858256.7544
  -9553039.92247  -7410429.00845  21292987.6254                   21292985.9844
 -49124764.72747 -38238349.12145  22127422.1724                   22127419.2274
 11  8 27  2 30  0.0000000  0  8G12G26G21G15G05G25G29G02
 -28031234.67647 -21802192.17645  22847574.7034                   22847573.9494
   -745938.88347    753737.74244  22342377.8134   22342376.9534   20574709.35946
  16078259.82442                  24961721.3834                   24961722.3984
   9508380.10247   7549306.16844  23119751.4064                   23119751.0864
 -31708693.52048 -24667957.39146  21276797.0394                   21276794.9804
 -16099346.02348 -12505319.78945  22152042.9924                   22152044.4804
  -8122714.13748  -6295889.37946  21565169.3204                   21565167.8674
 -47581355.39847 -37035692.50045  22421123.1884                   22421120.1684
 11  8 27  2 30 30.0000000  0  8G12G26G21G15G05G25G29G02
 -28019492.89147 -21793042.74645  22849808.9304                   22849808.0474
   -896707.13747    636256.05945  22313688.1094   22313686.8524   20442920.64546
  15975567.38742                  24936644.2274                   24936643.4924
   9338486.92247   7416921.98044  23087422.3444                   23087420.9654
 -31721365.39148 -24677831.57846  21274385.5704                   21274383.7504
 -16130447.05148 -12529554.34845  22146124.3364                   22146125.5084
  -8267550.42648  -6408748.77346  21537608.1644                   21537606.8634
 -47613264.13747 -37060556.45745  22415051.4614                   22415048.4024
 11  8 27  2 31  0.0000000  0  8G12G26G21G15G05G25G29G02
 -28007564.34847 -21783747.78945  22852079.1334                   22852077.9454
  -1047088.05947    519076.16444  22285071.1174   22285070.1994   20311116.44946
  15872862.94542                  24911562.0634                   24911562.3164
   9168720.76647   7284636.75044  23055116.2194                   23055115.3834
 -31733708.07048 -24687449.25046  21272036.8674                   21272034.6414
 -16161098.47348 -12553438.57045  22140291.9694                   22140292.9144
  -8412126.66048  -6521405.54346  21510096.5554                   21510094.9494
 -47645074.09847 -37085343.43445  22408997.7814                   22408994.9024
 11  8 27  2 31 30.0000000  0  8G12G26G21G15G05G25G29G02
 -27995444.22747 -21774303.54344  22854385.6804                   22854384.0434
  -1197070.91047    402206.48044  22256529.9694   22256529.3054   20179303.71546
  15770151.83242                  24886479.5394                   24886479.8634
   8999092.02347   7152458.60544  23022837.3594                   23022836.2384
 -31745716.85548 -24696806.75846  21269751.3914                   21269749.4964
 -16191295.26648 -12576968.53545  22134545.4614                   22134546.9104
  -8556432.72748  -6633851.78946  21482635.8134                   21482634.5394
 -47676777.37547 -37110047.26245  22402964.7504                   22402961.8204
 11  8 27  2 32  0.0000000  0  9G12G26G21G15G05G25G29G02G18
 -27983137.49647 -21764713.88744  22856727.0394                   22856726.4734
  -1346653.91447    285648.35944  22228065.4534   22228064.5084   20047479.70746
  15667431.94542                  24861393.7894                   24861393.9614
   8829601.96947   7020388.54344  22990583.3204                   22990583.3954
 -31757396.04348 -24705907.43446  21267529.1174                   21267526.9104
 -16221041.82048 -12600147.67645  22128884.7194                   22128886.3284
  -8700468.05548  -6746087.07046  21455226.7814                   21455225.0314
 -47708375.83247 -37134669.43445  22396952.5004                   22396949.0434
  24999110.58656  19607274.01653  24757300.5864                   24757300.6414
 11  8 27  2 32 30.0000000  0  9G12G26G21G15G05G25G29G02G18
 -27970652.36347 -21754985.23044  22859103.2734                   22859101.9734
  -1495838.73447    169400.51244  22199676.3284   22199675.2304   19915639.38346
  15564699.30942                  24836305.4064                   24836305.4574
   8660248.71947   6888425.07844  22958358.0554                   22958356.3404
 -31768753.05948 -24714757.06246  21265367.9224                   21265365.5084
 -16250345.45748 -12622981.66045  22123308.5004                   22123309.5784
  -8844235.57848  -6858113.66846  21427868.6254                   21427867.0314
 -47739873.69947 -37159213.21145  22390957.7894                   22390955.3404
  24834533.39146  19479032.37942  24725982.8754                   24725983.5704
 11  8 27  2 33  0.0000000  0  9G12G26G21G15G05G25G29G02G18
 -27957988.43747 -21745117.24644  22861513.1884                   22861511.3954
  -1644618.16847     53468.55944  22171364.5314   22171363.4964   19783785.30946
  15461955.98043                  24811213.9064                   24811214.4144
   8491038.92247   6756573.37944  22926157.2274                   22926156.5124
 -31779786.62548 -24723354.64846  21263268.3284                   21263266.0474
 -16279205.13748 -12645469.70345  22117816.9694                   22117818.1214
  -8987729.13348  -6969926.78546  21400562.5164                   21400561.3134
 -47771267.84047 -37183676.16045  22384984.4064                   22384981.1764
  24670132.07846  19350927.77042  24694697.6024                   24694698.9344
 11  8 27  2 33 30.0000000  0  9G12G26G21G15G05G25G29G02G18
 -27945155.72347 -21735117.73444  22863954.7734                   22863953.4024
  -1792996.03947    -62150.49645  22143129.4614   22143128.1914   19651909.77746
  15359195.97343                  24786118.8674                   24786119.1484
   8321968.19947   6624830.05144  22893984.2194                   22893984.0044
 -31790506.55148 -24731707.84446  21261228.4694                   21261226.6254
 -16307630.48847 -12667619.30945  22112407.6644                   22112408.7774
  -9130953.45347  -7081530.12146  21373307.5474                   21373306.2974
 -47802564.32447 -37208063.01645  22379028.4614                   22379025.3634
  24505900.67246  19222955.53142  24663445.4304                   24663446.9574
 11  8 27  2 34  0.0000000  0  9G12G26G21G15G05G25G29G02G18
 -27932151.92647 -21724984.91844  22866429.9694                   22866428.3524
  -1940962.87947   -177449.26644  22114972.0634   22114971.0434   19520018.00846
  15256423.26643                  24761020.9924                   24761020.7504
   8153045.68846   6493202.19144  22861839.3834                   22861838.3754
 -31800909.73448 -24739814.23446  21259248.5474                   21259246.7344
 -16335618.35548 -12689428.02745  22107081.8524                   22107083.1804
  -9273900.75448  -7192917.59846  21346105.4384                   21346104.4384
 -47833757.14847 -37232369.07445  22373092.7974                   22373089.7774
  24341846.22746  19095121.18843  24632226.8054                   24632228.0084
 11  8 27  2 34 30.0000000  0  9G12G26G21G15G05G25G29G02G18
 -27918986.01247 -21714725.77345  22868934.7344                   22868934.2424
  -2088521.55147   -292429.96945  22086892.1564   22086891.4964   19388103.44146
  15153632.82443                  24735918.5084                   24735917.9694
   7984268.37547   6361687.49644  22829722.0474                   22829721.1604
 -31811004.66047 -24747680.42246  21257327.7274                   21257325.7344
 -16363177.23048 -12710902.46545  22101837.4774                   22101838.7384
  -9416574.68048  -7304092.04746  21318956.0314                   21318954.8244
 -47864852.07047 -37256598.86744  22367175.1804                   22367172.5514
  24177964.09846  18967421.11343  24601040.5234                   24601042.3984
 11  8 27  2 35  0.0000000  0  9G12G26G21G15G05G25G29G02G18
 -27905655.84447 -21704338.66045  22871471.6484                   22871470.9614
  -2235663.27747   -407085.79745  22058892.3674   22058891.4654   19256170.87146
  15050828.30943                  24710812.5784                   24710811.8134
   7815644.33247   6230292.22744  22797633.9304                   22797632.8834
 -31820788.51648 -24755304.20746  21255465.8134                   21255463.5904
 -16390304.34847 -12732040.47345  22096675.7344                   22096676.2734
  -9558967.24648  -7415047.26646  21291859.2894                   21291857.8554
 -47895843.59847 -37280748.10245  22361278.3054                   22361275.4534
  24014260.73846  18839860.34443  24569889.0004                   24569889.9774
 11  8 27  2 35 30.0000000  0  9G12G26G21G15G05G25G29G02G18
 -27892162.84447 -21693824.65244  22874039.3284                   22874038.4734
  -2382383.40247   -521413.09845  22030972.0784   22030971.1954   19124220.77746
  14948010.14143                  24685703.3364                   24685701.5864
   7647177.93047   6099019.80144  22765575.9144                   22765574.8484
 -31830262.72348 -24762686.70746  21253663.2424                   21253661.0904
 -16417001.12148 -12752843.14145  22091594.8444                   22091596.1604
  -9701075.23047  -7525780.72746  21264817.1024                   21264815.7894
 -47926729.97347 -37304815.38344  22355400.3524                   22355397.5354
  23850738.51246  18712440.70342  24538771.1094                   24538772.9304
 11  8 27  2 36  0.0000000  0  9G12G26G21G15G05G25G29G02G18
 -27878512.74647 -21683188.23044  22876636.4774                   22876635.7854
  -2528680.51647   -635410.79745  22003132.4614   22003131.2114   18992251.02746
  14845176.65243                  24660590.5314                   24660588.6174
   7478870.53947   5967871.28145  22733547.5234                   22733547.1764
 -31839431.40648 -24769831.14146  21251918.3754                   21251916.5664
 -16443271.87148 -12773313.83245  22086595.7504                   22086597.4804
  -9842898.02048  -7636291.95346  21237829.6884                   21237827.3874
 -47957512.90247 -37328802.06645  22349542.2894                   22349539.7544
  23687396.79746  18585161.69943  24507688.3594                   24507689.9144
 11  8 27  2 36 30.0000000  0  9G12G26G21G15G05G25G29G02G18
 -27864709.98447 -21672432.85944  22879263.6174                   22879262.7274
  -2674552.46147   -749077.17245  21975374.0004   21975373.2424   18860259.46946
  14742326.19943                  24635472.6804                   24635471.7734
   7310723.62147   5836847.79345  22701550.9924                   22701550.2424
 -31848298.71948 -24776740.74246  21250230.7114                   21250229.2194
 -16469120.73848 -12793455.79745  22081676.9534                   22081677.9534
  -9984434.79748  -7746580.32046  21210895.8914                   21210894.0354
 -47988193.37147 -37352708.91045  22343704.1564                   22343702.0904
  23524235.47346  18458023.24642  24476638.4534                   24476641.6564
 11  8 27  2 37  0.0000000  0  9G12G26G21G15G05G25G29G02G18
 -27850754.41447 -21661558.43044  22881919.3984                   22881918.3834
  -2819992.91447   -862407.35545  21947697.6174   21947696.9654   18728248.61346
  14639460.69543                  24610351.9454                   24610351.4654
   7142743.22747   5705954.06644  22669584.9694                   22669583.8874
 -31856864.19548 -24783415.14546  21248601.1484                   21248599.0354
 -16494547.22348 -12813268.62545  22076838.7584                   22076839.9414
 -10125679.88348  -7856641.38346  21184017.1564                   21184016.2894
 -48018767.85547 -37376533.16844  22337886.4064                   22337883.1954
  23361258.59845  18331028.47742  24445625.4384                   24445628.2894
 11  8 27  2 37 30.0000000  0  9G12G26G21G15G05G25G29G02G18
 -27836652.12547 -21650569.63744  22884603.1024                   22884601.6884
  -2965001.16047   -975400.72344  21920103.6804   21920102.6884   18596215.26246
  14536577.69543                  24585226.1334                   24585226.0314
   6974930.01647   5575190.63344  22637651.3054                   22637649.9184
 -31865133.05148 -24789858.40646  21247027.2974                   21247025.5234
 -16519556.64148 -12832756.48445  22072079.6724                   22072080.3834
 -10266633.61747  -7966475.42646  21157194.8914                   21157193.7234
 -48049238.79747 -37400276.74644  22332087.9774                   22332085.1174
  23198464.48445  18204176.21942  24414645.9694                   24414649.0124
 11  8 27  2 38  0.0000000  0  9G12G26G21G15G05G25G29G02G18
 -27822404.82047 -21639467.85544  22887313.7734                   22887312.9734
  -3109572.73847  -1088053.84445  21892592.8284   21892591.6254   18464159.91446
  14433677.54743                  24560097.5234                   24560096.8914
   6807287.97747   5444560.54744  22605749.3364                   22605748.8554
 -31873106.44948 -24796071.44546  21245510.2274                   21245508.0124
 -16544150.55947 -12851920.56645  22067399.5704                   22067400.6024
 -10407292.97347  -8076080.08646  21130428.3674                   21130426.7464
 -48079604.76647 -37423938.52045  22326309.3834                   22326306.5664
  23035855.64146  18077468.16042  24383702.4144                   24383705.1564
 11  8 27  2 38 30.0000000  0  9G12G26G21G15G05G25G29G02G18
 -27808014.72347 -21628254.80544  22890052.4614                   22890050.9384
  -3253703.21947  -1200363.25445  21865165.5084   21865164.4774   18332083.23846
  14330760.75443                  24534963.3364                   24534962.9184
   6639821.61346   5314067.35944  22573882.1954                   22573880.6954
 -31880785.95348 -24802055.46946  21244048.8524                   21244047.1844
 -16568330.52748 -12870762.08245  22062798.4614                   22062798.9924
 -10547654.41047  -8185452.58646  21103718.5164                   21103716.4534
 -48109863.99647 -37447517.14844  22320550.9844                   22320548.7664
  22873434.45746  17950906.44942  24352795.2344                   24352797.4884
 11  8 27  2 39  0.0000000  0  9G12G26G21G15G05G25G29G02G18
 -27793486.75847 -21616934.30944  22892816.6804                   22892815.5944
  -3397390.97747  -1312327.67645  21837822.4144   21837821.7074   18199982.78646
  14227825.44443                  24509825.3204                   24509824.9024
   6472531.60547   5183711.59844  22542047.8444                   22542046.5594
 -31888175.96948 -24807813.91046  21242642.4534                   21242640.6764
 -16592100.96947 -12889284.48445  22058274.5314                   22058276.1334
 -10687717.07847  -8294592.27746  21077065.2814                   21077063.5474
 -48140017.84847 -37471013.65245  22314813.3204                   22314809.8874
  22711200.12546  17824490.30142  24321922.8054                   24321924.4614
 11  8 27  2 39 30.0000000  0  9G12G26G21G15G05G25G29G02G18
 -27778824.37147 -21605509.09044  22895606.8134                   22895606.1994
  -3540633.11747  -1423944.88745  21810564.4614   21810563.7664   18067857.76646
  14124871.00843                  24484682.2974                   24484681.9304
   6305420.66847   5053495.36344  22510247.7034                   22510246.8054
 -31895279.32448 -24813348.98846  21241290.7734                   21241288.6884
 -16615464.95747 -12907490.19145  22053828.7664                   22053830.3714
 -10827479.41847  -8403497.95346  21050469.5314                   21050467.5234
 -48170066.85947 -37494428.46145  22309094.4774                   22309091.9614
  22549153.43046  17698220.28942  24291086.1254                   24291087.0904
 11  8 27  2 40  0.0000000  0  9G12G26G21G15G05G25G29G02G18
 -27764025.77047 -21593977.71544  22898423.1094                   22898422.0434
  -3683421.71547  -1535208.67645  21783392.1334   21783391.7734   17935712.17646
  14021900.53143                  24459536.9064                   24459535.9064
   6138497.09847   4923425.13745  22478482.2734                   22478482.3444
 -31902093.71148 -24818658.89546  21239994.2344                   21239992.2464
 -16638420.53148 -12925377.63745  22049460.4144                   22049461.4064
 -10966934.03548  -8512163.84846  21023931.9384                   21023930.5044
 -48200005.91447 -37517757.60544  22303397.8754                   22303395.3484
  22387300.30146  17572101.15642  24260286.1644                   24260287.5664
 11  8 27  2 40 30.0000000  0  9G12G26G21G15G05G25G29G02G18
 -26173678.31247 -20354745.94144  23201056.1954                   23201055.0784
  -2250332.28547   -418515.55945  22056100.3204   22056099.6374   19378966.39846
  15146514.32043                  24734178.4614                   24734177.2344
   7547185.71547   6021104.65245  22746547.0704                   22746546.5704
 -30333205.29348 -23596148.43046  21538543.1954                   21538542.0394
 -15085553.15647 -11715351.10245  22344961.3054                   22344962.6254
  -9530657.52347  -7392987.30946  21297246.1564                   21297244.6604
 -46654417.00847 -36313402.61344  22597513.4144                   22597510.0984
  23801063.05146  18673734.71543  24529316.6564                   24529317.4534
 11  8 27  2 41  0.0000000  0  9G12G26G21G15G05G25G29G02G18
 -26158625.93747 -20343016.82844  23203920.4224                   23203919.5634
  -2392212.47347   -529071.49645  22029101.7114   22029100.6134   19246769.50846
  15043503.91442                  24709022.0864                   24709021.2894
   7380636.77347   5891326.34844  22714853.8674                   22714852.9454
 -30339458.67248 -23601021.18046  21537353.6254                   21537351.7664
 -15107708.62547 -11732615.09845  22340745.1884                   22340746.2344
  -9669498.44547  -7501174.99246  21270825.3834                   21270823.8554
 -46684143.14547 -36336565.83244  22591856.6884                   22591853.4104
  23639591.22346  18547912.70742  24498588.7664                   24498590.3984
 11  8 27  2 41 30.0000000  0  9G12G26G21G15G05G25G29G02G18
 -26143452.83647 -20331193.63344  23206807.4454                   23206807.0314
  -2533634.98447   -639270.79745  22002189.2034   22002188.2664   19114544.87946
  14940471.85542                  24683860.5554                   24683860.0864
   7214278.35247   5761696.47744  22683197.1024                   22683195.4694
 -30345436.45348 -23605679.18046  21536215.9064                   21536214.1134
 -15129469.63347 -11749571.71545  22336604.0634                   22336605.2154
  -9808030.57847  -7609122.06646  21244463.4224                   21244462.1094
 -46713763.84447 -36359646.89844  22586220.3364                   22586217.2074
  23478310.02046  18422239.20343  24467898.7584                   24467899.0274
 11  8 27  2 42  0.0000000  0  9G12G26G21G15G05G25G29G02G18
 -26128159.27347 -20319276.57044  23209718.3914                   23209716.9774
  -2674593.99247   -749108.94145  21975365.7114   21975365.0314   18982294.42246
  14837419.68842                  24658694.6724                   24658692.6884
   7048116.12547   5632219.48844  22651577.0944                   22651576.3794
 -30351138.59448 -23610122.39146  21535131.2814                   21535129.3634
 -15150836.25047 -11766221.02045  22332538.0944                   22332539.1294
  -9946248.63747  -7716824.40246  21218161.7504                   21218159.8984
 -46743275.84847 -36382643.26645  22580604.7194                   22580601.1844
  23317223.82846  18296717.69543  24437244.7584                   24437245.5124
 11  8 27  2 42 30.0000000  0  9G12G26G21G15G05G25G29G02G18
 -26112749.00046 -20307268.60544  23212650.6644                   23212649.9804
  -2815087.27047   -858584.16445  21948630.5554   21948629.7624   18850016.75846
  14734346.27742                  24633521.8524                   24633520.9184
   6882152.16847   5502897.01244  22619995.2734                   22619994.4734
 -30356568.71548 -23614353.64546  21534098.2424                   21534096.0554
 -15171812.23447 -11782565.94145  22328546.8284                   22328548.0824
 -10084151.75047  -7824281.34046  21191919.5554                   21191917.9454
 -46772679.96947 -36405555.57845  22575009.0314                   22575005.7734
  23156332.18446  18171347.76643  24406627.9224                   24406628.6214
 11  8 27  2 43  0.0000000  0  9G12G26G21G15G05G25G29G02G18
 -26097224.28547 -20295171.42644  23215604.7814                   23215603.4384
  -2955109.78947   -967692.57445  21921985.4924   21921984.6884   18717712.99646
  14631252.56343                  24608345.6414                   24608344.1054
   6716391.24647   5373732.72344  22588452.0394                   22588450.6844
 -30361727.53548 -23618373.48446  21533115.6174                   21533114.1564
 -15192398.69147 -11798607.32445  22324629.2344                   22324630.5274
 -10221735.59847  -7931489.48446  21165738.0864                   21165736.3674
 -46801974.01247 -36428382.10245  22569434.6174                   22569431.0784
  22995638.00846  18046131.73043  24376048.6334                   24376048.6134
 11  8 27  2 43 30.0000000  0  9G12G26G21G15G05G25G29G02G18
 -26081589.54346 -20282988.52744  23218580.3054                   23218579.4924
  -3094659.86347  -1076432.85245  21895429.6094   21895429.1604   18585381.05546
  14528136.89842                  24583163.6254                   24583162.5084
   6550834.51247   5244727.53945  22556947.2194                   22556946.3754
 -30366619.23848 -23622185.19146  21532184.6564                   21532183.0634
 -15212599.97747 -11814348.57845  22320784.9144                   22320785.6844
 -10358999.66847  -8038448.45746  21139617.8984                   21139616.0514
 -46831159.43447 -36451123.97345  22563881.3524                   22563877.5514
  22835140.78946  17921069.18043  24345506.4844                   24345507.1214
 11  8 27  2 44  0.0000000  0  9G12G26G21G15G05G25G29G02G18
 -26065845.31646 -20270720.32844  23221576.0474                   23221575.8524
  -3233732.42247  -1184801.01645  21868965.1024   21868963.9534   18453022.44146
  14425000.35543                  24557976.6484                   24557975.5004
   6385487.26247   5115885.59845  22525482.9384                   22525481.2814
 -30371244.46548 -23625789.25046  21531304.8054                   21531303.5784
 -15232417.00047 -11829790.41045  22317013.3284                   22317015.0124
 -10495939.40247  -8145154.71546  21113558.9694                   21113557.3674
 -46860233.71547 -36473779.25844  22558348.1024                   22558345.2384
  22674843.31346  17796162.27343  24315002.8914                   24315003.4494
 11  8 27  2 44 30.0000000  0  9G12G26G21G15G05G25G29G02G18
 -26049994.03147 -20258368.71144  23224592.8054                   23224591.7584
  -3372322.99247  -1292793.62545  21842591.8914   21842590.8984   18320637.87946
  14321843.70743                  24532784.0634                   24532782.7814
   6220354.23847   4987210.59445  22494059.3524                   22494058.0204
 -30375604.26648 -23629186.48846  21530475.3834                   21530473.4414
 -15251851.07447 -11844933.84045  22313315.6414                   22313316.7774
 -10632551.32047  -8251605.52746  21087562.4614                   21087560.4964
 -46889194.83247 -36496346.35944  22552836.3594                   22552833.6214
  22514748.52346  17671413.25842  24284537.6884                   24284537.9064
 11  8 27  2 45  0.0000000  0  9G12G26G21G15G05G25G29G02G18
 -26034041.18447 -20245937.92244  23227628.3834                   23227627.3914
  -3510430.87547  -1400410.10945  21816311.1024   21816310.1914   18188224.59046
  14218664.62143                  24507587.1174                   24507585.9104
   6055435.50047   4858702.55945  22462676.1484                   22462675.1844
 -30379703.52748 -23632380.69946  21529695.4534                   21529693.0984
 -15270907.57447 -11859783.06645  22309689.4384                   22309690.9064
 -10768835.77047  -8357801.16046  21061628.3364                   21061626.4774
 -46918045.09047 -36518827.09044  22547346.1484                   22547344.0634
  22354854.85946  17546821.00042  24254110.5164                   24254111.7704
 11  8 27  2 45 30.0000000  0  9G12G26G21G15G05G25G29G02G18
 -26017994.00447 -20233433.65644  23230682.4224                   23230680.9734
  -3648056.96147  -1507651.16845  21790121.8054   21790120.8204   18055777.58246
  14115459.28943                  24482382.9384                   24482381.5274
   5890730.09447   4730360.77044  22431333.6724                   22431332.3204
 -30383549.39548 -23635377.46146  21528963.2274                   21528961.3954
 -15289593.51647 -11874343.55545  22306133.5474                   22306134.6954
 -10904794.08247  -8463742.66846  21035756.6564                   21035754.4304
 -46946788.23047 -36541224.32844  22541877.4694                   22541874.0944
  22195158.72746  17422382.65642  24223721.8594                   24223721.7704
 11  8 27  2 46  0.0000000  0  9G12G26G21G15G05G25G29G02G18
 -26001851.40246 -20220855.02344  23233753.9774                   23233752.9534
  -3785194.21947  -1614511.31645  21764025.6094   21764024.0704   17923300.53146
  14012230.52243                  24457173.0394                   24457172.1764
   5726245.02347   4602190.63344  22400032.8204                   22400031.3984
 -30387140.25448 -23638175.52346  21528279.9694                   21528278.3794
 -15307907.84047 -11888614.46145  22302648.1024                   22302649.8324
 -11040420.30147  -8569425.39546  21009947.5314                   21009946.2424
 -46975419.76647 -36563534.60944  22536428.8204                   22536426.2234
  22035665.30146  17298102.23042  24193370.8674                   24193370.8634
 11  8 27  2 46 30.0000000  0  9G12G26G21G15G05G25G29G02G18
 -25985616.34447 -20208204.34444  23236843.2274                   23236842.7934
  -3921839.46947  -1720988.09045  21738022.6334   21738021.7274   17790793.12546
  13908978.11343                  24431958.5554                   24431955.8094
   5561983.58247   4474194.78545  22368775.4144                   22368773.7304
 -30390477.85248 -23640776.23846  21527644.9534                   21527642.9494
 -15325853.22747 -11902597.86745  22299233.3444                   22299234.5274
 -11175711.93047  -8674847.40246  20984202.4224                   20984200.5864
 -47003939.60947 -36585757.86344  22531002.0234                   22530998.9844
  21876375.74246  17173980.64543  24163059.3594                   24163059.8324
 11  8 27  2 47  0.0000000  0  9G12G26G21G15G05G25G29G02G18
 -25969291.86746 -20195483.99644  23239949.2504                   23239949.1024
  -4057988.88347  -1827078.48845  21712114.2034   21712113.1804   17658255.31646
  13805702.00843                  24406737.0474                   24406735.5594
   5397949.27747   4346375.91445  22337560.1884                   22337559.3594
 -30393564.57048 -23643181.45346  21527058.0704                   21527055.9144
 -15343431.82847 -11916295.47745  22295888.6644                   22295889.6604
 -11310665.91847  -8780006.30546  20958521.9064                   20958519.6604
 -47032346.32447 -36607892.95344  22525595.8524                   22525593.4264
  21717291.89846  17050019.38743  24132786.3674                   24132786.3364
 11  8 27  2 47 30.0000000  0  9G12G26G21G15G05G25G29G02G18
 -25952884.10246 -20182698.75844  23243072.7114                   23243071.5084
  -4193642.84447  -1932782.82445  21686299.6724   21686298.6524   17525683.55946
  13702399.42643                  24381509.1644                   24381507.7194
   5234141.79747   4218733.79745  22306388.9454                   22306387.4654
 -30396406.54348 -23645395.96946  21526516.7584                   21526515.0634
 -15360650.01647 -11929712.26245  22292612.0944                   22292613.3674
 -11445283.46547  -8884903.05146  20932904.5784                   20932902.8444
 -47060643.02747 -36629942.32444  22520211.3834                   22520208.3984
  21558411.12946  16926216.35543  24102552.3754                   24102552.0514
 11  8 27  2 48  0.0000000  0  9G12G26G21G15G05G25G29G02G18
 -25936390.83646 -20169846.89544  23246210.6414                   23246209.6134
  -4328793.27047  -2038094.79745  21660581.4144   21660580.8594   17393082.00446
  13599073.64543                  24356276.4064                   24356274.6454
   5070569.15647   4091274.66045  22275262.4774                   22275260.6134
 -30399001.03948 -23647417.63746  21526022.9844                   21526020.8484
 -15377505.76647 -11942846.61745  22289404.0084                   22289405.5744
 -11579557.27347  -8989531.94146  20907353.1644                   20907351.2384
 -47088824.30547 -36651901.75844  22514848.8204                   22514845.3484
  21399739.42246  16802576.21143  24072358.1174                   24072357.5044
 11  8 27  2 48 30.0000000  0  9G12G26G21G15G05G25G29G02G18
 -25919820.53146 -20156934.99644  23249363.6724                   23249363.2344
  -4463442.48447  -2143016.20345  21634958.4614   21634957.8164   17260445.07046
  13495720.31643                  24331035.8594                   24331034.8674
   4907229.25847   3963996.88745  22244179.2974                   22244177.9734
 -30401355.78148 -23649252.47745  21525575.0784                   21525572.9734
 -15394007.23047 -11955704.89145  22286264.3204                   22286265.0984
 -11713490.41047  -9093895.38346  20881866.2344                   20881864.8094
 -47116895.17247 -36673775.14545  22509506.8364                   22509503.8634
  21241272.32046  16679095.52743  24042203.2274                   24042201.9384
 11  8 27  2 49  0.0000000  0  9G12G26G21G15G05G25G29G02G18
 -25903175.34046 -20143964.75444  23252531.8984                   23252530.4414
  -4597586.09047  -2247543.62545  21609431.8754   21609430.6994   17127773.68446
  13392340.13743                  24305788.6564                   24305788.0274
   4744126.47747   3836903.85245  22213141.8834                   22213140.4304
 -30403472.14148 -23650901.57845  21525172.4144                   21525170.0204
 -15410155.99247 -11968288.35545  22283191.2344                   22283192.6094
 -11847079.35247  -9197990.60946  20856445.6094                   20856443.3324
 -47144853.76647 -36695561.05545  22504186.1564                   22504183.9734
  21083012.15646  16555776.07443  24012086.5864                   24012085.3134
 11  8 27  2 49 30.0000000  0  9G12G26G21G15G05G25G29G02G18
 -25886452.39146 -20130933.91444  23255713.7424                   23255712.9064
  -4731215.29347  -2351670.23045  21584003.2034   21584002.3244   16995072.98846
  13288937.12543                  24280537.0164                   24280535.3834
   4581269.43447   3710002.32445  22182151.0234                   22182150.1484
 -30405346.59048 -23652362.17646  21524814.8914                   21524813.1334
 -15425949.10547 -11980594.68045  22280185.5394                   22280187.4414
 -11980315.69948  -9301811.10246  20831091.1484                   20831089.0514
 -47172693.91047 -36717254.66844  22498888.6094                   22498885.9064
  20924965.72746  16432623.17643  23982011.1254                   23982010.6684
 11  8 27  2 50  0.0000000  0  9G12G26G21G15G05G25G29G02G18
 -25869658.76646 -20117847.99644  23258908.9614                   23258908.3444
  -4864331.16847  -2455396.83645  21558672.1644   21558671.0314   16862338.29746
  13185507.59443                  24255278.7504                   24255277.0944
   4418657.20347   3583291.55545  22151207.1334                   22151205.7344
 -30406986.17248 -23653639.75445  21524503.2424                   21524500.8634
 -15441393.82047 -11992629.52345  22277247.3674                   22277248.5554
 -12113201.69947  -9405358.58246  20805803.6884                   20805801.8634
 -47200419.40647 -36738858.94144  22493612.2034                   22493609.8054
  20767129.74646  16309634.27742  23951975.3284                   23951975.4304
 11  8 27  2 50 30.0000000  0  9G12G26G21G15G05G25G29G02G18
 -25852796.67246 -20104708.72344  23262117.5314                   23262117.1954
  -4996929.83247  -2558720.42245  21533439.1174   21533437.8914   16729570.18446
  13082052.03143                  24230012.9144                   24230011.9774
   4256293.50447   3456774.44945  22120310.4534                   22120308.9574
 -30408391.72748 -23654734.97746  21524236.1414                   21524234.0204
 -15456491.92247 -12004394.28145  22274373.8444                   22274375.2234
 -12245733.67647  -9508630.20346  20780584.0704                   20780581.3674
 -47228028.95347 -36760372.86744  22488359.1094                   22488355.9384
  20609506.06346  16186810.79343  23921980.3204                   23921980.7544
 11  8 27  2 51  0.0000000  0  9G12G26G21G15G05G25G29G02G18
 -24260446.19946 -18863916.16044  23565132.3204                   23565131.3284
  -3553579.87947  -1434032.10545  21808099.8284   21808098.5744   18172196.52746
  14206176.56643                  24504536.3834                   24504534.8364
   5669610.78547   4558060.69145  22389255.9304                   22389254.3404
 -28834142.35548 -22428047.13745  21823805.2344                   21823803.6884
 -13895822.12947 -10788287.94545  22571359.0164                   22571360.7584
 -10802481.40248  -8384017.99246  21055225.1094                   21055223.4614
 -45680096.99647 -35554192.12144  22782920.5944                   22782917.4104
  22027524.99246  17291760.76643  24191820.1954                   24191820.3754
 11  8 27  2 51 30.0000000  0  9G12G26G21G15G05G25G29G02G18
 -24243456.62546 -18850677.57044  23568366.2734                   23568364.9344
  -3685135.78947  -1536543.14545  21783065.1724   21783064.3134   18039359.99246
  14102667.68043                  24479258.0474                   24479256.6954
   5507753.09847   4431937.87145  22358454.8674                   22358453.3324
 -28835088.59048 -22428784.43445  21823625.5314                   21823623.5234
 -13910236.54747 -10799519.95745  22568616.2734                   22568617.4024
 -10934299.62147  -8486733.44546  21030141.0864                   21030139.1094
 -45707473.59847 -35575524.53544  22777711.0634                   22777708.2894
  21870328.57846  17169270.19943  24161906.8594                   24161907.2624
 11  8 27  2 52  0.0000000  0  9G12G26G21G15G05G25G29G02G18
 -24226408.08646 -18837393.01644  23571609.6884                   23571608.8324
  -3816165.69947  -1638644.32845  21758131.3674   21758130.1804   17906488.60946
  13999131.61743                  24453973.0554                   24453971.6294
   5346153.39147   4306016.07045  22327703.4774                   22327701.9414
 -28835808.86347 -22429345.68045  21823488.7664                   21823486.3164
 -13924313.42647 -10810488.95345  22565937.6254                   22565938.6564
 -11065757.18747  -8589167.87146  21005125.8284                   21005124.0354
 -45734732.79347 -35596765.46145  22772524.0864                   22772520.7424
  21713347.20746  17046947.24643  24132034.8594                   24132034.0554
 11  8 27  2 52 30.0000000  0  9G12G26G21G15G05G25G29G02G18
 -24209303.18446 -18824064.54344  23574864.8444                   23574863.8324
  -3946666.57047  -1740333.27045  21733297.7814   21733296.3714   17773582.02046
  13895568.12943                  24428681.4534                   24428680.1954
   5184814.44147   4180297.46145  22297001.6804                   22297000.3674
 -28836305.29747 -22429732.50046  21823393.8594                   21823392.4734
 -13938055.59847 -10821197.13345  22563322.4304                   22563323.7854
 -11196851.82447  -8691319.49246  20980179.1174                   20980177.0554
 -45761873.92247 -35617914.39544  22767359.1174                   22767355.7154
  21556581.89146  16924792.60243  24102203.0944                   24102202.6374
 11  8 27  2 53  0.0000000  0  9G12G26G21G15G05G25G29G02G18
 -24192146.59046 -18810695.82444  23578129.3754                   23578129.2664
  -4076637.05947  -1841608.93445  21708565.0944   21708563.6954   17640638.57046
  13791975.91043                  24403383.6724                   24403382.4384
   5023737.63347   4054783.12145  22266349.9844                   22266348.9884
 -28836582.12147 -22429948.20345  21823340.3984                   21823339.5164
 -13951467.69947 -10831648.12945  22560770.3444                   22560771.9104
 -11327582.85248  -8793187.78946  20955301.9614                   20955299.8364
 -45788898.60547 -35638972.59444  22762216.6644                   22762213.1484
  21400032.27046  16802806.07043  24072412.4844                   24072412.3524
 11  8 27  2 53 30.0000000  0  9G12G26G21G15G05G25G29G02G18
 -24174940.57046 -18797288.57044  23581404.2424                   23581403.0944
  -4206073.77747  -1942468.65245  21683934.2424   21683933.0984   17507658.62146
  13688355.24243                  24378078.6174                   24378077.0824
   4862927.10947   3929476.27745  22235748.3054                   22235747.1024
 -28836640.86347 -22429993.97345  21823329.2424                   21823327.3834
 -13964551.80547 -10841843.53545  22558280.5164                   22558281.7664
 -11457947.55148  -8894770.62946  20930494.4144                   20930492.3364
 -45815805.45347 -35659938.96544  22757096.2894                   22757092.8794
  21243699.39846  16680988.44143  24042662.5944                   24042663.1374
 11  8 27  2 54  0.0000000  0  9G12G26G21G15G05G25G29G02G18
 -24157689.37946 -18783846.12144  23584686.4224                   23584685.8634
  -4334974.63347  -2042910.83245  21659404.5394   21659403.5704   17374640.26246
  13584704.63343                  24352765.9534                   24352763.8244
   4702384.53147   3804378.21545  22205198.4224                   22205196.9844
 -28836485.19547 -22429872.66445  21823359.6094                   21823357.6054
 -13977312.14147 -10851786.64845  22555852.5944                   22555853.5474
 -11587944.30948  -8996066.76646  20905756.4614                   20905754.8794
 -45842595.22347 -35680814.10244  22751998.2274                   22751994.8054
  21087583.04746  16559339.46143  24012955.1254                   24012954.3244
 11  8 27  2 54 30.0000000  0  9G12G26G21G15G05G25G29G02G18
 -24140394.53146 -18770369.63344  23587977.7344                   23587976.6524
  -4463335.68447  -2142932.37945  21634978.2584   21634976.9774   17241584.43446
  13481024.88343                  24327445.7424                   24327444.1764
   4542114.18047   3679492.28945  22174699.8914                   22174698.5554
 -28836115.92248 -22429584.91845  21823430.1884                   21823427.9844
 -13989750.46947 -10861478.86345  22553485.6254                   22553486.9614
 -11717569.66848  -9097073.49646  20881089.8984                   20881088.1454
 -45869266.12547 -35701596.60944  22746923.0634                   22746919.7304
  20931685.67246  16437861.13343  23983288.6094                   23983288.0634
 11  8 27  2 55  0.0000000  0  9G12G26G21G15G05G25G29G02G18
 -24123062.94946 -18756864.56244  23591275.9144                   23591275.2304
  -4591157.57847  -2242533.80545  21610654.7034   21610653.9304   17108487.61746
  13377313.12943                  24302118.6954                   24302117.1174
   4382115.54747   3554818.07445  22144253.5084                   22144251.3054
 -28835539.71548 -22429135.91445  21823539.5864                   21823537.3984
 -14001873.37147 -10870925.25445  22551178.7664                   22551179.3054
 -11846825.22747  -9197792.07446  20856493.1954                   20856491.5784
 -45895821.33647 -35722288.96144  22741868.9064                   22741866.2894
  20776004.60246  16316551.34043  23953663.4144                   23953662.1254
 11  8 27  2 55 30.0000000  0  9G12G26G21G15G05G25G29G02G18
 -24105694.23846 -18743330.53944  23594580.8134                   23594580.0634
  -4718434.62147  -2341710.68045  21586434.8284   21586433.7384   16975351.71546
  13273570.96143                  24276783.1484                   24276781.5824
   4222394.79347   3430360.41045  22113859.0554                   22113857.5744
 -28834755.64547 -22428524.94145  21823688.9304                   21823687.0124
 -14013680.70347 -10880125.78545  22548931.7424                   22548932.9534
 -11975705.29747  -9298218.07446  20831968.1254                   20831966.0594
 -45922257.39847 -35742888.49644  22736838.2664                   22736835.8244
  20620543.55146  16195412.96543  23924080.1334                   23924078.3674
 11  8 27  2 56  0.0000000  0  9G12G26G21G15G05G25G29G02G18
 -24088286.82846 -18729766.37544  23597893.5234                   23597892.6954
  -4845159.32047  -2440457.15245  21562320.1414   21562318.3984   16842181.58246
  13169802.10543                  24251442.2734                   24251440.4184
   4062959.44147   3306125.13345  22083519.5634                   22083518.1454
 -28833761.53947 -22427750.30545  21823878.1174                   21823875.7624
 -14025170.89147 -10889079.17645  22546745.3134                   22546746.7234
 -12104203.28547  -9398346.34046  20807515.8524                   20807513.7734
 -45948569.00047 -35763391.02744  22731832.1094                   22731828.7424
  20465308.00046  16074450.32443  23894538.8674                   23894538.0394
 11  8 27  2 56 30.0000000  0  9G12G26G21G15G05G25G29G02G18
 -24070845.39846 -18716175.69144  23601213.0164                   23601211.9144
  -4971330.70747  -2538772.47345  21538310.1024   21538308.5274   16708974.63346
  13066004.55943                  24226092.7344                   24226091.7624
   3903810.94547   3182113.37145  22053235.1414                   22053233.3754
 -28832561.44148 -22426815.15645  21824106.1724                   21824104.4184
 -14036348.66847 -10897789.14845  22544617.8204                   22544619.4654
 -12232318.44548  -9498176.28946  20783136.5234                   20783134.0864
 -45974757.59447 -35783797.71144  22726849.5084                   22726845.1334
  20310297.15646  15953662.79343  23865041.1644                   23865041.0234
 11  8 27  2 57  0.0000000  0  9G12G26G21G15G05G25G29G02G18
 -24053376.90246 -18702563.90244  23604537.0634                   23604535.4804
  -5096949.61747  -2636657.28945  21514405.6254   21514404.9184   16575726.85946
  12962175.23843                  24200736.2584                   24200735.6884
   3744948.21947   3058324.28145  22023004.1334                   22023002.4884
 -28831161.75847 -22425724.49645  21824372.5944                   21824370.2664
 -14047221.01247 -10906261.09845  22542549.2584                   22542550.2344
 -12360052.45348  -9597709.24646  20758829.1254                   20758827.2584
 -46000826.79347 -35804111.36744  22721887.2734                   22721884.5394
  20155507.59846  15833047.68843  23835586.4144                   23835585.2154
 11  8 27  2 57 30.0000000  0  9G12G26G21G15G05G25G29G02G18
 -24035884.16046 -18688933.22743  23607866.3834                   23607864.6914
  -5222013.25448  -2734109.43045  21490606.9614   21490605.4964   16442438.35246
  12858314.16043                  24175373.3984                   24175371.8754
   3586374.79347   2934760.63745  21992828.7424                   21992826.7114
 -28829564.15648 -22424479.59045  21824676.8984                   21824674.5904
 -14057790.40647 -10914496.99645  22540537.8674                   22540538.8874
 -12487402.87148  -9696943.29746  20734595.5784                   20734593.4494
 -46026775.21947 -35824330.91444  22716949.8524                   22716946.8444
  20000941.00446  15712606.31343  23806173.5394                   23806172.1454
 11  8 27  2 58  0.0000000  0  9G12G26G21G15G05G25G29G02G18
 -24018372.47746 -18675287.80944  23611198.1564                   23611197.0394
  -5346521.21547  -2831128.58245  21466913.8834   21466912.3324   16309106.57046
  12754419.35243                  24150000.5084                   24149998.9344
   3428091.20347   2811422.82845  21962708.2424                   21962706.6214
 -28827773.91047 -22423084.59045  21825017.2034                   21825015.0664
 -14068062.46147 -10922501.19145  22538583.5314                   22538584.8634
 -12614370.04348  -9795878.71946  20710434.2504                   20710432.3914
 -46052605.34047 -35844458.27344  22712034.6884                   22712031.0164
  19846595.71146  15592337.37943  23776801.7894                   23776801.1914
 11  8 27  2 58 30.0000000  0  9G12G26G21G15G05G25G29G02G18
 -24000840.73446 -18661626.73844  23614534.2344                   23614532.4964
  -5470466.90247  -2927709.58645  21443327.3364   21443325.9804   16175734.72346
  12650493.33643                  24124620.3914                   24124619.1024
   3270104.50047   2688316.35245  21932644.0704                   21932642.6254
 -28825789.17247 -22421538.03545  21825394.6884                   21825393.1684
 -14078036.20747 -10930272.96545  22536684.8914                   22536686.1914
 -12740947.88747  -9894510.77046  20686347.3134                   20686345.2814
 -46078312.43447 -35864489.75844  22707142.7194                   22707139.2854
  19692476.44546  15472244.54743  23747474.2664                   23747473.0864
 11  8 27  2 59  0.0000000  0  9G12G26G21G15G05G25G29G02G18
 -23983289.70746 -18647950.63344  23617873.8754                   23617873.1954
  -5593845.57847  -3023848.78145  21419849.2034   21419847.9614   16042324.75446
  12546537.62143                  24099233.9144                   24099232.5664
   3112419.83647   2565445.23445  21902637.7274                   21902636.0354
 -28823610.23847 -22419840.16045  21825809.5234                   21825807.6024
 -14087712.51247 -10937812.94545  22534843.7814                   22534845.3244
 -12867131.49248  -9992835.62946  20662335.4614                   20662333.1454
 -46103894.15647 -35884423.55944  22702274.1254                   22702271.4804
  19538586.06646  15352330.08643  23718188.9224                   23718188.5314
 11  8 27  2 59 30.0000000  0  9G12G26G21G15G05G25G29G02G18
 -23965726.74246 -18634265.24644  23621216.5554                   23621214.5594
  -5716658.50848  -3119547.12545  21396478.9384   21396477.7934   15908872.10246
  12442548.61743                  24073838.1484                   24073837.6054
   2955035.86347   2442808.41845  21872688.4694                   21872686.8834
 -28821243.97347 -22417996.32045  21826260.0704                   21826257.8954
 -14097098.85247 -10945126.96945  22533057.6334                   22533058.6644
 -12992923.25048 -10090855.13746  20638397.7034                   20638395.6644
 -46129354.21947 -35904262.55944  22697429.9454                   22697426.3914
  19384921.02746  15232591.24643  23688947.9144                   23688946.8014
 11  8 27  3  0  0.0000000  0  9G12G26G21G15G05G25G29G02G18
 -23948153.25047 -18620571.64844  23624560.4144                   23624558.9774
  -5838902.06247  -3214801.80545  21373216.8594   21373215.0434   15775377.84046
  12338527.20744                  24048435.2974                   24048433.8284
   2797956.82447   2320409.21145  21842797.1484                   21842795.8594
 -28818691.21147 -22416007.14845  21826745.9924                   21826743.5204
 -14106196.80947 -10952216.29345  22531326.5784                   22531327.8594
 -13118319.44147 -10188566.40646  20614535.7424                   20614533.9104
 -46154690.84447 -35924005.38344  22692608.7114                   22692605.1214
  19231483.70346  15113029.79343  23659749.5864                   23659748.6094
 11  8 27  3  0 30.0000000  0  9G12G26G21G15G05G25G29G02G18
 -23930566.85547 -18606868.00844  23627907.0234                   23627906.4064
  -5960568.16048  -3309606.52345  21350064.2734   21350062.6954   15641847.00846
  12234477.29744                  24023025.5234                   24023023.8984
   2641191.07047   2198254.12545  21812965.5704                   21812964.4104
 -28815948.66447 -22413870.09845  21827267.6804                   21827265.9104
 -14115004.00047 -10959079.03145  22529650.6884                   22529651.5004
 -13243312.44548 -10285963.51646  20590750.8054                   20590748.0164
 -46179898.10947 -35943647.39544  22687811.2664                   22687808.5354
  19078279.91046  14993650.33643  23630596.0944                   23630595.1174
 11  8 27  3  1  0.0000000  0  9G12G26G21G15G05G25G29G02G18
 -23912978.64547 -18593162.93444  23631254.0784                   23631253.2934
  -6081662.18447  -3403965.46945  21327021.4774   21327019.7274   15508271.09046
  12130392.25043                  23997606.7504                   23997605.0904
   2484733.69547   2076339.35245  21783192.6954                   21783191.3554
 -28813027.12147 -22411593.56645  21827823.7194                   21827821.7344
 -14123531.61347 -10965723.92645  22528027.8594                   22528028.9734
 -13367908.16447 -10383051.05946  20567040.5234                   20567038.1884
 -46204983.58647 -35963194.53944  22683038.3204                   22683034.4534
  18925302.61346  14874447.35943  23601485.4924                   23601484.2074
 11  8 27  3  1 30.0000000  0  9G12G26G21G15G05G25G29G02G18
 -22319965.81646 -17351854.28144  23934394.8204                   23934393.9964
  -4626751.65647  -2270268.90645  21603881.1884   21603879.6024   16950080.57446
  13253880.22744                  24271973.6414                   24271972.2424
   3904018.94947   3182275.94945  22053273.8674                   22053272.2114
 -27234502.87147 -21181574.66445  22128206.9694                   22128204.6604
 -12556356.40647  -9744548.43445  22826251.3834                   22826252.3284
 -11916674.47747  -9252219.59046  20843200.9384                   20843199.2424
 -44654519.91846 -34755041.01644  22978080.7274                   22978078.1954
  20347983.21146  15983029.75443  23872212.5474                   23872210.8834
 11  8 27  3  2  0.0000000  0  9G12G26G21G15G05G25G29G02G18
 -22302374.01246 -17338146.45344  23937742.2974                   23937741.0394
  -4746685.67247  -2363723.94545  21581058.1414   21581056.6134   16816422.16047
  13149730.89144                  24246539.5784                   24246537.5394
   3748195.63747   3060855.22745  22023622.0004                   22023619.8204
 -27231221.65647 -21179017.87945  22128830.9144                   22128829.3054
 -12564325.78547  -9750758.33645  22824734.9064                   22824735.4694
 -12040460.98848  -9348676.57846  20819645.1024                   20819643.1804
 -44679352.16047 -34774390.82444  22973355.5164                   22973352.7424
  20195469.26247  15864187.80143  23843190.1884                   23843189.0784
 11  8 27  3  2 30.0000000  0  9G12G26G21G15G05G25G29G02G18
 -22284787.43046 -17324442.66444  23941088.8204                   23941088.2114
  -4866038.37147  -2456726.01245  21558346.6094   21558344.6134   16682719.66446
  13045547.18443                  24221096.9924                   24221094.7074
   3592691.18047   2939682.97745  21994030.0864                   21994028.1994
 -27227766.51647 -21176325.56645  22129488.8204                   22129486.7774
 -12572023.03147  -9756756.19145  22823269.7034                   22823271.0944
 -12163842.02748  -9444817.61346  20796166.6334                   20796164.6644
 -44704059.28547 -34793643.13344  22968653.7974                   22968650.9384
  20043185.67246  15745525.35543  23814211.1024                   23814210.2894
 11  8 27  3  3  0.0000000  0  9G12G26G21G15G05G25G29G02G18
 -22267205.97746 -17310742.90644  23944433.9614                   23944433.4964
  -4984804.49647  -2549271.00845  21535745.9064   21535744.3554   16548975.24247
  12941330.84043                  24195645.9924                   24195643.8984
   3437511.34847   2818763.67245  21964500.2894                   21964498.6294
 -27224137.44147 -21173497.71945  22130179.2974                   22130177.3164
 -12579448.64547  -9762542.37145  22821856.9534                   22821858.1134
 -12286812.75048  -9540638.92246  20772765.9224                   20772763.6604
 -44728638.27747 -34812795.58644  22963977.0394                   22963973.6054
  19891135.80546  15627045.03143  23785277.9534                   23785275.6844
 11  8 27  3  3 30.0000000  0  9G12G26G21G15G05G25G29G02G18
 -22249632.66446 -17297049.46143  23947778.2274                   23947777.5554
  -5102981.53547  -2641356.98445  21513257.6024   21513255.6134   16415188.99646
  12837081.88743                  24170187.2424                   24170185.2774
   3282659.32047   2698099.80145  21935033.0164                   21935030.8164
 -27220336.39147 -21170535.85545  22130902.6334                   22130900.6374
 -12586605.50447  -9768119.14145  22820495.3594                   22820496.3204
 -12409370.87148  -9636138.73046  20749444.0084                   20749442.1804
 -44753088.74647 -34831847.90244  22959324.2424                   22959320.8284
  19739320.69146  15508747.61743  23756387.4534                   23756386.3554
 11  8 27  3  4  0.0000000  0  9G12G26G21G15G05G25G29G02G18
 -22232074.56246 -17283367.87143  23951119.0004                   23951118.7894
  -5220571.34847  -2732985.37145  21490881.2664   21490879.1054   16281356.35246
  12732796.80543                  24144718.1414                   24144717.6454
   3128133.44947   2577690.08245  21905627.6804                   21905625.7934
 -27216369.66447 -21167444.89545  22131657.3524                   22131655.6724
 -12593501.05947  -9773492.31245  22819182.7734                   22819183.7934
 -12531518.34448  -9731318.55946  20726200.2734                   20726197.9694
 -44777414.46947 -34850803.02344  22954695.3364                   22954692.1954
  19587736.37946  15390630.07443  23727541.8914                   23727540.6134
 11  8 27  3  4 30.0000000  0  9G12G26G21G15G05G25G29G02G18
 -22214528.77746 -17269695.90643  23954458.3364                   23954458.2194
  -5337565.68747  -2824149.74645  21468617.7814   21468616.0354   16147483.06646
  12628480.03143                  24119243.6954                   24119242.1214
   2973942.60247   2457541.42645  21876286.0084                   21876284.3054
 -27212233.99647 -21164222.30545  22132444.3834                   22132442.5044
 -12600132.66047  -9778659.79744  22817920.8054                   22817922.1804
 -12653247.63348  -9826172.52046  20703035.4384                   20703033.7704
 -44801608.96147 -34869655.86344  22950091.0864                   22950088.0434
  19436389.46146  15272697.51643  23698741.1724                   23698740.2344
 11  8 27  3  5  0.0000000  0  9G12G26G21G15G05G25G29G02G18
 -22197001.30946 -17256038.18743  23957793.5704                   23957793.5354
  -5453965.06248  -2914850.53145  21446467.7894   21446465.7664   16013565.57446
  12524128.80143                  24093760.4144                   24093758.4414
   2820086.90647   2337653.91445  21847008.3284                   21847006.1294
 -27207934.77748 -21160872.25845  22133262.3594                   22133260.2854
 -12606506.23847  -9783626.24245  22816708.3984                   22816708.7734
 -12774559.36748  -9920701.12946  20679951.1334                   20679949.2734
 -44825674.91047 -34888408.57444  22945512.3914                   22945508.6174
  19285277.93846  15154948.37143  23669985.6094                   23669984.5944
 11  8 27  3  5 30.0000000  0  9G12G26G21G15G05G25G29G02G18
 -22179494.82847 -17242396.81643  23961125.3594                   23961125.1804
  -5569767.10548  -3005085.86345  21424431.3204   21424429.4574   15879603.87946
  12419743.14143                  24068268.0234                   24068266.7734
   2666569.18847   2218029.77045  21817794.4614                   21817792.9924
 -27203474.35547 -21157396.58645  22134110.8674                   22134109.3634
 -12612624.93747  -9788394.05145  22815544.2664                   22815544.5904
 -12895451.34048 -10014902.64146  20656945.8204                   20656943.8134
 -44849611.68747 -34907060.59044  22940956.7504                   22940952.8914
  19134402.31647  15037383.06643  23641275.0864                   23641273.9224
 11  8 27  3  6  0.0000000  0  9G12G26G21G15G05G25G29G02G18
 -22162011.34046 -17228773.35944  23964452.7894                   23964451.7034
  -5684968.65247  -3094853.25445  21402508.7814   21402507.5664   15745598.36346
  12315323.35243                  24042767.4694                   24042765.8524
   2513393.27047   2098671.95345  21788646.2424                   21788644.1804
 -27198854.09447 -21153796.37945  22134990.4534                   22134988.2734
 -12618491.01647  -9792965.01645  22814427.3054                   22814428.2234
 -13015920.63348 -10108774.80146  20634021.2894                   20634018.9224
 -44873418.03547 -34925611.02344  22936426.2734                   22936423.0824
  18983763.83246  14920002.54343  23612609.1254                   23612608.3054
 11  8 27  3  6 30.0000000  0  9G12G26G21G15G05G25G29G02G18
 -22144554.33246 -17215170.53143  23967774.3754                   23967773.7274
  -5799567.84848  -3184151.29345  21380701.6954   21380699.6174   15611548.12546
  12210868.69543                  24017258.6644                   24017256.3834
   2360561.41047   1979582.23445  21759563.2974                   21759561.3244
 -27194076.49647 -21150073.59045  22135899.3284                   22135897.7704
 -12624108.07847  -9797341.96545  22813358.6254                   22813359.6914
 -13135965.72747 -10202316.40246  20611177.5704                   20611175.4694
 -44897093.87547 -34944059.75444  22931921.2344                   22931918.1294
  18833363.16846  14802807.30543  23583988.5234                   23583987.6644
 11  8 27  3  7  0.0000000  0  9G12G26G21G15G05G25G29G02G18
 -22127125.94946 -17201590.00843  23971091.0164                   23971090.1254
  -5913561.77747  -3272977.69545  21359008.6724   21359007.4614   15477453.56646
  12106379.50843                  23991741.2114                   23991739.4144
   2208077.23447   1860763.43445  21730546.5944                   21730544.7344
 -27189143.39147 -21146229.60545  22136838.2034                   22136836.1994
 -12629478.71147  -9801526.89545  22812336.5704                   22812337.7464
 -13255583.91048 -10295525.35546  20588415.1024                   20588413.1684
 -44920638.43747 -34962406.18744  22927440.5864                   22927437.7034
  18683201.46147  14685798.26643  23555414.4614                   23555412.8164
 11  8 27  3  7 30.0000000  0  9G12G26G21G15G05G25G29G02G18
 -22109728.08646 -17188033.27343  23974401.4304                   23974401.0314
  -6026947.68747  -3361330.31245  21337432.3364   21337431.0554   15343315.70346
  12001856.57043                  23966215.7194                   23966213.5864
   2055944.41047   1742218.42645  21701596.2424                   21701594.4924
 -27184056.21547 -21142265.56245  22137806.2974                   22137804.3204
 -12634605.18047  -9805521.55145  22811360.9064                   22811362.3554
 -13374772.19948 -10388399.32846  20565733.6484                   20565732.1884
 -44944050.27047 -34980649.19144  22922985.8984                   22922982.0314
  18533279.80146  14568976.26643  23526885.4924                   23526883.4654
 11  8 27  3  8  0.0000000  0  9G12G26G21G15G05G25G29G02G18
 -22092362.39846 -17174501.58243  23977706.7114                   23977705.8404
  -6139721.67247  -3449206.10545  21315972.3284   21315970.6334   15209135.31347
  11897300.50443                  23940681.6484                   23940679.8984
   1904167.02347   1623950.37945  21672714.2814                   21672712.5824
 -27178815.95347 -21138182.24245  22138803.5394                   22138801.6334
 -12639489.22747  -9809327.32045  22810431.4384                   22810433.4494
 -13493527.32048 -10480935.76246  20543136.1564                   20543133.3674
 -44967327.50447 -34998787.31244  22918556.2344                   22918553.0744
  18383600.42246  14452343.07043  23498402.2274                   23498400.8984
 11  8 27  3  8 30.0000000  0  9G12G26G21G15G05G25G29G02G18
 -22075033.97746 -17160998.96943  23981003.4304                   23981003.0704
  -6251883.57847  -3536604.96145  21294628.2974   21294626.9844   15074910.02047
  11792709.44544                  23915139.5634                   23915137.3954
   1752746.10547   1505960.07845  21643899.7344                   21643897.3554
 -27173426.69947 -21133982.81645  22139829.0234                   22139827.1844
 -12644136.00447  -9812948.21545  22809547.3444                   22809548.8444
 -13611848.89848 -10573134.36746  20520620.0944                   20520617.6564
 -44990471.52747 -35016821.61344  22914152.3364                   22914148.4884
  18234161.87546  14335897.53143  23469964.9774                   23469962.3984
 11  8 27  3  9  0.0000000  0  9G12G26G21G15G05G25G29G02G18
 -22057744.07446 -17147526.38343  23984293.6564                   23984293.5594
  -6363429.97347  -3623524.19545  21273401.8914   21273400.6094   14940641.52347
  11688084.74244                  23889589.6334                   23889587.4494
   1601685.89547   1388250.87545  21615153.9384                   21615152.1954
 -27167889.71147 -21129668.28545  22140882.5784                   22140880.7274
 -12648547.28947  -9816385.60544  22808707.3444                   22808709.5554
 -13729733.75848 -10664992.68046  20498187.0084                   20498184.7154
 -45013480.84847 -35034750.94944  22909773.4774                   22909770.2194
  18084966.17646  14219641.21943  23441573.1484                   23441571.8984
 11  8 27  3  9 30.0000000  0  9G12G26G21G15G05G25G29G02G18
 -22040497.12946 -17134087.25443  23987575.1484                   23987575.0314
  -6474360.67247  -3709963.67245  21252292.2664   21252290.8054   14806327.32446
  11583424.41444                  23864029.6094                   23864028.7274
   1450987.53147   1270823.61345  21586476.5234                   21586474.8204
 -27162209.00447 -21125241.75845  22141963.8364                   22141961.8954
 -12652728.30147  -9819643.55144  22807912.5634                   22807913.4844
 -13847182.07048 -10756510.81646  20475837.1484                   20475834.9534
 -45036356.82447 -35052576.39844  22905420.3364                   22905417.1484
  17936011.77046  14103572.94143  23413228.6724                   23413227.1374
 11  8 27  3 10  0.0000000  0  9G12G26G21G15G05G25G29G02G18
 -22023296.02346 -17120683.86343  23990848.8594                   23990848.3444
  -6584673.15647  -3795921.41445  21231300.3914   21231298.8324   14671967.59447
  11478728.60244                  23838462.1174                   23838460.1954
   1300653.67647   1153680.39545  21557869.2034                   21557867.5124
 -27156386.46947 -21120704.73045  22143071.6094                   22143069.6334
 -12656681.82447  -9822724.23845  22807159.9304                   22807161.5944
 -13964191.63348 -10847687.07846  20453571.1334                   20453568.7774
 -45059098.91447 -35070297.51244  22901093.0164                   22901088.7734
  17787299.48446  13987693.31643  23384929.6024                   23384928.0554
 11  8 27  3 10 30.0000000  0  9G12G26G21G15G05G25G29G02G18
 -22006142.17646 -17107317.25443  23994113.7344                   23994112.4844
  -6694364.12547  -3881394.84845  21210426.9924   21210425.6954   14537562.90647
  11373997.76244                  23812885.4304                   23812883.8594
   1150688.31347   1036824.30145  21529331.7114                   21529329.8054
 -27150423.25847 -21116058.07445  22144206.1724                   22144204.9104
 -12660409.91047  -9825629.25044  22806450.1804                   22806452.2704
 -14080758.76648 -10938518.59446  20431389.1484                   20431387.1174
 -45081705.27746 -35087912.86344  22896790.7344                   22896787.8404
  17638831.10546  13872003.77743  23356676.1724                   23356675.1454
 11  8 27  3 11  0.0000000  0  9G12G26G21G15G05G25G29G02G18
 -21989038.83246 -17093990.04743  23997368.2344                   23997368.0124
  -6803432.07847  -3966382.82845  21189672.0394   21189670.5354   14403113.43046
  11269232.01643                  23787301.0784                   23787298.9734
   1001094.46947    920257.71145  21500864.9534                   21500863.4144
 -27144321.91847 -21111303.78145  22145367.6884                   22145365.9494
 -12663915.79747  -9828361.13345  22805783.4454                   22805784.9344
 -14196881.64148 -11029003.92646  20409292.0864                   20409289.3714
 -45104175.53547 -35105422.15644  22892515.0314                   22892511.3594
  17490607.07846  13756504.63343  23328470.5554                   23328468.9734
 11  8 27  3 11 30.0000000  0  9G12G26G21G15G05G25G29G02G18
 -21971987.09646 -17080703.05843  24000613.0864                   24000612.6564
  -6911872.64147  -4050881.93745  21169036.3984   21169034.8554   14268620.29746
  11164432.23444                  23761707.5784                   23761705.7274
    851876.39547    803983.93445  21472469.1254                   21472467.5314
 -27138082.57447 -21106441.96545  22146554.7344                   22146553.3204
 -12667200.91047  -9830920.98845  22805158.5084                   22805159.9344
 -14312557.18048 -11119140.68046  20387279.5864                   20387276.9454
 -45126507.59446 -35122823.75844  22888264.7034                   22888261.8244
  17342629.90646  13641197.83243  23300311.0864                   23300309.9144
 11  8 27  3 12  0.0000000  0  9G12G26G21G15G05G25G29G02G18
 -20379575.13746 -15839862.63343  24303638.5634                   24303638.1454
  -5444265.57847  -2907291.96945  21448313.1954   21448311.4694   15709503.22746
  12287198.25043                  24035898.7194                   24035896.9264
   2278457.00047   1915605.20745  21743939.4224                   21743937.3284
 -25556292.62147 -19873878.36345  22447559.7114                   22447557.7384
 -11094853.11747  -8605714.94545  23104366.2344                   23104367.2034
 -12852363.85548  -9981327.67646  20665145.0394                   20665142.1914
 -43573285.26646 -33912520.66444  23183833.7424                   23183830.7584
  18770319.79746  14753683.53143  23571991.6414                   23571989.8134
 11  8 27  3 12 30.0000000  0  9G12G26G21G15G05G25G29G02G18
 -20362647.20746 -15826672.09043  24306860.7584                   24306860.2114
  -5551458.58647  -2990818.95745  21427914.5394   21427913.2034   15574910.31346
  12182320.73843                  24010286.2734                   24010284.5744
   2129986.43047   1799913.89545  21715686.0004                   21715683.9734
 -25549796.76647 -19868816.65245  22448795.5394                   22448793.5744
 -11097718.68047  -8607947.85945  23103821.0554                   23103822.2814
 -12967150.61748 -10070771.87946  20643301.5474                   20643299.0434
 -43595352.44546 -33929715.88344  23179634.1484                   23179631.4064
  18622824.68846  14638752.35243  23543923.4454                   23543922.4144
 11  8 27  3 13  0.0000000  0  9G12G26G21G15G05G25G29G02G18
 -20345778.66846 -15813527.84044  24310070.5004                   24310070.1374
  -5658018.32048  -3073852.48445  21407637.1094   21407635.4844   15440274.13346
  12077409.50843                  23984665.4924                   23984664.0164
   1981900.28547   1684522.14145  21687505.8834                   21687504.3954
 -25543169.24647 -19863652.35245  22450056.3984                   22450054.8284
 -11100372.67647  -8610015.93044  23103316.0864                   23103316.9844
 -13081483.28548 -10159862.25446  20621545.0234                   20621542.2894
 -43617279.73846 -33946802.07044  23175461.0634                   23175458.4924
  18475578.05946  14524014.80943  23515903.7664                   23515902.2774
 11  8 27  3 13 30.0000000  0  9G12G26G21G15G05G25G29G02G18
 -20328975.14146 -15800434.23843  24313267.3754                   24313267.2194
  -5763945.67648  -3156393.24645  21387480.0944   21387478.2384   15305591.24246
  11972461.89543                  23959036.1484                   23959034.5204
   1834198.78547   1569430.09845  21659399.0234                   21659397.6914
 -25536415.28147 -19858389.51245  22451342.1484                   22451340.2034
 -11102821.01647  -8611923.73445  23102850.2034                   23102851.7544
 -13195362.45748 -10248599.25046  20599874.3204                   20599872.5434
 -43639069.57847 -33963781.17244  23171314.8754                   23171312.4844
  18328577.50447  14409469.01643  23487930.6024                   23487929.2274
 11  8 27  3 14  0.0000000  0  9G12G26G21G15G05G25G29G02G18
 -20312238.81246 -15787393.02043  24316452.7344                   24316452.3594
  -5869238.41847  -3238439.49645  21367443.5474   21367441.6884   15170861.55546
  11867477.80543                  23933398.3984                   23933396.0394
   1686884.49247   1454639.78945  21631366.2344                   21631364.6454
 -25529536.70747 -19853029.59845  22452650.8524                   22452649.0514
 -11105066.66047  -8613673.60245  23102422.7584                   23102424.1524
 -13308786.88748 -10336981.89846  20578290.4454                   20578287.9414
 -43660721.31246 -33980652.70344  23167195.0164                   23167192.0234
  18181823.89147  14295115.59043  23460004.3134                   23460002.3164
 11  8 27  3 14 30.0000000  0  9G12G26G21G15G05G25G29G02G18
 -20295570.37146 -15774404.67243  24319625.1954                   24319624.5634
  -5973892.21947  -3319987.87945  21347528.0704   21347526.6484   15036087.86747
  11762459.40643                  23907751.6334                   23907748.9964
   1539963.25447   1340155.75445  21603407.8674                   21603406.4184
 -25522533.07047 -19847572.20745  22453983.4064                   22453981.7584
 -11107110.00447  -8615265.82444  23102034.1954                   23102035.5274
 -13421751.44548 -10425006.21146  20556793.7274                   20556791.4694
 -43682231.76647 -33997414.08244  23163102.8364                   23163098.6844
  18035320.44147  14180957.14543  23432125.3834                   23432124.2114
 11  8 27  3 15  0.0000000  0  9G12G26G21G15G05G25G29G02G18
 -20278976.22746 -15761474.25443  24322783.0314                   24322782.4144
  -6077908.77347  -3401039.70345  21327734.1334   21327732.7274   14901266.59846
  11657403.93843                  23882096.0704                   23882093.3484
   1393433.90647   1225977.07045  21575524.8204                   21575522.7274
 -25515410.33647 -19842022.02045  22455339.0234                   22455336.8244
 -11108958.16047  -8616705.94944  23101682.3834                   23101683.1604
 -13534258.21148 -10512673.80546  20535384.4304                   20535382.2274
 -43703604.26247 -34014067.99244  23159035.2034                   23159031.5864
  17889063.63746  14066990.86743  23404294.0704                   23404292.2584
 11  8 27  3 15 30.0000000  0  9G12G26G21G15G05G25G29G02G18
 -20262459.08246 -15748603.76643  24325926.1804                   24325924.8554
  -6181286.33247  -3481593.61345  21308062.2734   21308060.5984   14766397.09047
  11552310.87943                  23856431.0164                   23856428.5554
   1247299.10947   1112105.84845  21547716.2814                   21547714.2894
 -25508170.50047 -19836380.58245  22456716.4304                   22456714.6764
 -11110614.25447  -8617996.43444  23101367.2974                   23101368.7154
 -13646305.19548 -10599983.12146  20514062.8674                   20514060.4924
 -43724838.62547 -34030614.27344  23154994.5394                   23154990.8874
  17743053.81646  13953217.06643  23376508.3444                   23376506.6334
 11  8 27  3 16  0.0000000  0  9G12G26G21G15G05G25G29G02G18
 -20246017.21146 -15735791.96543  24329054.2424                   24329053.7894
  -6284018.99247  -3561645.01245  21288513.0944   21288511.3094   14631483.66447
  11447183.59844                  23830758.0784                   23830754.9184
   1101565.70347    998547.39145  21519983.5394                   21519981.8054
 -25500812.01247 -19830646.69945  22458116.8204                   22458115.0394
 -11112077.20347  -8619136.39844  23101088.6644                   23101089.7774
 -13757886.21148 -10686929.34846  20492829.4774                   20492827.0904
 -43745929.86747 -34047049.02744  23150980.6094                   23150977.0314
  17597295.88747  13839639.53143  23348771.8984                   23348770.5704
 11  8 27  3 16 30.0000000  0  9G12G26G21G15G05G25G29G02G18
 -20229654.84046 -15723042.13743  24332168.1954                   24332168.0274
  -6386106.28947  -3641193.52345  21269086.0944   21269084.6174   14496524.85247
  11342020.96543                  23805075.6174                   23805073.2504
    956235.15647    885302.85246  21492327.9614                   21492326.2664
 -25493337.57047 -19824822.44145  22459538.9614                   22459537.4384
 -11113351.54747  -8620129.41844  23100846.3674                   23100847.7854
 -13869000.81248 -10773512.14546  20471685.2974                   20471682.8634
 -43766879.13347 -34063373.14144  23146993.7974                   23146990.8324
  17451788.77747  13726257.41443  23321082.7504                   23321080.8634
 11  8 27  3 17  0.0000000  0  9G12G26G21G15G05G25G29G02G18
 -20213375.51246 -15710357.02343  24335266.6094                   24335266.2424
  -6487547.66847  -3720238.72345  21249782.5944   21249781.1094   14361519.52747
  11236822.07843                  23779385.0164                   23779382.1484
    811309.11348    772373.50846  21464750.1884                   21464747.6684
 -25485750.76647 -19818910.64845  22460982.8134                   22460981.0634
 -11114441.50047  -8620978.75844  23100638.6644                   23100640.0824
 -13979648.27348 -10859730.92246  20450629.7734                   20450626.8164
 -43787686.91446 -34079587.03144  23143033.9534                   23143031.6914
  17306531.99647  13613070.38343  23293441.1094                   23293439.4694
 11  8 27  3 17 30.0000000  0  9G12G26G21G15G05G25G29G02G18
 -20197185.00046 -15697741.07042  24338347.5084                   24338346.5204
  -6588344.31247  -3798781.53945  21230601.5634   21230600.1764   14226464.79347
  11131584.71943                  23753685.0554                   23753682.6024
    666787.07447    659758.96946  21437247.9694                   21437246.1804
 -25478056.41847 -19812915.05145  22462447.4774                   22462445.4804
 -11115353.16847  -8621689.17244  23100465.7034                   23100466.5434
 -14089829.66848 -10945586.53946  20429662.5554                   20429660.3164
 -43808355.78946 -34095692.65644  23139100.8984                   23139097.9774
  17161523.29747  13500076.63743  23265847.0704                   23265845.1374
 11  8 27  3 18  0.0000000  0  9G12G26G21G15G05G25G29G02G18
 -20181082.75846 -15685193.94542  24341411.2114                   24341410.5274
  -6688491.28948  -3876818.10945  21211544.1414   21211542.4734   14091363.42646
  11026310.97744                  23727976.0314                   23727973.8134
    522675.48047    547464.26245  21409824.5944                   21409822.3364
 -25470253.53547 -19806834.86745  22463932.3444                   22463930.4184
 -11116086.37947  -8622260.51644  23100325.9304                   23100327.4144
 -14199540.01648 -11031075.10246  20408785.5554                   20408783.0664
 -43828881.82847 -34111686.98844  23135195.0474                   23135191.2854
  17016765.89847  13387278.72343  23238300.4384                   23238298.7544
 11  8 27  3 18 30.0000000  0  9G12G26G21G15G05G25G29G02G18
 -20165072.48446 -15672718.44943  24344458.0234                   24344458.0904
  -6787987.84047  -3954347.87945  21192610.6254   21192608.9144   13956214.64847
  10921000.33243                  23702257.7194                   23702255.5554
    378975.81647    435490.53546  21382479.2114                   21382477.3054
 -25462345.12147 -19800672.47345  22465436.8834                   22465434.8914
 -11116645.26647  -8622696.01644  23100219.1954                   23100220.7584
 -14308778.23848 -11116195.78146  20387998.2194                   20387995.7344
 -43849265.78146 -34127570.62544  23131316.7894                   23131313.3054
  16872259.35947  13274676.28543  23210802.0944                   23210800.4694
 11  8 27  3 19  0.0000000  0  9G12G26G21G15G05G25G29G02G18
 -20149154.05146 -15660314.57843  24347487.8204                   24347487.5004
  -6886829.74648  -4031367.51245  21173801.8134   21173800.3014   13821021.11746
  10815654.81344                  23676530.6644                   23676528.5664
    235693.55147    323842.05145  21355213.6644                   21355211.4344
 -25454330.66047 -19794427.42645  22466962.3204                   22466959.7114
 -11117030.21147  -8622996.00044  23100145.7974                   23100147.3634
 -14417539.67648 -11200944.93746  20367301.6804                   20367299.1254
 -43869504.29746 -34143340.91444  23127464.4224                   23127461.4414
  16728006.65247  13162271.62543  23183351.4774                   23183349.9964
 11  8 27  3 19 30.0000000  0  9G12G26G21G15G05G25G29G02G18
 -20133330.22746 -15647984.41043  24350498.3364                   24350498.8164
  -6985015.18748  -4107875.62945  21155117.2974   21155115.5554   13685782.58646
  10710274.22343                  23650795.9614                   23650793.8204
     92830.83647    212520.49246  21328027.7814                   21328025.6844
 -25446212.37547 -19788101.49245  22468507.0634                   22468505.1844
 -11117244.69947  -8623163.14144  23100105.8594                   23100106.6884
 -14525822.86748 -11285321.43046  20346695.6334                   20346693.6254
 -43889597.01646 -34158997.60944  23123641.1644                   23123638.5394
  16584008.21947  13050065.10243  23155949.4384                   23155947.6094
 11  8 27  3 20  0.0000000  0  9G12G26G21G15G05G25G29G02G18
 -20117603.33646 -15635729.79743  24353491.0084                   24353491.2584
  -7082542.92248  -4183871.25045  21136559.0314   21136557.1644   13550499.53146
  10604858.94944                  23625052.3754                   23625050.2154
    -49609.10947    101528.35546  21300922.3674                   21300920.6214
 -25437991.73447 -19781695.80145  22470071.5864                   22470069.0434
 -11117291.40247  -8623199.57044  23100096.8284                   23100098.0744
 -14633625.77048 -11369323.68046  20326181.4224                   20326179.3914
 -43909543.47746 -34174540.32044  23119845.5784                   23119843.2814
  16440265.12947  12938057.55143  23128595.3914                   23128594.1954
 11  8 27  3 20 30.0000000  0  9G12G26G21G15G05G25G29G02G18
 -20101981.48846 -15623556.99644  24356464.5164                   24356464.1644
  -7179416.67647  -4259357.26245  21118124.4224   21118122.3594   13415166.28546
  10499404.55144                  23599299.4534                   23599297.7934
   -191629.04747     -9136.48845  21273896.4844                   21273894.5594
 -25429676.53547 -19775216.42645  22471653.7504                   22471651.7504
 -11117179.11747  -8623112.10244  23100117.8054                   23100119.8834
 -14740952.66848 -11452955.01246  20305758.2274                   20305755.9574
 -43929348.83646 -34189973.08644  23116076.9144                   23116073.8134
  16296771.66047  12826244.51243  23101290.0784                   23101288.3554
 11  8 27  3 21  0.0000000  0  9G12G26G21G15G05G25G29G02G18
 -20086463.26246 -15611464.94544  24359417.4774                   24359417.6954
  -7275630.93047  -4334329.39545  21099815.1484   21099813.6954   13279786.62546
  10393913.98844                  23573537.7194                   23573535.7624
   -333222.63747   -119469.11746  21246952.5004                   21246950.3014
 -25421265.02047 -19768661.98045  22473254.0944                   22473252.0204
 -11116906.89847  -8622900.01644  23100170.0634                   23100171.3444
 -14847797.18448 -11536210.47346  20285426.1254                   20285423.7424
 -43949008.24646 -34205292.12144  23112335.4224                   23112332.8244
  16153532.15647  12714629.37144  23074032.4534                   23074030.5784
 11  8 27  3 21 30.0000000  0  9G12G26G21G15G05G25G29G02G18
 -20071049.80946 -15599454.55544  24362350.8284                   24362350.1054
  -7371182.88348  -4408785.44545  21081632.4774   21081630.6024   13144362.16046
  10288388.49644                  23547766.9534                   23547764.9964
   -474385.86348   -229466.40246  21220089.7814                   21220087.5944
 -25412757.32047 -19762032.59845  22474873.3284                   22474871.0004
 -11116476.36747  -8622564.55544  23100251.5234                   23100253.2934
 -14954156.02048 -11619087.45746  20265186.6644                   20265184.4344
 -43968519.98446 -34220496.07443  23108623.1724                   23108619.7074
  16010548.78947  12603213.81343  23046823.5784                   23046822.1914
 11  8 27  3 22  0.0000000  0  9G12G26G21G15G05G25G29G02G18
 -18480323.40646 -14359927.56643  24665055.7114                   24665055.6334
  -5890646.48848  -3255120.70345  21363368.9614   21363367.5554   14584318.49247
  11410432.44944                  23821781.4064                   23821779.7194
    960310.02347    888478.47346  21493102.9924                   21493101.3284
 -23828734.74247 -18527729.27745  22776302.7974                   22776300.7274
  -9540469.57447  -7394507.35544  23400155.7194                   23400157.4184
 -13484602.73048 -10473980.98846  20544833.2424                   20544831.1994
 -42412461.89846 -33007983.32844  23404730.8594                   23404727.5784
  17443247.76647  13719602.66444  23319457.2344                   23319455.3874
 11  8 27  3 22 30.0000000  0  9G12G26G21G15G05G25G29G02G18
 -18465128.96546 -14348087.82444  24667947.4064                   24667947.1564
  -5984870.49648  -3328541.98445  21345438.5864   21345437.2194   14448803.19547
  11304836.18444                  23795993.6804                   23795991.4304
    820014.55947    779157.36345  21466405.9304                   21466404.1454
 -23820042.43047 -18520956.06245  22777956.4924                   22777955.1334
  -9539733.11347  -7393933.50844  23400295.8594                   23400296.9344
 -13589986.73048 -10556098.37546  20524779.4534                   20524777.1884
 -42431678.10546 -33022957.03143  23401074.3674                   23401070.5164
  17300776.39147  13608586.05543  23292345.2274                   23292343.7304
 11  8 27  3 23  0.0000000  0  9G12G26G21G15G05G25G29G02G18
 -18450052.76246 -14336340.20743  24670816.4534                   24670816.2584
  -6078433.47748  -3401448.17245  21327634.1414   21327633.0824   14313237.42647
  11199200.57844                  23770196.8984                   23770194.5164
    680151.55947    670173.23445  21439790.8674                   21439788.8874
 -23811265.55547 -18514116.93745  22779627.3594                   22779625.4064
  -9538853.61747  -7393248.19944  23400464.0314                   23400465.0594
 -13694885.73448 -10637837.84446  20504817.8984                   20504815.4574
 -42450751.18746 -33037819.21943  23397445.2034                   23397441.3554
  17158556.47347  13497765.41444  23265282.1094                   23265280.6414
 11  8 27  3 23 30.0000000  0  9G12G26G21G15G05G25G29G02G18
 -18435094.78946 -14324684.73443  24673662.2424                   24673662.2934
  -6171331.71548  -3473836.39145  21309956.4924   21309954.9774   14177623.79346
  11093527.70344                  23744389.9224                   23744387.5394
    540726.30147    561530.21145  21413258.8524                   21413257.3444
 -23802403.71547 -18507211.59845  22781313.6094                   22781310.8754
  -9537831.48447  -7392451.77044  23400657.5944                   23400660.3834
 -13799295.74248 -10719196.28546  20484949.0634                   20484946.9264
 -42469677.92246 -33052567.31643  23393843.5234                   23393840.4964
  17016590.48446  13387142.62544  23238266.7114                   23238265.2734
 11  8 27  3 24  0.0000000  0  9G12G26G21G15G05G25G29G02G18
 -18420255.77345 -14313122.00043  24676486.4534                   24676486.4694
  -6263561.94548  -3545704.07445  21292405.6414   21292403.7544   14041964.09846
  10987818.93443                  23718574.8444                   23718572.5554
    401742.87547    453231.48046  21386811.6644                   21386810.1884
 -23793457.29347 -18500240.35545  22783015.6414                   22783013.9304
  -9536668.17647  -7391545.32844  23400879.0474                   23400880.8594
 -13903213.26648 -10800170.96546  20465174.2344                   20465172.1454
 -42488456.11746 -33067199.69143  23390270.2974                   23390266.2344
  16874880.77746  13276719.53144  23211300.1024                   23211298.7464
 11  8 27  3 24 30.0000000  0  9G12G26G21G15G05G25G29G02G18
 -18405541.97345 -14301656.83643  24679286.3284                   24679287.0274
  -6355126.60248  -3617053.13745  21274980.9774   21274979.5044   13906254.69146
  10882071.39544                  23692750.2034                   23692747.4264
    263200.17247    345276.15646  21360447.5394                   21360445.6374
 -23784431.65247 -18493207.39144  22784733.1484                   22784731.5164
  -9535370.33247  -7390534.05944  23401126.3364                   23401127.9064
 -14006639.78948 -10880763.05946  20445492.9694                   20445491.0594
 -42507088.93046 -33081718.78144  23386724.4534                   23386721.1174
  16733424.20346  13166493.66844  23184381.9064                   23184379.9104
 11  8 27  3 25  0.0000000  0  9G12G26G21G15G05G25G29G02G18
 -18390952.78545 -14290288.75843  24682062.2424                   24682063.0704
  -6446021.21548  -3687880.06645  21257684.4064   21257683.1094   13770498.93046
  10776287.76244                  23666916.5314                   23666914.0944
    125103.79747    237668.62146  21334168.5314                   21334166.3874
 -23775325.81247 -18486111.93045  22786466.4454                   22786464.2704
  -9533938.00047  -7389417.96944  23401399.0084                   23401399.4104
 -14109570.85948 -10960969.07046  20425905.8914                   20425903.6684
 -42525573.02046 -33096121.99244  23383206.7504                   23383204.0474
  16592224.05547  13056467.64543  23157512.7344                   23157510.6134
 11  8 27  3 25 30.0000000  0  9G12G26G21G15G05G25G29G02G18
 -18376493.25046 -14279021.65242  24684814.2274                   24684814.0824
  -6536247.30547  -3758186.07845  21240514.8524   21240513.0004   13634694.14846
  10670465.93044                  23641074.1094                   23641071.0784
    -12545.71147    130409.29746  21307974.8524                   21307972.8054
 -23766144.16847 -18478957.40245  22788213.4304                   22788211.2774
  -9532376.89547  -7388201.56244  23401696.1954                   23401696.9654
 -14212007.69548 -11040789.97746  20406412.7664                   20406410.5124
 -42543910.26246 -33110410.75444  23379717.5394                   23379714.2114
  16451278.09847  12946639.66444  23130691.7584                   23130689.2974
 11  8 27  3 26  0.0000000  0  9G12G26G21G15G05G25G29G02G18
 -18362158.98046 -14267852.23442  24687542.3914                   24687542.5124
  -6625796.75448  -3827964.85245  21223474.4224   21223472.7774   13498847.27047
  10564611.28144                  23615223.3754                   23615220.6334
   -149739.62547     23504.97346  21281867.8444                   21281865.7854
 -23756881.88747 -18471740.02345  22789976.1094                   22789973.8164
  -9530683.23447  -7386881.84844  23402018.1414                   23402019.6684
 -14313941.35548 -11120218.79346  20387015.4924                   20387013.1564
 -42562093.38746 -33124579.44144  23376257.1954                   23376254.2274
  16310593.42647  12837015.32044  23103919.8444                   23103918.1564
 11  8 27  3 26 30.0000000  0  9G12G26G21G15G05G25G29G02G18
 -18347959.95346 -14256788.17242  24690244.3754                   24690244.5704
  -6714675.68048  -3897221.12145  21206561.1414   21206559.5864   13362951.05147
  10458718.19944                  23589362.8284                   23589360.1884
   -286482.17247    -83047.62946  21255846.9304                   21255844.4144
 -23747548.08647 -18464466.92245  22791751.9614                   22791750.0434
  -9528867.32447  -7385466.87944  23402364.2504                   23402365.2504
 -14415377.52048 -11199259.96146  20367712.7504                   20367710.1994
 -42580129.01246 -33138633.19544  23372824.9144                   23372821.8834
  16170162.94947  12727589.01244  23077196.8444                   23077194.6454
 11  8 27  3 27  0.0000000  0  9G12G26G21G15G05G25G29G02G18
 -18333900.65246 -14245832.90242  24692920.3594                   24692919.8984
  -6802885.18448  -3965955.75845  21189775.0234   21189773.8054   13227003.60947
  10352785.19544                  23563492.8364                   23563489.7154
   -422773.55147   -189248.67645  21229910.8674                   21229908.6374
 -23738146.85247 -18457141.28545  22793541.1484                   22793539.0554
  -9526934.65247  -7383960.93444  23402732.1334                   23402733.1054
 -14516317.43448 -11277914.43746  20348504.6414                   20348502.5164
 -42598019.37546 -33152573.74243  23369420.7504                   23369417.4804
  16029984.65647  12618359.21544  23050522.0004                   23050519.3284
 11  8 27  3 27 30.0000000  0  9G12G26G21G15G05G25G29G02G18
 -18319975.77346 -14234982.47342  24695569.6414                   24695569.8914
  -6890416.10547  -4034161.63745  21173118.7504   21173117.0864   13091012.88746
  10246818.46944                  23537613.9694                   23537611.4804
   -558603.19947   -295089.93746  21204063.0634                   21204061.5984
 -23728671.93047 -18449758.22745  22795344.7584                   22795341.9614
  -9524880.13747  -7382360.01644  23403122.6644                   23403124.1024
 -14616751.18448 -11356174.49246  20329393.0004                   20329390.4694
 -42615755.77746 -33166394.34843  23366045.4064                   23366042.6054
  15890066.82047  12509332.35944  23023896.3134                   23023893.3914
 11  8 27  3 28  0.0000000  0  9G12G26G21G15G05G25G29G02G18
 -18306193.10946 -14224242.78142  24698192.1024                   24698192.4924
  -6977272.88748  -4101842.21545  21156590.1954   21156589.0164   12954973.68047
  10140813.97344                  23511727.3594                   23511723.8014
   -693974.27048   -400573.86345  21178303.4844                   21178301.0164
 -23719130.95347 -18442323.68445  22797160.1334                   22797157.7624
  -9522712.49647  -7380670.98044  23403535.3594                   23403536.9694
 -14716682.58248 -11434043.10946  20310376.5004                   20310374.1134
 -42633343.65646 -33180099.18744  23362698.3134                   23362695.8984
  15750404.46947  12400504.58244  22997319.2894                   22997317.1294
 11  8 27  3 28 30.0000000  0  9G12G26G21G15G05G25G29G02G18
 -18292552.36346 -14213613.74643  24700788.8674                   24700788.4064
  -7063451.73848  -4168994.54345  21140191.8054   21140189.6954   12818889.15247
  10034774.15244                  23485831.3284                   23485828.0784
   -828881.36747   -505696.24646  21152631.3364                   21152629.0984
 -23709522.66447 -18434836.69544  22798988.3054                   22798985.5984
  -9520431.94147  -7378893.94144  23403969.3054                   23403970.5514
 -14816107.22348 -11511516.84846  20291456.5784                   20291454.2424
 -42650779.28946 -33193685.43044  23359381.6724                   23359378.2974
  15611000.34447  12291878.07044  22970791.5164                   22970789.7234
 11  8 27  3 29  0.0000000  0  8G26G21G15G05G25G29G02G18
  -7148951.20348  -4235617.46945  21123921.1564   21123919.3134   12682759.19147
   9928698.92644                  23459926.2344                   23459923.2774
   -963322.02747   -610455.16846  21127048.0084                   21127046.2344
 -23699848.82447 -18427298.64544  22800829.2894                   22800826.7624
  -9518041.30947  -7377031.13744  23404424.3834                   23404425.3324
 -14915023.62148 -11588594.55146  20272633.5314                   20272631.1254
 -42668062.12946 -33207152.59844  23356092.3674                   23356089.5554
  15471855.35247  12183453.46144  22944313.4384                   22944311.2854
 11  8 27  3 29 30.0000000  0  8G26G21G15G05G25G29G02G18
  -7233769.77747  -4301709.84445  21107780.7894   21107778.8874   12546584.70346
   9822589.02044                  23434012.9224                   23434010.1414
  -1097292.93047   -714848.04346  21101553.9774                   21101552.2734
 -23690110.48847 -18419710.32445  22802682.5394                   22802679.9774
  -9515542.95747  -7375084.37144  23404899.7664                   23404901.0124
 -15013429.42248 -11665274.39146  20253907.1954                   20253905.1454
 -42685191.10946 -33220499.86744  23352831.9614                   23352829.9144
  15332970.16047  12075231.27044  22917884.4304                   22917882.4414
 11  8 27  3 30  0.0000000  0  8G26G21G15G05G25G29G02G18
  -7317905.08247  -4367269.79745  21091770.1564   21091768.1844   12410367.44547
   9716445.78144                  23408091.4144                   23408088.8244
  -1230790.49647   -818872.09046  21076150.8204                   21076148.2344
 -23680308.12947 -18412072.13344  22804548.1804                   22804545.6024
  -9512938.44947  -7373054.91044  23405395.5554                   23405396.8244
 -15111321.41448 -11741553.85946  20235279.1094                   20235277.0394
 -42702164.23446 -33233725.70344  23349603.4534                   23349600.0234
  15194346.69947  11967213.04343  22891504.9924                   22891502.9414
 11  8 27  3 30 30.0000000  0  8G26G21G15G05G25G29G02G18
  -7401352.36347  -4432293.62945  21075890.4224   21075889.4064   12274111.23046
   9610272.17244                  23382162.6334                   23382160.2304
  -1363808.41047   -922522.37546  21050837.7664                   21050835.7934
 -23670439.90247 -18404382.59045  22806425.2894                   22806423.3714
  -9510227.19547  -7370942.27744  23405911.4144                   23405912.7424
 -15208694.84448 -11817429.25047  20216749.8054                   20216747.2384
 -42718977.41046 -33246826.87543  23346402.8914                   23346400.5394
  15055988.57447  11859401.57844  22865176.2974                   22865173.8674
 11  8 27  3 31  0.0000000  0  8G26G21G15G05G25G29G02G18
  -7484113.48847  -4496782.78945  21060141.9384   21060139.8954   12137813.45747
   9504066.17644                  23356225.9534                   23356223.1174
  -1496346.91848  -1025799.11346  21025616.3204                   21025614.3794
 -23660510.77747 -18396645.60945  22808315.2504                   22808312.6604
  -9507415.12147  -7368751.08244  23406445.8594                   23406447.4924
 -15305550.77048 -11892901.39546  20198318.5234                   20198316.3554
 -42735632.85246 -33259805.18043  23343234.2664                   23343231.0634
  14917893.19947  11751794.84844  22838897.5004                   22838895.0824
 11  8 27  3 31 30.0000000  0  8G26G21G15G05G25G29G02G18
  -7566182.37947  -4560732.54345  21044524.8594   21044522.8954   12001479.97747
   9397832.37544                  23330283.2034                   23330280.2154
  -1628398.54748  -1128696.44946  21000487.9144                   21000486.1884
 -23650516.34847 -18388857.74244  22810216.5004                   22810214.2734
  -9504499.72347  -7366479.34844  23407001.5084                   23407002.1094
 -15401882.31648 -11967964.93046  20179986.9924                   20179984.9024
 -42752124.97747 -33272656.22344  23340096.2504                   23340092.1254
  14780066.26647  11644397.27344  22812670.5314                   22812667.7774
 11  8 27  3 32  0.0000000  0  8G26G21G15G05G25G29G02G18
  -7647565.77047  -4624148.16045  21029037.9774   21029035.9694   11865103.46147
   9291565.02044                  23304331.3594                   23304328.8014
  -1759968.57847  -1231218.51646  20975451.1724                   20975449.2384
 -23640466.35547 -18381026.58244  22812129.0164                   22812126.6374
  -9501491.71547  -7364135.45344  23407573.9384                   23407574.6884
 -15497695.75848 -12042624.73846  20161754.3914                   20161751.9414
 -42768460.91446 -33285385.53944  23336987.1414                   23336984.3954
  14642500.30147  11537203.06644  22786491.8834                   22786489.9454
 11  8 27  3 32 30.0000000  0  8G26G21G15G05G25G29G02G18
  -6152837.75047  -3459425.00845  21313475.3364   21313473.3714   13304110.91847
  10412869.59044                  23578164.5864                   23578162.3674
   -315627.72748   -105758.08246  21250299.8444                   21250298.3244
 -22054940.32847 -17145551.76644  23113845.0084                   23113843.2584
  -7922971.60547  -6134119.83644  23707955.4534                   23707957.9734
 -14017563.69948 -10889275.06646  20443414.1334                   20443412.0864
 -41209216.73846 -32070390.12944  23633701.5554                   23633698.4804
  16080622.76647  12657818.04344  23060157.4064                   23060155.4774
 11  8 27  3 33  0.0000000  0  8G26G21G15G05G25G29G02G18
  -6232846.92247  -3521769.79345  21298249.5634   21298247.9534   13167649.16447
  10306535.82844                  23552196.9454                   23552194.7624
   -446226.88748   -207523.63346  21225447.7894                   21225445.3554
 -22044783.47747 -17137637.33644  23115776.7814                   23115775.5634
  -7919786.68047  -6131638.10944  23708561.7664                   23708563.7664
 -14112335.27748 -10963123.05146  20425379.4844                   20425377.4414
 -41225237.73046 -32082873.99644  23630652.1724                   23630649.5704
  15943580.29346  12551031.75044  23034078.4774                   23034077.0634
 11  8 27  3 33 30.0000000  0  8G26G21G15G05G25G29G02G18
  -6312168.59447  -3583578.87145  21283156.0004   21283153.6174   13031144.61347
  10200168.70744                  23526221.0634                   23526218.9494
   -576337.73048   -308908.68046  21200688.5084                   21200686.3524
 -22034576.55947 -17129683.89544  23117719.5004                   23117717.5634
  -7916518.46547  -6129091.46944  23709183.8524                   23709185.4924
 -14206585.05948 -11036564.42646  20407444.6094                   20407442.2504
 -41241101.42646 -32095235.30544  23627634.1254                   23627630.8284
  15806799.07447  12444449.02744  23008050.2734                   23008048.0664
 11  8 27  3 34  0.0000000  0  8G26G21G15G05G25G29G02G18
  -6390800.17647  -3644850.21945  21268192.5164   21268190.4964   12894599.30947
  10093769.82444                  23500237.6954                   23500235.0044
   -705956.23448   -409910.07846  21176023.3134                   21176021.0904
 -22024319.55947 -17121691.42244  23119670.9924                   23119669.9024
  -7913168.25847  -6126480.94944  23709821.2504                   23709822.6334
 -14300309.91048 -11109596.77747  20389609.1174                   20389606.9924
 -41256805.66046 -32107472.37143  23624646.0234                   23624642.1804
  15670281.14147  12338071.45744  22982072.0084                   22982069.5904
